<?xml version="1.0" encoding="UTF-8" standalone="no" ?>
<gpx xmlns="http://www.topografix.com/GPX/1/1" xmlns:xsi="http://www.w3.org/2001/XMLSchema-instance" xsi:schemaLocation="http://www.topografix.com/GPX/1/1 http://www.topografix.com/GPX/1/1/gpx.xsd" version="1.1" creator="VisuGPX - https://www.visugpx.com">
  <metadata>
    <name>Reco TV 09 du 7 mai</name>
    <desc><![CDATA[reco tv derniere partie]]></desc>
  </metadata>
  <trk>
    <name><![CDATA[ACTIVE LOG121257]]></name>
    <trkseg>
      <trkpt lat="43.8572" lon="7.19687">
        <ele>137.116</ele>
        <time>2009-05-07T10:12:55Z</time>
      </trkpt>
      <trkpt lat="43.8572" lon="7.19683">
        <ele>142.49</ele>
        <time>2009-05-07T10:13:04Z</time>
      </trkpt>
      <trkpt lat="43.85724" lon="7.19683">
        <ele>143.754</ele>
        <time>2009-05-07T10:13:11Z</time>
      </trkpt>
      <trkpt lat="43.85725" lon="7.19687">
        <ele>145.274</ele>
        <time>2009-05-07T10:13:18Z</time>
      </trkpt>
      <trkpt lat="43.85725" lon="7.19687">
        <ele>146.984</ele>
        <time>2009-05-07T10:13:25Z</time>
      </trkpt>
      <trkpt lat="43.85732" lon="7.19691">
        <ele>147.501</ele>
        <time>2009-05-07T10:13:30Z</time>
      </trkpt>
      <trkpt lat="43.85753" lon="7.1969">
        <ele>146.258</ele>
        <time>2009-05-07T10:13:37Z</time>
      </trkpt>
      <trkpt lat="43.85784" lon="7.19689">
        <ele>145.21</ele>
        <time>2009-05-07T10:13:46Z</time>
      </trkpt>
      <trkpt lat="43.85806" lon="7.19698">
        <ele>140.018</ele>
        <time>2009-05-07T10:13:54Z</time>
      </trkpt>
      <trkpt lat="43.85825" lon="7.19713">
        <ele>139.599</ele>
        <time>2009-05-07T10:14:01Z</time>
      </trkpt>
      <trkpt lat="43.85843" lon="7.19733">
        <ele>134.279</ele>
        <time>2009-05-07T10:14:09Z</time>
      </trkpt>
      <trkpt lat="43.85866" lon="7.19752">
        <ele>127.82</ele>
        <time>2009-05-07T10:14:17Z</time>
      </trkpt>
      <trkpt lat="43.85883" lon="7.19771">
        <ele>130.227</ele>
        <time>2009-05-07T10:14:23Z</time>
      </trkpt>
      <trkpt lat="43.85904" lon="7.19797">
        <ele>130.713</ele>
        <time>2009-05-07T10:14:32Z</time>
      </trkpt>
      <trkpt lat="43.85928" lon="7.19828">
        <ele>132.296</ele>
        <time>2009-05-07T10:14:42Z</time>
      </trkpt>
      <trkpt lat="43.8594" lon="7.19843">
        <ele>133.23</ele>
        <time>2009-05-07T10:14:47Z</time>
      </trkpt>
      <trkpt lat="43.85964" lon="7.19849">
        <ele>136.384</ele>
        <time>2009-05-07T10:14:54Z</time>
      </trkpt>
      <trkpt lat="43.85994" lon="7.19858">
        <ele>139.498</ele>
        <time>2009-05-07T10:15:03Z</time>
      </trkpt>
      <trkpt lat="43.86015" lon="7.19864">
        <ele>141.988</ele>
        <time>2009-05-07T10:15:09Z</time>
      </trkpt>
      <trkpt lat="43.8604" lon="7.19875">
        <ele>144.566</ele>
        <time>2009-05-07T10:15:17Z</time>
      </trkpt>
      <trkpt lat="43.86056" lon="7.19888">
        <ele>147.549</ele>
        <time>2009-05-07T10:15:23Z</time>
      </trkpt>
      <trkpt lat="43.86067" lon="7.19908">
        <ele>147.688</ele>
        <time>2009-05-07T10:15:29Z</time>
      </trkpt>
      <trkpt lat="43.86081" lon="7.19934">
        <ele>145.592</ele>
        <time>2009-05-07T10:15:36Z</time>
      </trkpt>
      <trkpt lat="43.86101" lon="7.19965">
        <ele>144.078</ele>
        <time>2009-05-07T10:15:45Z</time>
      </trkpt>
      <trkpt lat="43.86122" lon="7.19997">
        <ele>144.476</ele>
        <time>2009-05-07T10:15:55Z</time>
      </trkpt>
      <trkpt lat="43.8614" lon="7.20023">
        <ele>148.69</ele>
        <time>2009-05-07T10:16:04Z</time>
      </trkpt>
      <trkpt lat="43.86149" lon="7.2004">
        <ele>149.801</ele>
        <time>2009-05-07T10:16:12Z</time>
      </trkpt>
      <trkpt lat="43.86158" lon="7.20062">
        <ele>149.736</ele>
        <time>2009-05-07T10:16:20Z</time>
      </trkpt>
      <trkpt lat="43.86173" lon="7.20095">
        <ele>146.026</ele>
        <time>2009-05-07T10:16:29Z</time>
      </trkpt>
      <trkpt lat="43.86182" lon="7.20142">
        <ele>146.067</ele>
        <time>2009-05-07T10:16:39Z</time>
      </trkpt>
      <trkpt lat="43.86186" lon="7.20186">
        <ele>146.499</ele>
        <time>2009-05-07T10:16:48Z</time>
      </trkpt>
      <trkpt lat="43.8618" lon="7.20234">
        <ele>146.932</ele>
        <time>2009-05-07T10:16:58Z</time>
      </trkpt>
      <trkpt lat="43.86168" lon="7.20292">
        <ele>147.881</ele>
        <time>2009-05-07T10:17:10Z</time>
      </trkpt>
      <trkpt lat="43.86166" lon="7.20334">
        <ele>147.56</ele>
        <time>2009-05-07T10:17:19Z</time>
      </trkpt>
      <trkpt lat="43.86167" lon="7.20374">
        <ele>147.771</ele>
        <time>2009-05-07T10:17:27Z</time>
      </trkpt>
      <trkpt lat="43.86165" lon="7.20402">
        <ele>148.74</ele>
        <time>2009-05-07T10:17:32Z</time>
      </trkpt>
      <trkpt lat="43.86152" lon="7.20462">
        <ele>152.943</ele>
        <time>2009-05-07T10:17:43Z</time>
      </trkpt>
      <trkpt lat="43.86132" lon="7.20512">
        <ele>162.729</ele>
        <time>2009-05-07T10:17:53Z</time>
      </trkpt>
      <trkpt lat="43.86116" lon="7.20565">
        <ele>167.003</ele>
        <time>2009-05-07T10:18:03Z</time>
      </trkpt>
      <trkpt lat="43.86103" lon="7.20624">
        <ele>170.405</ele>
        <time>2009-05-07T10:18:14Z</time>
      </trkpt>
      <trkpt lat="43.86093" lon="7.20682">
        <ele>171.296</ele>
        <time>2009-05-07T10:18:24Z</time>
      </trkpt>
      <trkpt lat="43.86089" lon="7.20737">
        <ele>172.035</ele>
        <time>2009-05-07T10:18:33Z</time>
      </trkpt>
      <trkpt lat="43.86088" lon="7.20788">
        <ele>172.006</ele>
        <time>2009-05-07T10:18:41Z</time>
      </trkpt>
      <trkpt lat="43.86089" lon="7.20838">
        <ele>172.481</ele>
        <time>2009-05-07T10:18:49Z</time>
      </trkpt>
      <trkpt lat="43.8609" lon="7.20888">
        <ele>172.058</ele>
        <time>2009-05-07T10:18:57Z</time>
      </trkpt>
      <trkpt lat="43.86096" lon="7.20919">
        <ele>172.665</ele>
        <time>2009-05-07T10:19:02Z</time>
      </trkpt>
      <trkpt lat="43.86103" lon="7.2094">
        <ele>173.161</ele>
        <time>2009-05-07T10:19:06Z</time>
      </trkpt>
      <trkpt lat="43.86111" lon="7.20963">
        <ele>172.718</ele>
        <time>2009-05-07T10:19:10Z</time>
      </trkpt>
      <trkpt lat="43.86137" lon="7.21009">
        <ele>173.824</ele>
        <time>2009-05-07T10:19:19Z</time>
      </trkpt>
      <trkpt lat="43.86169" lon="7.21049">
        <ele>174.482</ele>
        <time>2009-05-07T10:19:28Z</time>
      </trkpt>
      <trkpt lat="43.86198" lon="7.21084">
        <ele>176.282</ele>
        <time>2009-05-07T10:19:37Z</time>
      </trkpt>
      <trkpt lat="43.86226" lon="7.21117">
        <ele>178.365</ele>
        <time>2009-05-07T10:19:45Z</time>
      </trkpt>
      <trkpt lat="43.86252" lon="7.21138">
        <ele>178.836</ele>
        <time>2009-05-07T10:19:52Z</time>
      </trkpt>
      <trkpt lat="43.8626" lon="7.21146">
        <ele>178.922</ele>
        <time>2009-05-07T10:19:54Z</time>
      </trkpt>
      <trkpt lat="43.86298" lon="7.21145">
        <ele>178.31</ele>
        <time>2009-05-07T10:20:02Z</time>
      </trkpt>
      <trkpt lat="43.86429" lon="7.21131">
        <ele>160.023</ele>
        <time>2009-05-07T10:20:29Z</time>
      </trkpt>
      <trkpt lat="43.86463" lon="7.21194">
        <ele>177.205</ele>
        <time>2009-05-07T10:20:39Z</time>
      </trkpt>
      <trkpt lat="43.86497" lon="7.21207">
        <ele>173.655</ele>
        <time>2009-05-07T10:20:47Z</time>
      </trkpt>
      <trkpt lat="43.86534" lon="7.21224">
        <ele>175.722</ele>
        <time>2009-05-07T10:20:56Z</time>
      </trkpt>
      <trkpt lat="43.86581" lon="7.21247">
        <ele>176.273</ele>
        <time>2009-05-07T10:21:08Z</time>
      </trkpt>
      <trkpt lat="43.86622" lon="7.21277">
        <ele>174.988</ele>
        <time>2009-05-07T10:21:19Z</time>
      </trkpt>
      <trkpt lat="43.86634" lon="7.21285">
        <ele>174.323</ele>
        <time>2009-05-07T10:21:22Z</time>
      </trkpt>
      <trkpt lat="43.86675" lon="7.21305">
        <ele>174.267</ele>
        <time>2009-05-07T10:21:32Z</time>
      </trkpt>
      <trkpt lat="43.867" lon="7.21315">
        <ele>173.315</ele>
        <time>2009-05-07T10:21:38Z</time>
      </trkpt>
      <trkpt lat="43.86727" lon="7.21316">
        <ele>174.004</ele>
        <time>2009-05-07T10:21:44Z</time>
      </trkpt>
      <trkpt lat="43.86756" lon="7.21324">
        <ele>173.875</ele>
        <time>2009-05-07T10:21:51Z</time>
      </trkpt>
      <trkpt lat="43.86787" lon="7.21352">
        <ele>170.605</ele>
        <time>2009-05-07T10:22:00Z</time>
      </trkpt>
      <trkpt lat="43.86798" lon="7.21362">
        <ele>168.66</ele>
        <time>2009-05-07T10:22:05Z</time>
      </trkpt>
      <trkpt lat="43.86799" lon="7.21362">
        <ele>166.554</ele>
        <time>2009-05-07T10:22:35Z</time>
      </trkpt>
      <trkpt lat="43.86802" lon="7.21369">
        <ele>166.639</ele>
        <time>2009-05-07T10:22:39Z</time>
      </trkpt>
      <trkpt lat="43.8682" lon="7.21384">
        <ele>166.379</ele>
        <time>2009-05-07T10:22:46Z</time>
      </trkpt>
      <trkpt lat="43.86842" lon="7.21406">
        <ele>165.682</ele>
        <time>2009-05-07T10:22:54Z</time>
      </trkpt>
      <trkpt lat="43.86865" lon="7.2143">
        <ele>165.658</ele>
        <time>2009-05-07T10:23:02Z</time>
      </trkpt>
      <trkpt lat="43.86888" lon="7.21451">
        <ele>165.702</ele>
        <time>2009-05-07T10:23:09Z</time>
      </trkpt>
      <trkpt lat="43.86917" lon="7.21461">
        <ele>167.311</ele>
        <time>2009-05-07T10:23:17Z</time>
      </trkpt>
      <trkpt lat="43.86953" lon="7.21483">
        <ele>169.184</ele>
        <time>2009-05-07T10:23:27Z</time>
      </trkpt>
      <trkpt lat="43.86986" lon="7.21506">
        <ele>170.811</ele>
        <time>2009-05-07T10:23:36Z</time>
      </trkpt>
      <trkpt lat="43.87022" lon="7.21522">
        <ele>173.185</ele>
        <time>2009-05-07T10:23:45Z</time>
      </trkpt>
      <trkpt lat="43.87047" lon="7.21528">
        <ele>173.692</ele>
        <time>2009-05-07T10:23:51Z</time>
      </trkpt>
      <trkpt lat="43.87059" lon="7.21531">
        <ele>175.898</ele>
        <time>2009-05-07T10:23:54Z</time>
      </trkpt>
      <trkpt lat="43.87087" lon="7.21544">
        <ele>177.855</ele>
        <time>2009-05-07T10:24:02Z</time>
      </trkpt>
      <trkpt lat="43.87122" lon="7.21559">
        <ele>180.539</ele>
        <time>2009-05-07T10:24:11Z</time>
      </trkpt>
      <trkpt lat="43.87126" lon="7.21562">
        <ele>180.818</ele>
        <time>2009-05-07T10:24:12Z</time>
      </trkpt>
      <trkpt lat="43.87166" lon="7.21597">
        <ele>182.46</ele>
        <time>2009-05-07T10:24:23Z</time>
      </trkpt>
      <trkpt lat="43.87207" lon="7.21629">
        <ele>180.098</ele>
        <time>2009-05-07T10:24:34Z</time>
      </trkpt>
      <trkpt lat="43.87242" lon="7.21663">
        <ele>183.295</ele>
        <time>2009-05-07T10:24:44Z</time>
      </trkpt>
      <trkpt lat="43.87276" lon="7.21692">
        <ele>184.126</ele>
        <time>2009-05-07T10:24:53Z</time>
      </trkpt>
      <trkpt lat="43.87319" lon="7.21728">
        <ele>183.141</ele>
        <time>2009-05-07T10:25:05Z</time>
      </trkpt>
      <trkpt lat="43.87347" lon="7.21764">
        <ele>179.15</ele>
        <time>2009-05-07T10:25:14Z</time>
      </trkpt>
      <trkpt lat="43.87376" lon="7.21806">
        <ele>178.193</ele>
        <time>2009-05-07T10:25:24Z</time>
      </trkpt>
      <trkpt lat="43.87397" lon="7.2185">
        <ele>176.433</ele>
        <time>2009-05-07T10:25:33Z</time>
      </trkpt>
      <trkpt lat="43.87417" lon="7.21894">
        <ele>175.062</ele>
        <time>2009-05-07T10:25:42Z</time>
      </trkpt>
      <trkpt lat="43.87437" lon="7.21947">
        <ele>179.823</ele>
        <time>2009-05-07T10:25:52Z</time>
      </trkpt>
      <trkpt lat="43.87457" lon="7.21993">
        <ele>179.272</ele>
        <time>2009-05-07T10:26:01Z</time>
      </trkpt>
      <trkpt lat="43.87475" lon="7.22039">
        <ele>179.401</ele>
        <time>2009-05-07T10:26:10Z</time>
      </trkpt>
      <trkpt lat="43.87487" lon="7.22069">
        <ele>176.875</ele>
        <time>2009-05-07T10:26:16Z</time>
      </trkpt>
      <trkpt lat="43.87496" lon="7.2212">
        <ele>174.579</ele>
        <time>2009-05-07T10:26:25Z</time>
      </trkpt>
      <trkpt lat="43.875" lon="7.22169">
        <ele>177.845</ele>
        <time>2009-05-07T10:26:33Z</time>
      </trkpt>
      <trkpt lat="43.87512" lon="7.22209">
        <ele>179.3</ele>
        <time>2009-05-07T10:26:40Z</time>
      </trkpt>
      <trkpt lat="43.87516" lon="7.22233">
        <ele>181.898</ele>
        <time>2009-05-07T10:26:44Z</time>
      </trkpt>
      <trkpt lat="43.87519" lon="7.22301">
        <ele>187.912</ele>
        <time>2009-05-07T10:26:55Z</time>
      </trkpt>
      <trkpt lat="43.8752" lon="7.22313">
        <ele>189.216</ele>
        <time>2009-05-07T10:26:57Z</time>
      </trkpt>
      <trkpt lat="43.87532" lon="7.22337">
        <ele>193.62</ele>
        <time>2009-05-07T10:27:02Z</time>
      </trkpt>
      <trkpt lat="43.87566" lon="7.2236">
        <ele>193.37</ele>
        <time>2009-05-07T10:27:11Z</time>
      </trkpt>
      <trkpt lat="43.87585" lon="7.22371">
        <ele>193.266</ele>
        <time>2009-05-07T10:27:16Z</time>
      </trkpt>
      <trkpt lat="43.87604" lon="7.22393">
        <ele>192.123</ele>
        <time>2009-05-07T10:27:22Z</time>
      </trkpt>
      <trkpt lat="43.87626" lon="7.22441">
        <ele>188.963</ele>
        <time>2009-05-07T10:27:32Z</time>
      </trkpt>
      <trkpt lat="43.8764" lon="7.2249">
        <ele>189.7</ele>
        <time>2009-05-07T10:27:41Z</time>
      </trkpt>
      <trkpt lat="43.87646" lon="7.22506">
        <ele>189.741</ele>
        <time>2009-05-07T10:27:44Z</time>
      </trkpt>
      <trkpt lat="43.87668" lon="7.22542">
        <ele>189.227</ele>
        <time>2009-05-07T10:27:52Z</time>
      </trkpt>
      <trkpt lat="43.8768" lon="7.22559">
        <ele>188.863</ele>
        <time>2009-05-07T10:27:56Z</time>
      </trkpt>
      <trkpt lat="43.87692" lon="7.22595">
        <ele>191.823</ele>
        <time>2009-05-07T10:28:03Z</time>
      </trkpt>
      <trkpt lat="43.87693" lon="7.22644">
        <ele>194.743</ele>
        <time>2009-05-07T10:28:11Z</time>
      </trkpt>
      <trkpt lat="43.87695" lon="7.22675">
        <ele>196.964</ele>
        <time>2009-05-07T10:28:16Z</time>
      </trkpt>
      <trkpt lat="43.87702" lon="7.22699">
        <ele>197.594</ele>
        <time>2009-05-07T10:28:20Z</time>
      </trkpt>
      <trkpt lat="43.87729" lon="7.22729">
        <ele>202.116</ele>
        <time>2009-05-07T10:28:28Z</time>
      </trkpt>
      <trkpt lat="43.87743" lon="7.22733">
        <ele>199.944</ele>
        <time>2009-05-07T10:28:31Z</time>
      </trkpt>
      <trkpt lat="43.87766" lon="7.22758">
        <ele>199.225</ele>
        <time>2009-05-07T10:28:38Z</time>
      </trkpt>
      <trkpt lat="43.878" lon="7.22805">
        <ele>196.376</ele>
        <time>2009-05-07T10:28:49Z</time>
      </trkpt>
      <trkpt lat="43.87817" lon="7.22822">
        <ele>194.072</ele>
        <time>2009-05-07T10:28:54Z</time>
      </trkpt>
      <trkpt lat="43.87846" lon="7.22845">
        <ele>192.609</ele>
        <time>2009-05-07T10:29:02Z</time>
      </trkpt>
      <trkpt lat="43.87859" lon="7.22869">
        <ele>192.141</ele>
        <time>2009-05-07T10:29:07Z</time>
      </trkpt>
      <trkpt lat="43.87865" lon="7.22903">
        <ele>192.711</ele>
        <time>2009-05-07T10:29:13Z</time>
      </trkpt>
      <trkpt lat="43.87884" lon="7.22941">
        <ele>192.857</ele>
        <time>2009-05-07T10:29:21Z</time>
      </trkpt>
      <trkpt lat="43.87899" lon="7.22973">
        <ele>193.693</ele>
        <time>2009-05-07T10:29:28Z</time>
      </trkpt>
      <trkpt lat="43.87899" lon="7.22985">
        <ele>193.632</ele>
        <time>2009-05-07T10:29:31Z</time>
      </trkpt>
      <trkpt lat="43.87895" lon="7.23">
        <ele>194.902</ele>
        <time>2009-05-07T10:29:36Z</time>
      </trkpt>
      <trkpt lat="43.87894" lon="7.23017">
        <ele>197.399</ele>
        <time>2009-05-07T10:29:44Z</time>
      </trkpt>
      <trkpt lat="43.87895" lon="7.23024">
        <ele>198.537</ele>
        <time>2009-05-07T10:30:29Z</time>
      </trkpt>
      <trkpt lat="43.87896" lon="7.23033">
        <ele>198.905</ele>
        <time>2009-05-07T10:30:33Z</time>
      </trkpt>
      <trkpt lat="43.87895" lon="7.23036">
        <ele>199.522</ele>
        <time>2009-05-07T10:30:35Z</time>
      </trkpt>
      <trkpt lat="43.87902" lon="7.2305">
        <ele>200.366</ele>
        <time>2009-05-07T10:30:41Z</time>
      </trkpt>
      <trkpt lat="43.87915" lon="7.23077">
        <ele>199.533</ele>
        <time>2009-05-07T10:30:50Z</time>
      </trkpt>
      <trkpt lat="43.8793" lon="7.23105">
        <ele>197.224</ele>
        <time>2009-05-07T10:30:58Z</time>
      </trkpt>
      <trkpt lat="43.87932" lon="7.23139">
        <ele>200.175</ele>
        <time>2009-05-07T10:31:06Z</time>
      </trkpt>
      <trkpt lat="43.87937" lon="7.23189">
        <ele>198.846</ele>
        <time>2009-05-07T10:31:17Z</time>
      </trkpt>
      <trkpt lat="43.8794" lon="7.23228">
        <ele>198.265</ele>
        <time>2009-05-07T10:31:26Z</time>
      </trkpt>
      <trkpt lat="43.87944" lon="7.2325">
        <ele>201.764</ele>
        <time>2009-05-07T10:31:32Z</time>
      </trkpt>
      <trkpt lat="43.87942" lon="7.23255">
        <ele>203.771</ele>
        <time>2009-05-07T10:31:37Z</time>
      </trkpt>
      <trkpt lat="43.87935" lon="7.23234">
        <ele>206.222</ele>
        <time>2009-05-07T10:31:41Z</time>
      </trkpt>
      <trkpt lat="43.87932" lon="7.23215">
        <ele>203.652</ele>
        <time>2009-05-07T10:31:43Z</time>
      </trkpt>
      <trkpt lat="43.87916" lon="7.23162">
        <ele>198.658</ele>
        <time>2009-05-07T10:31:48Z</time>
      </trkpt>
      <trkpt lat="43.87916" lon="7.23157">
        <ele>199.086</ele>
        <time>2009-05-07T10:31:49Z</time>
      </trkpt>
      <trkpt lat="43.87908" lon="7.23143">
        <ele>191.973</ele>
        <time>2009-05-07T10:31:56Z</time>
      </trkpt>
      <trkpt lat="43.87903" lon="7.23139">
        <ele>191.232</ele>
        <time>2009-05-07T10:32:02Z</time>
      </trkpt>
      <trkpt lat="43.879" lon="7.23133">
        <ele>189.515</ele>
        <time>2009-05-07T10:32:08Z</time>
      </trkpt>
      <trkpt lat="43.87897" lon="7.2313">
        <ele>188.833</ele>
        <time>2009-05-07T10:32:16Z</time>
      </trkpt>
      <trkpt lat="43.87896" lon="7.23129">
        <ele>188.732</ele>
        <time>2009-05-07T10:32:19Z</time>
      </trkpt>
      <trkpt lat="43.87888" lon="7.23133">
        <ele>189.259</ele>
        <time>2009-05-07T10:32:25Z</time>
      </trkpt>
      <trkpt lat="43.87882" lon="7.23137">
        <ele>192.456</ele>
        <time>2009-05-07T10:32:32Z</time>
      </trkpt>
      <trkpt lat="43.87878" lon="7.23133">
        <ele>192.481</ele>
        <time>2009-05-07T10:32:34Z</time>
      </trkpt>
      <trkpt lat="43.87877" lon="7.23137">
        <ele>197.136</ele>
        <time>2009-05-07T10:32:41Z</time>
      </trkpt>
      <trkpt lat="43.87876" lon="7.23137">
        <ele>195.993</ele>
        <time>2009-05-07T10:33:00Z</time>
      </trkpt>
      <trkpt lat="43.87874" lon="7.23138">
        <ele>195.431</ele>
        <time>2009-05-07T10:37:24Z</time>
      </trkpt>
      <trkpt lat="43.87865" lon="7.23138">
        <ele>195.007</ele>
        <time>2009-05-07T10:37:28Z</time>
      </trkpt>
      <trkpt lat="43.87859" lon="7.23141">
        <ele>195.826</ele>
        <time>2009-05-07T10:37:34Z</time>
      </trkpt>
      <trkpt lat="43.87857" lon="7.2314">
        <ele>196.454</ele>
        <time>2009-05-07T10:37:42Z</time>
      </trkpt>
      <trkpt lat="43.87853" lon="7.23152">
        <ele>195.779</ele>
        <time>2009-05-07T10:37:49Z</time>
      </trkpt>
      <trkpt lat="43.87852" lon="7.23161">
        <ele>195.318</ele>
        <time>2009-05-07T10:37:53Z</time>
      </trkpt>
      <trkpt lat="43.87851" lon="7.23169">
        <ele>195.561</ele>
        <time>2009-05-07T10:37:57Z</time>
      </trkpt>
      <trkpt lat="43.8785" lon="7.23172">
        <ele>195.474</ele>
        <time>2009-05-07T10:38:01Z</time>
      </trkpt>
      <trkpt lat="43.87842" lon="7.23175">
        <ele>196.704</ele>
        <time>2009-05-07T10:38:10Z</time>
      </trkpt>
      <trkpt lat="43.8784" lon="7.23172">
        <ele>196.658</ele>
        <time>2009-05-07T10:38:17Z</time>
      </trkpt>
      <trkpt lat="43.87843" lon="7.23178">
        <ele>197.22</ele>
        <time>2009-05-07T10:38:27Z</time>
      </trkpt>
      <trkpt lat="43.87842" lon="7.23182">
        <ele>197.325</ele>
        <time>2009-05-07T10:38:36Z</time>
      </trkpt>
      <trkpt lat="43.8784" lon="7.23189">
        <ele>197.533</ele>
        <time>2009-05-07T10:38:45Z</time>
      </trkpt>
      <trkpt lat="43.87842" lon="7.23196">
        <ele>197.793</ele>
        <time>2009-05-07T10:38:49Z</time>
      </trkpt>
      <trkpt lat="43.87846" lon="7.23202">
        <ele>198.741</ele>
        <time>2009-05-07T10:38:55Z</time>
      </trkpt>
      <trkpt lat="43.87842" lon="7.232">
        <ele>199.278</ele>
        <time>2009-05-07T10:39:04Z</time>
      </trkpt>
      <trkpt lat="43.87838" lon="7.23189">
        <ele>200.264</ele>
        <time>2009-05-07T10:39:11Z</time>
      </trkpt>
      <trkpt lat="43.87836" lon="7.23181">
        <ele>201.456</ele>
        <time>2009-05-07T10:39:20Z</time>
      </trkpt>
      <trkpt lat="43.87837" lon="7.23174">
        <ele>202.751</ele>
        <time>2009-05-07T10:39:29Z</time>
      </trkpt>
      <trkpt lat="43.87835" lon="7.23166">
        <ele>205.116</ele>
        <time>2009-05-07T10:39:39Z</time>
      </trkpt>
      <trkpt lat="43.87831" lon="7.23154">
        <ele>207.18</ele>
        <time>2009-05-07T10:39:48Z</time>
      </trkpt>
      <trkpt lat="43.87831" lon="7.2315">
        <ele>208.664</ele>
        <time>2009-05-07T10:39:57Z</time>
      </trkpt>
      <trkpt lat="43.87832" lon="7.23144">
        <ele>210.138</ele>
        <time>2009-05-07T10:40:09Z</time>
      </trkpt>
      <trkpt lat="43.8783" lon="7.2314">
        <ele>214.192</ele>
        <time>2009-05-07T10:40:17Z</time>
      </trkpt>
      <trkpt lat="43.87827" lon="7.23131">
        <ele>215.897</ele>
        <time>2009-05-07T10:40:23Z</time>
      </trkpt>
      <trkpt lat="43.87823" lon="7.23118">
        <ele>219.867</ele>
        <time>2009-05-07T10:40:32Z</time>
      </trkpt>
      <trkpt lat="43.87821" lon="7.2311">
        <ele>221.726</ele>
        <time>2009-05-07T10:40:39Z</time>
      </trkpt>
      <trkpt lat="43.87823" lon="7.23106">
        <ele>224.257</ele>
        <time>2009-05-07T10:40:47Z</time>
      </trkpt>
      <trkpt lat="43.87821" lon="7.231">
        <ele>227.173</ele>
        <time>2009-05-07T10:40:53Z</time>
      </trkpt>
      <trkpt lat="43.87819" lon="7.23094">
        <ele>228.615</ele>
        <time>2009-05-07T10:41:01Z</time>
      </trkpt>
      <trkpt lat="43.87815" lon="7.23086">
        <ele>229.687</ele>
        <time>2009-05-07T10:41:11Z</time>
      </trkpt>
      <trkpt lat="43.87811" lon="7.23085">
        <ele>231.282</ele>
        <time>2009-05-07T10:41:18Z</time>
      </trkpt>
      <trkpt lat="43.87807" lon="7.23081">
        <ele>232.604</ele>
        <time>2009-05-07T10:41:26Z</time>
      </trkpt>
      <trkpt lat="43.87805" lon="7.23082">
        <ele>232.832</ele>
        <time>2009-05-07T10:41:33Z</time>
      </trkpt>
      <trkpt lat="43.87803" lon="7.23085">
        <ele>233.632</ele>
        <time>2009-05-07T10:41:40Z</time>
      </trkpt>
      <trkpt lat="43.87801" lon="7.23088">
        <ele>233.933</ele>
        <time>2009-05-07T10:41:48Z</time>
      </trkpt>
      <trkpt lat="43.87802" lon="7.23089">
        <ele>235.163</ele>
        <time>2009-05-07T10:41:59Z</time>
      </trkpt>
      <trkpt lat="43.87798" lon="7.23083">
        <ele>235.523</ele>
        <time>2009-05-07T10:42:09Z</time>
      </trkpt>
      <trkpt lat="43.87791" lon="7.23078">
        <ele>236.173</ele>
        <time>2009-05-07T10:42:18Z</time>
      </trkpt>
      <trkpt lat="43.87788" lon="7.23072">
        <ele>237.03</ele>
        <time>2009-05-07T10:42:26Z</time>
      </trkpt>
      <trkpt lat="43.87782" lon="7.23063">
        <ele>237.334</ele>
        <time>2009-05-07T10:42:37Z</time>
      </trkpt>
      <trkpt lat="43.87775" lon="7.23054">
        <ele>237.431</ele>
        <time>2009-05-07T10:42:51Z</time>
      </trkpt>
      <trkpt lat="43.87768" lon="7.23051">
        <ele>237.57</ele>
        <time>2009-05-07T10:42:59Z</time>
      </trkpt>
      <trkpt lat="43.87768" lon="7.23051">
        <ele>237.607</ele>
        <time>2009-05-07T10:43:00Z</time>
      </trkpt>
      <trkpt lat="43.87762" lon="7.23048">
        <ele>237.165</ele>
        <time>2009-05-07T10:43:07Z</time>
      </trkpt>
      <trkpt lat="43.87754" lon="7.23048">
        <ele>236.824</ele>
        <time>2009-05-07T10:43:19Z</time>
      </trkpt>
      <trkpt lat="43.87746" lon="7.23046">
        <ele>236.654</ele>
        <time>2009-05-07T10:43:32Z</time>
      </trkpt>
      <trkpt lat="43.87737" lon="7.23044">
        <ele>234.568</ele>
        <time>2009-05-07T10:43:59Z</time>
      </trkpt>
      <trkpt lat="43.87736" lon="7.23044">
        <ele>234.481</ele>
        <time>2009-05-07T10:44:03Z</time>
      </trkpt>
      <trkpt lat="43.87725" lon="7.23029">
        <ele>235.431</ele>
        <time>2009-05-07T10:44:09Z</time>
      </trkpt>
      <trkpt lat="43.87717" lon="7.23026">
        <ele>237.553</ele>
        <time>2009-05-07T10:44:17Z</time>
      </trkpt>
      <trkpt lat="43.87712" lon="7.23023">
        <ele>239.571</ele>
        <time>2009-05-07T10:44:24Z</time>
      </trkpt>
      <trkpt lat="43.87707" lon="7.23022">
        <ele>242.078</ele>
        <time>2009-05-07T10:44:34Z</time>
      </trkpt>
      <trkpt lat="43.87695" lon="7.23012">
        <ele>243.175</ele>
        <time>2009-05-07T10:44:46Z</time>
      </trkpt>
      <trkpt lat="43.87687" lon="7.23014">
        <ele>244.84</ele>
        <time>2009-05-07T10:44:57Z</time>
      </trkpt>
      <trkpt lat="43.87679" lon="7.2301">
        <ele>245.391</ele>
        <time>2009-05-07T10:45:09Z</time>
      </trkpt>
      <trkpt lat="43.87672" lon="7.23">
        <ele>247.684</ele>
        <time>2009-05-07T10:45:17Z</time>
      </trkpt>
      <trkpt lat="43.87671" lon="7.22999">
        <ele>247.928</ele>
        <time>2009-05-07T10:45:18Z</time>
      </trkpt>
      <trkpt lat="43.87665" lon="7.22996">
        <ele>248.083</ele>
        <time>2009-05-07T10:45:25Z</time>
      </trkpt>
      <trkpt lat="43.87658" lon="7.22992">
        <ele>249.056</ele>
        <time>2009-05-07T10:45:31Z</time>
      </trkpt>
      <trkpt lat="43.87652" lon="7.22985">
        <ele>249.941</ele>
        <time>2009-05-07T10:45:36Z</time>
      </trkpt>
      <trkpt lat="43.87648" lon="7.22977">
        <ele>252.484</ele>
        <time>2009-05-07T10:45:48Z</time>
      </trkpt>
      <trkpt lat="43.87647" lon="7.22968">
        <ele>253.124</ele>
        <time>2009-05-07T10:46:15Z</time>
      </trkpt>
      <trkpt lat="43.87646" lon="7.22965">
        <ele>253.852</ele>
        <time>2009-05-07T10:46:20Z</time>
      </trkpt>
      <trkpt lat="43.87643" lon="7.22953">
        <ele>254.781</ele>
        <time>2009-05-07T10:46:28Z</time>
      </trkpt>
      <trkpt lat="43.8764" lon="7.22942">
        <ele>256.441</ele>
        <time>2009-05-07T10:46:34Z</time>
      </trkpt>
      <trkpt lat="43.8763" lon="7.2292">
        <ele>256.987</ele>
        <time>2009-05-07T10:46:44Z</time>
      </trkpt>
      <trkpt lat="43.87623" lon="7.2291">
        <ele>258.397</ele>
        <time>2009-05-07T10:46:50Z</time>
      </trkpt>
      <trkpt lat="43.8762" lon="7.22903">
        <ele>258.858</ele>
        <time>2009-05-07T10:46:53Z</time>
      </trkpt>
      <trkpt lat="43.87615" lon="7.22895">
        <ele>261.724</ele>
        <time>2009-05-07T10:46:58Z</time>
      </trkpt>
      <trkpt lat="43.87611" lon="7.22881">
        <ele>264.254</ele>
        <time>2009-05-07T10:47:06Z</time>
      </trkpt>
      <trkpt lat="43.87603" lon="7.22866">
        <ele>266.632</ele>
        <time>2009-05-07T10:47:13Z</time>
      </trkpt>
      <trkpt lat="43.8759" lon="7.22863">
        <ele>266.744</ele>
        <time>2009-05-07T10:47:18Z</time>
      </trkpt>
      <trkpt lat="43.87571" lon="7.2286">
        <ele>266.342</ele>
        <time>2009-05-07T10:47:26Z</time>
      </trkpt>
      <trkpt lat="43.87555" lon="7.22853">
        <ele>266.91</ele>
        <time>2009-05-07T10:47:35Z</time>
      </trkpt>
      <trkpt lat="43.87549" lon="7.22839">
        <ele>269.204</ele>
        <time>2009-05-07T10:47:41Z</time>
      </trkpt>
      <trkpt lat="43.87546" lon="7.22835">
        <ele>269.963</ele>
        <time>2009-05-07T10:47:46Z</time>
      </trkpt>
      <trkpt lat="43.87549" lon="7.22833">
        <ele>269.895</ele>
        <time>2009-05-07T10:48:51Z</time>
      </trkpt>
      <trkpt lat="43.87557" lon="7.22824">
        <ele>270.838</ele>
        <time>2009-05-07T10:48:57Z</time>
      </trkpt>
      <trkpt lat="43.8756" lon="7.22816">
        <ele>271.401</ele>
        <time>2009-05-07T10:49:03Z</time>
      </trkpt>
      <trkpt lat="43.87561" lon="7.2281">
        <ele>273.11</ele>
        <time>2009-05-07T10:49:10Z</time>
      </trkpt>
      <trkpt lat="43.87561" lon="7.2281">
        <ele>273.205</ele>
        <time>2009-05-07T10:49:17Z</time>
      </trkpt>
      <trkpt lat="43.87563" lon="7.22807">
        <ele>273.39</ele>
        <time>2009-05-07T10:49:27Z</time>
      </trkpt>
      <trkpt lat="43.87564" lon="7.22805">
        <ele>273.394</ele>
        <time>2009-05-07T10:49:34Z</time>
      </trkpt>
      <trkpt lat="43.87566" lon="7.22802">
        <ele>273.416</ele>
        <time>2009-05-07T10:49:41Z</time>
      </trkpt>
      <trkpt lat="43.87568" lon="7.22794">
        <ele>272.989</ele>
        <time>2009-05-07T10:49:49Z</time>
      </trkpt>
      <trkpt lat="43.87568" lon="7.22795">
        <ele>272.929</ele>
        <time>2009-05-07T10:49:59Z</time>
      </trkpt>
      <trkpt lat="43.87569" lon="7.22789">
        <ele>272.814</ele>
        <time>2009-05-07T10:50:07Z</time>
      </trkpt>
      <trkpt lat="43.87569" lon="7.22788">
        <ele>272.801</ele>
        <time>2009-05-07T10:50:19Z</time>
      </trkpt>
      <trkpt lat="43.87569" lon="7.22783">
        <ele>273.297</ele>
        <time>2009-05-07T10:50:25Z</time>
      </trkpt>
      <trkpt lat="43.87568" lon="7.22782">
        <ele>273.914</ele>
        <time>2009-05-07T10:50:35Z</time>
      </trkpt>
      <trkpt lat="43.87571" lon="7.22775">
        <ele>274.64</ele>
        <time>2009-05-07T10:50:39Z</time>
      </trkpt>
      <trkpt lat="43.87571" lon="7.22767">
        <ele>275.11</ele>
        <time>2009-05-07T10:50:44Z</time>
      </trkpt>
      <trkpt lat="43.87569" lon="7.22752">
        <ele>277.34</ele>
        <time>2009-05-07T10:50:52Z</time>
      </trkpt>
      <trkpt lat="43.87567" lon="7.22748">
        <ele>278.572</ele>
        <time>2009-05-07T10:50:55Z</time>
      </trkpt>
      <trkpt lat="43.87566" lon="7.22741">
        <ele>281.325</ele>
        <time>2009-05-07T10:51:00Z</time>
      </trkpt>
      <trkpt lat="43.87565" lon="7.22739">
        <ele>282.677</ele>
        <time>2009-05-07T10:51:02Z</time>
      </trkpt>
      <trkpt lat="43.8756" lon="7.22728">
        <ele>285.646</ele>
        <time>2009-05-07T10:51:11Z</time>
      </trkpt>
      <trkpt lat="43.87555" lon="7.22721">
        <ele>287.828</ele>
        <time>2009-05-07T10:51:18Z</time>
      </trkpt>
      <trkpt lat="43.87553" lon="7.22719">
        <ele>287.869</ele>
        <time>2009-05-07T10:51:20Z</time>
      </trkpt>
      <trkpt lat="43.8755" lon="7.22715">
        <ele>289.096</ele>
        <time>2009-05-07T10:51:24Z</time>
      </trkpt>
      <trkpt lat="43.87547" lon="7.22712">
        <ele>291.308</ele>
        <time>2009-05-07T10:51:33Z</time>
      </trkpt>
      <trkpt lat="43.87546" lon="7.22708">
        <ele>291.498</ele>
        <time>2009-05-07T10:51:42Z</time>
      </trkpt>
      <trkpt lat="43.87544" lon="7.22708">
        <ele>291.142</ele>
        <time>2009-05-07T10:51:55Z</time>
      </trkpt>
      <trkpt lat="43.87546" lon="7.22712">
        <ele>291.142</ele>
        <time>2009-05-07T10:52:09Z</time>
      </trkpt>
      <trkpt lat="43.87547" lon="7.22721">
        <ele>293.007</ele>
        <time>2009-05-07T10:52:22Z</time>
      </trkpt>
      <trkpt lat="43.87549" lon="7.22725">
        <ele>294.759</ele>
        <time>2009-05-07T10:52:32Z</time>
      </trkpt>
      <trkpt lat="43.87548" lon="7.22728">
        <ele>296.295</ele>
        <time>2009-05-07T10:52:50Z</time>
      </trkpt>
      <trkpt lat="43.87547" lon="7.22732">
        <ele>297.017</ele>
        <time>2009-05-07T10:57:37Z</time>
      </trkpt>
      <trkpt lat="43.87547" lon="7.22735">
        <ele>297.368</ele>
        <time>2009-05-07T10:57:44Z</time>
      </trkpt>
      <trkpt lat="43.87544" lon="7.22743">
        <ele>297.972</ele>
        <time>2009-05-07T10:57:48Z</time>
      </trkpt>
      <trkpt lat="43.87541" lon="7.22752">
        <ele>297.114</ele>
        <time>2009-05-07T10:57:55Z</time>
      </trkpt>
      <trkpt lat="43.87541" lon="7.22763">
        <ele>295.436</ele>
        <time>2009-05-07T10:58:04Z</time>
      </trkpt>
      <trkpt lat="43.87538" lon="7.22765">
        <ele>293.87</ele>
        <time>2009-05-07T10:58:11Z</time>
      </trkpt>
      <trkpt lat="43.87536" lon="7.22759">
        <ele>293.27</ele>
        <time>2009-05-07T10:58:18Z</time>
      </trkpt>
      <trkpt lat="43.87535" lon="7.22755">
        <ele>292.985</ele>
        <time>2009-05-07T10:58:25Z</time>
      </trkpt>
      <trkpt lat="43.87532" lon="7.22748">
        <ele>292.721</ele>
        <time>2009-05-07T10:58:34Z</time>
      </trkpt>
      <trkpt lat="43.8753" lon="7.22744">
        <ele>293.003</ele>
        <time>2009-05-07T10:58:41Z</time>
      </trkpt>
      <trkpt lat="43.87529" lon="7.2274">
        <ele>293.519</ele>
        <time>2009-05-07T10:58:57Z</time>
      </trkpt>
      <trkpt lat="43.87529" lon="7.22738">
        <ele>293.651</ele>
        <time>2009-05-07T10:59:04Z</time>
      </trkpt>
      <trkpt lat="43.87528" lon="7.22727">
        <ele>295.037</ele>
        <time>2009-05-07T10:59:10Z</time>
      </trkpt>
      <trkpt lat="43.87527" lon="7.22725">
        <ele>295.369</ele>
        <time>2009-05-07T10:59:11Z</time>
      </trkpt>
      <trkpt lat="43.87524" lon="7.22726">
        <ele>296.012</ele>
        <time>2009-05-07T10:59:14Z</time>
      </trkpt>
      <trkpt lat="43.87525" lon="7.22736">
        <ele>297.129</ele>
        <time>2009-05-07T10:59:21Z</time>
      </trkpt>
      <trkpt lat="43.87524" lon="7.22744">
        <ele>299.102</ele>
        <time>2009-05-07T10:59:27Z</time>
      </trkpt>
      <trkpt lat="43.87522" lon="7.2275">
        <ele>300.221</ele>
        <time>2009-05-07T10:59:33Z</time>
      </trkpt>
      <trkpt lat="43.87519" lon="7.22752">
        <ele>301.403</ele>
        <time>2009-05-07T10:59:40Z</time>
      </trkpt>
      <trkpt lat="43.87518" lon="7.22746">
        <ele>302.706</ele>
        <time>2009-05-07T10:59:47Z</time>
      </trkpt>
      <trkpt lat="43.87517" lon="7.22738">
        <ele>304.678</ele>
        <time>2009-05-07T10:59:56Z</time>
      </trkpt>
      <trkpt lat="43.87512" lon="7.22733">
        <ele>305.663</ele>
        <time>2009-05-07T11:00:05Z</time>
      </trkpt>
      <trkpt lat="43.87512" lon="7.22731">
        <ele>305.975</ele>
        <time>2009-05-07T11:00:14Z</time>
      </trkpt>
      <trkpt lat="43.87512" lon="7.2273">
        <ele>306.016</ele>
        <time>2009-05-07T11:00:20Z</time>
      </trkpt>
      <trkpt lat="43.87509" lon="7.22719">
        <ele>307.561</ele>
        <time>2009-05-07T11:00:28Z</time>
      </trkpt>
      <trkpt lat="43.87506" lon="7.2271">
        <ele>310.454</ele>
        <time>2009-05-07T11:00:35Z</time>
      </trkpt>
      <trkpt lat="43.87504" lon="7.22705">
        <ele>311.791</ele>
        <time>2009-05-07T11:00:42Z</time>
      </trkpt>
      <trkpt lat="43.87503" lon="7.22709">
        <ele>311.917</ele>
        <time>2009-05-07T11:00:45Z</time>
      </trkpt>
      <trkpt lat="43.87505" lon="7.22715">
        <ele>312.763</ele>
        <time>2009-05-07T11:00:53Z</time>
      </trkpt>
      <trkpt lat="43.87505" lon="7.22719">
        <ele>313.199</ele>
        <time>2009-05-07T11:01:01Z</time>
      </trkpt>
      <trkpt lat="43.87504" lon="7.2273">
        <ele>314.309</ele>
        <time>2009-05-07T11:01:11Z</time>
      </trkpt>
      <trkpt lat="43.87504" lon="7.22733">
        <ele>314.744</ele>
        <time>2009-05-07T11:01:18Z</time>
      </trkpt>
      <trkpt lat="43.87502" lon="7.22736">
        <ele>315.327</ele>
        <time>2009-05-07T11:01:24Z</time>
      </trkpt>
      <trkpt lat="43.87499" lon="7.22745">
        <ele>315.577</ele>
        <time>2009-05-07T11:01:35Z</time>
      </trkpt>
      <trkpt lat="43.87497" lon="7.22748">
        <ele>315.592</ele>
        <time>2009-05-07T11:01:44Z</time>
      </trkpt>
      <trkpt lat="43.87493" lon="7.22748">
        <ele>316.599</ele>
        <time>2009-05-07T11:01:54Z</time>
      </trkpt>
      <trkpt lat="43.87495" lon="7.22747">
        <ele>317.826</ele>
        <time>2009-05-07T11:02:03Z</time>
      </trkpt>
      <trkpt lat="43.87495" lon="7.22734">
        <ele>319.1</ele>
        <time>2009-05-07T11:02:14Z</time>
      </trkpt>
      <trkpt lat="43.87491" lon="7.22722">
        <ele>320.229</ele>
        <time>2009-05-07T11:02:22Z</time>
      </trkpt>
      <trkpt lat="43.8749" lon="7.22718">
        <ele>320.191</ele>
        <time>2009-05-07T11:02:25Z</time>
      </trkpt>
      <trkpt lat="43.87488" lon="7.22712">
        <ele>321.135</ele>
        <time>2009-05-07T11:02:29Z</time>
      </trkpt>
      <trkpt lat="43.87488" lon="7.22694">
        <ele>323.453</ele>
        <time>2009-05-07T11:02:38Z</time>
      </trkpt>
      <trkpt lat="43.87486" lon="7.22691">
        <ele>324.075</ele>
        <time>2009-05-07T11:02:44Z</time>
      </trkpt>
      <trkpt lat="43.87485" lon="7.22691">
        <ele>324.263</ele>
        <time>2009-05-07T11:02:54Z</time>
      </trkpt>
      <trkpt lat="43.87486" lon="7.22694">
        <ele>324.155</ele>
        <time>2009-05-07T11:03:01Z</time>
      </trkpt>
      <trkpt lat="43.8748" lon="7.227">
        <ele>325.136</ele>
        <time>2009-05-07T11:03:09Z</time>
      </trkpt>
      <trkpt lat="43.87478" lon="7.22704">
        <ele>326.705</ele>
        <time>2009-05-07T11:03:18Z</time>
      </trkpt>
      <trkpt lat="43.87478" lon="7.22708">
        <ele>327.167</ele>
        <time>2009-05-07T11:03:25Z</time>
      </trkpt>
      <trkpt lat="43.87479" lon="7.2272">
        <ele>328.566</ele>
        <time>2009-05-07T11:03:35Z</time>
      </trkpt>
      <trkpt lat="43.87478" lon="7.22724">
        <ele>328.969</ele>
        <time>2009-05-07T11:03:43Z</time>
      </trkpt>
      <trkpt lat="43.87475" lon="7.22728">
        <ele>329.842</ele>
        <time>2009-05-07T11:04:04Z</time>
      </trkpt>
      <trkpt lat="43.87475" lon="7.22729">
        <ele>330.262</ele>
        <time>2009-05-07T11:04:24Z</time>
      </trkpt>
      <trkpt lat="43.87471" lon="7.2272">
        <ele>330.438</ele>
        <time>2009-05-07T11:04:32Z</time>
      </trkpt>
      <trkpt lat="43.87468" lon="7.22713">
        <ele>331.486</ele>
        <time>2009-05-07T11:04:39Z</time>
      </trkpt>
      <trkpt lat="43.87465" lon="7.22712">
        <ele>332.981</ele>
        <time>2009-05-07T11:04:47Z</time>
      </trkpt>
      <trkpt lat="43.87464" lon="7.22718">
        <ele>332.92</ele>
        <time>2009-05-07T11:04:55Z</time>
      </trkpt>
      <trkpt lat="43.8746" lon="7.22726">
        <ele>333.187</ele>
        <time>2009-05-07T11:05:07Z</time>
      </trkpt>
      <trkpt lat="43.8746" lon="7.22723">
        <ele>333.407</ele>
        <time>2009-05-07T11:05:13Z</time>
      </trkpt>
      <trkpt lat="43.87458" lon="7.22716">
        <ele>334.212</ele>
        <time>2009-05-07T11:05:21Z</time>
      </trkpt>
      <trkpt lat="43.87456" lon="7.22711">
        <ele>335.213</ele>
        <time>2009-05-07T11:05:30Z</time>
      </trkpt>
      <trkpt lat="43.87456" lon="7.2271">
        <ele>335.517</ele>
        <time>2009-05-07T11:05:38Z</time>
      </trkpt>
      <trkpt lat="43.87456" lon="7.22706">
        <ele>336.111</ele>
        <time>2009-05-07T11:05:47Z</time>
      </trkpt>
      <trkpt lat="43.87457" lon="7.22692">
        <ele>337.125</ele>
        <time>2009-05-07T11:05:54Z</time>
      </trkpt>
      <trkpt lat="43.87459" lon="7.22679">
        <ele>338.099</ele>
        <time>2009-05-07T11:06:01Z</time>
      </trkpt>
      <trkpt lat="43.87458" lon="7.22671">
        <ele>339.233</ele>
        <time>2009-05-07T11:06:08Z</time>
      </trkpt>
      <trkpt lat="43.87458" lon="7.22668">
        <ele>340.361</ele>
        <time>2009-05-07T11:06:16Z</time>
      </trkpt>
      <trkpt lat="43.87458" lon="7.2266">
        <ele>341.077</ele>
        <time>2009-05-07T11:06:24Z</time>
      </trkpt>
      <trkpt lat="43.87456" lon="7.22651">
        <ele>341.653</ele>
        <time>2009-05-07T11:06:32Z</time>
      </trkpt>
      <trkpt lat="43.87456" lon="7.22644">
        <ele>342.241</ele>
        <time>2009-05-07T11:06:39Z</time>
      </trkpt>
      <trkpt lat="43.87453" lon="7.2264">
        <ele>342.514</ele>
        <time>2009-05-07T11:06:43Z</time>
      </trkpt>
      <trkpt lat="43.87452" lon="7.22638">
        <ele>343.043</ele>
        <time>2009-05-07T11:06:50Z</time>
      </trkpt>
      <trkpt lat="43.8745" lon="7.22635">
        <ele>343.56</ele>
        <time>2009-05-07T11:07:00Z</time>
      </trkpt>
      <trkpt lat="43.87447" lon="7.22633">
        <ele>344.129</ele>
        <time>2009-05-07T11:07:07Z</time>
      </trkpt>
      <trkpt lat="43.87445" lon="7.22639">
        <ele>344.226</ele>
        <time>2009-05-07T11:07:16Z</time>
      </trkpt>
      <trkpt lat="43.87447" lon="7.22644">
        <ele>344.332</ele>
        <time>2009-05-07T11:07:23Z</time>
      </trkpt>
      <trkpt lat="43.87444" lon="7.22651">
        <ele>345.116</ele>
        <time>2009-05-07T11:07:32Z</time>
      </trkpt>
      <trkpt lat="43.87443" lon="7.22651">
        <ele>345.427</ele>
        <time>2009-05-07T11:07:43Z</time>
      </trkpt>
      <trkpt lat="43.87438" lon="7.22644">
        <ele>346.623</ele>
        <time>2009-05-07T11:07:54Z</time>
      </trkpt>
      <trkpt lat="43.87433" lon="7.22642">
        <ele>346.56</ele>
        <time>2009-05-07T11:08:02Z</time>
      </trkpt>
      <trkpt lat="43.87431" lon="7.22641">
        <ele>346.575</ele>
        <time>2009-05-07T11:08:13Z</time>
      </trkpt>
      <trkpt lat="43.87427" lon="7.22639">
        <ele>346.784</ele>
        <time>2009-05-07T11:08:18Z</time>
      </trkpt>
      <trkpt lat="43.87424" lon="7.22638">
        <ele>347.567</ele>
        <time>2009-05-07T11:08:25Z</time>
      </trkpt>
      <trkpt lat="43.8742" lon="7.22638">
        <ele>347.657</ele>
        <time>2009-05-07T11:08:34Z</time>
      </trkpt>
      <trkpt lat="43.87411" lon="7.22635">
        <ele>348.435</ele>
        <time>2009-05-07T11:08:44Z</time>
      </trkpt>
      <trkpt lat="43.87408" lon="7.22637">
        <ele>348.464</ele>
        <time>2009-05-07T11:08:51Z</time>
      </trkpt>
      <trkpt lat="43.87405" lon="7.22642">
        <ele>348.528</ele>
        <time>2009-05-07T11:08:59Z</time>
      </trkpt>
      <trkpt lat="43.87403" lon="7.22643">
        <ele>348.798</ele>
        <time>2009-05-07T11:09:06Z</time>
      </trkpt>
      <trkpt lat="43.87395" lon="7.22649">
        <ele>350.598</ele>
        <time>2009-05-07T11:09:14Z</time>
      </trkpt>
      <trkpt lat="43.87385" lon="7.2266">
        <ele>354.442</ele>
        <time>2009-05-07T11:09:22Z</time>
      </trkpt>
      <trkpt lat="43.87383" lon="7.22664">
        <ele>355.193</ele>
        <time>2009-05-07T11:09:25Z</time>
      </trkpt>
      <trkpt lat="43.87371" lon="7.22674">
        <ele>358.715</ele>
        <time>2009-05-07T11:09:33Z</time>
      </trkpt>
      <trkpt lat="43.8737" lon="7.22675">
        <ele>359.246</ele>
        <time>2009-05-07T11:09:34Z</time>
      </trkpt>
      <trkpt lat="43.87364" lon="7.22681">
        <ele>362.919</ele>
        <time>2009-05-07T11:09:41Z</time>
      </trkpt>
      <trkpt lat="43.87354" lon="7.22685">
        <ele>367.859</ele>
        <time>2009-05-07T11:09:49Z</time>
      </trkpt>
      <trkpt lat="43.8735" lon="7.22687">
        <ele>369.396</ele>
        <time>2009-05-07T11:09:54Z</time>
      </trkpt>
      <trkpt lat="43.87348" lon="7.22688">
        <ele>370.242</ele>
        <time>2009-05-07T11:10:00Z</time>
      </trkpt>
      <trkpt lat="43.87347" lon="7.2269">
        <ele>371.35</ele>
        <time>2009-05-07T11:10:12Z</time>
      </trkpt>
      <trkpt lat="43.87342" lon="7.22688">
        <ele>373.53</ele>
        <time>2009-05-07T11:10:28Z</time>
      </trkpt>
      <trkpt lat="43.87334" lon="7.22691">
        <ele>375.082</ele>
        <time>2009-05-07T11:10:40Z</time>
      </trkpt>
      <trkpt lat="43.87331" lon="7.22693">
        <ele>376.505</ele>
        <time>2009-05-07T11:10:43Z</time>
      </trkpt>
      <trkpt lat="43.87327" lon="7.22692">
        <ele>377.012</ele>
        <time>2009-05-07T11:10:46Z</time>
      </trkpt>
      <trkpt lat="43.87324" lon="7.22689">
        <ele>377.423</ele>
        <time>2009-05-07T11:10:49Z</time>
      </trkpt>
      <trkpt lat="43.87321" lon="7.22688">
        <ele>379.426</ele>
        <time>2009-05-07T11:10:53Z</time>
      </trkpt>
      <trkpt lat="43.87315" lon="7.22682">
        <ele>383.793</ele>
        <time>2009-05-07T11:11:03Z</time>
      </trkpt>
      <trkpt lat="43.87311" lon="7.2268">
        <ele>384.785</ele>
        <time>2009-05-07T11:11:10Z</time>
      </trkpt>
      <trkpt lat="43.87311" lon="7.22676">
        <ele>385.466</ele>
        <time>2009-05-07T11:11:16Z</time>
      </trkpt>
      <trkpt lat="43.87309" lon="7.22674">
        <ele>385.662</ele>
        <time>2009-05-07T11:11:18Z</time>
      </trkpt>
      <trkpt lat="43.87306" lon="7.22663">
        <ele>385.933</ele>
        <time>2009-05-07T11:11:24Z</time>
      </trkpt>
      <trkpt lat="43.87304" lon="7.22656">
        <ele>387.189</ele>
        <time>2009-05-07T11:11:29Z</time>
      </trkpt>
      <trkpt lat="43.87296" lon="7.22643">
        <ele>388.939</ele>
        <time>2009-05-07T11:11:38Z</time>
      </trkpt>
      <trkpt lat="43.87293" lon="7.22638">
        <ele>388.632</ele>
        <time>2009-05-07T11:11:42Z</time>
      </trkpt>
      <trkpt lat="43.87284" lon="7.22628">
        <ele>390.11</ele>
        <time>2009-05-07T11:11:49Z</time>
      </trkpt>
      <trkpt lat="43.87281" lon="7.22621">
        <ele>390.734</ele>
        <time>2009-05-07T11:11:53Z</time>
      </trkpt>
      <trkpt lat="43.87276" lon="7.22618">
        <ele>392.113</ele>
        <time>2009-05-07T11:12:02Z</time>
      </trkpt>
      <trkpt lat="43.87275" lon="7.22617">
        <ele>392.295</ele>
        <time>2009-05-07T11:12:05Z</time>
      </trkpt>
      <trkpt lat="43.87274" lon="7.22611">
        <ele>392.893</ele>
        <time>2009-05-07T11:12:12Z</time>
      </trkpt>
      <trkpt lat="43.87272" lon="7.22607">
        <ele>393.797</ele>
        <time>2009-05-07T11:12:22Z</time>
      </trkpt>
      <trkpt lat="43.87269" lon="7.226">
        <ele>393.638</ele>
        <time>2009-05-07T11:12:31Z</time>
      </trkpt>
      <trkpt lat="43.87268" lon="7.22597">
        <ele>393.693</ele>
        <time>2009-05-07T11:12:39Z</time>
      </trkpt>
      <trkpt lat="43.87263" lon="7.22592">
        <ele>395.834</ele>
        <time>2009-05-07T11:17:05Z</time>
      </trkpt>
      <trkpt lat="43.87259" lon="7.22584">
        <ele>397.418</ele>
        <time>2009-05-07T11:17:13Z</time>
      </trkpt>
      <trkpt lat="43.87257" lon="7.22577">
        <ele>398.282</ele>
        <time>2009-05-07T11:17:20Z</time>
      </trkpt>
      <trkpt lat="43.87253" lon="7.22573">
        <ele>398.821</ele>
        <time>2009-05-07T11:17:27Z</time>
      </trkpt>
      <trkpt lat="43.87249" lon="7.22568">
        <ele>398.914</ele>
        <time>2009-05-07T11:17:35Z</time>
      </trkpt>
      <trkpt lat="43.87242" lon="7.22564">
        <ele>398.973</ele>
        <time>2009-05-07T11:17:44Z</time>
      </trkpt>
      <trkpt lat="43.87237" lon="7.22561">
        <ele>398.842</ele>
        <time>2009-05-07T11:17:52Z</time>
      </trkpt>
      <trkpt lat="43.87237" lon="7.2256">
        <ele>398.609</ele>
        <time>2009-05-07T11:17:58Z</time>
      </trkpt>
      <trkpt lat="43.87235" lon="7.22558">
        <ele>398.65</ele>
        <time>2009-05-07T11:18:06Z</time>
      </trkpt>
      <trkpt lat="43.87228" lon="7.22547">
        <ele>399.158</ele>
        <time>2009-05-07T11:18:13Z</time>
      </trkpt>
      <trkpt lat="43.8722" lon="7.22544">
        <ele>400.013</ele>
        <time>2009-05-07T11:18:20Z</time>
      </trkpt>
      <trkpt lat="43.87216" lon="7.22536">
        <ele>401.052</ele>
        <time>2009-05-07T11:18:26Z</time>
      </trkpt>
      <trkpt lat="43.87209" lon="7.22523">
        <ele>402.562</ele>
        <time>2009-05-07T11:18:34Z</time>
      </trkpt>
      <trkpt lat="43.87209" lon="7.22519">
        <ele>403.626</ele>
        <time>2009-05-07T11:18:39Z</time>
      </trkpt>
      <trkpt lat="43.87205" lon="7.22515">
        <ele>404.269</ele>
        <time>2009-05-07T11:18:44Z</time>
      </trkpt>
      <trkpt lat="43.87203" lon="7.22513">
        <ele>404.166</ele>
        <time>2009-05-07T11:18:46Z</time>
      </trkpt>
      <trkpt lat="43.87198" lon="7.22507">
        <ele>404.754</ele>
        <time>2009-05-07T11:18:54Z</time>
      </trkpt>
      <trkpt lat="43.87194" lon="7.22502">
        <ele>405.515</ele>
        <time>2009-05-07T11:19:01Z</time>
      </trkpt>
      <trkpt lat="43.87191" lon="7.22505">
        <ele>405.246</ele>
        <time>2009-05-07T11:19:23Z</time>
      </trkpt>
      <trkpt lat="43.87192" lon="7.22506">
        <ele>406.057</ele>
        <time>2009-05-07T11:19:31Z</time>
      </trkpt>
      <trkpt lat="43.87192" lon="7.22509">
        <ele>409.925</ele>
        <time>2009-05-07T11:19:37Z</time>
      </trkpt>
      <trkpt lat="43.87191" lon="7.22513">
        <ele>413.474</ele>
        <time>2009-05-07T11:19:43Z</time>
      </trkpt>
      <trkpt lat="43.87186" lon="7.22529">
        <ele>416.808</ele>
        <time>2009-05-07T11:19:51Z</time>
      </trkpt>
      <trkpt lat="43.87176" lon="7.22534">
        <ele>418.002</ele>
        <time>2009-05-07T11:19:59Z</time>
      </trkpt>
      <trkpt lat="43.87164" lon="7.22547">
        <ele>422.024</ele>
        <time>2009-05-07T11:20:07Z</time>
      </trkpt>
      <trkpt lat="43.87157" lon="7.22553">
        <ele>423.394</ele>
        <time>2009-05-07T11:20:14Z</time>
      </trkpt>
      <trkpt lat="43.87149" lon="7.22558">
        <ele>424.456</ele>
        <time>2009-05-07T11:20:20Z</time>
      </trkpt>
      <trkpt lat="43.87141" lon="7.22568">
        <ele>425.502</ele>
        <time>2009-05-07T11:20:27Z</time>
      </trkpt>
      <trkpt lat="43.87131" lon="7.22582">
        <ele>425.504</ele>
        <time>2009-05-07T11:20:34Z</time>
      </trkpt>
      <trkpt lat="43.8712" lon="7.22596">
        <ele>427.051</ele>
        <time>2009-05-07T11:20:42Z</time>
      </trkpt>
      <trkpt lat="43.87106" lon="7.22615">
        <ele>429.846</ele>
        <time>2009-05-07T11:20:51Z</time>
      </trkpt>
      <trkpt lat="43.87097" lon="7.22638">
        <ele>431.277</ele>
        <time>2009-05-07T11:20:59Z</time>
      </trkpt>
      <trkpt lat="43.87092" lon="7.22652">
        <ele>431.87</ele>
        <time>2009-05-07T11:21:04Z</time>
      </trkpt>
      <trkpt lat="43.87083" lon="7.22655">
        <ele>432.104</ele>
        <time>2009-05-07T11:21:09Z</time>
      </trkpt>
      <trkpt lat="43.87074" lon="7.22636">
        <ele>431.902</ele>
        <time>2009-05-07T11:21:17Z</time>
      </trkpt>
      <trkpt lat="43.87069" lon="7.22625">
        <ele>432.174</ele>
        <time>2009-05-07T11:21:23Z</time>
      </trkpt>
      <trkpt lat="43.87064" lon="7.22614">
        <ele>431.718</ele>
        <time>2009-05-07T11:21:28Z</time>
      </trkpt>
      <trkpt lat="43.87062" lon="7.22603">
        <ele>431.956</ele>
        <time>2009-05-07T11:21:35Z</time>
      </trkpt>
      <trkpt lat="43.87062" lon="7.22602">
        <ele>431.771</ele>
        <time>2009-05-07T11:21:36Z</time>
      </trkpt>
      <trkpt lat="43.87055" lon="7.22595">
        <ele>433.614</ele>
        <time>2009-05-07T11:21:43Z</time>
      </trkpt>
      <trkpt lat="43.87047" lon="7.22592">
        <ele>433.139</ele>
        <time>2009-05-07T11:21:49Z</time>
      </trkpt>
      <trkpt lat="43.8704" lon="7.22584">
        <ele>435.784</ele>
        <time>2009-05-07T11:21:57Z</time>
      </trkpt>
      <trkpt lat="43.87031" lon="7.2258">
        <ele>435.593</ele>
        <time>2009-05-07T11:22:04Z</time>
      </trkpt>
      <trkpt lat="43.87025" lon="7.22578">
        <ele>434.81</ele>
        <time>2009-05-07T11:22:09Z</time>
      </trkpt>
      <trkpt lat="43.87017" lon="7.22577">
        <ele>436.049</ele>
        <time>2009-05-07T11:22:16Z</time>
      </trkpt>
      <trkpt lat="43.8701" lon="7.22581">
        <ele>438.202</ele>
        <time>2009-05-07T11:22:21Z</time>
      </trkpt>
      <trkpt lat="43.87" lon="7.22585">
        <ele>439.103</ele>
        <time>2009-05-07T11:22:30Z</time>
      </trkpt>
      <trkpt lat="43.86995" lon="7.22586">
        <ele>440.546</ele>
        <time>2009-05-07T11:22:36Z</time>
      </trkpt>
      <trkpt lat="43.86993" lon="7.22589">
        <ele>440.845</ele>
        <time>2009-05-07T11:22:43Z</time>
      </trkpt>
      <trkpt lat="43.86994" lon="7.22588">
        <ele>441.824</ele>
        <time>2009-05-07T11:22:49Z</time>
      </trkpt>
      <trkpt lat="43.86999" lon="7.22588">
        <ele>442.627</ele>
        <time>2009-05-07T11:23:10Z</time>
      </trkpt>
      <trkpt lat="43.87006" lon="7.22593">
        <ele>442.761</ele>
        <time>2009-05-07T11:23:19Z</time>
      </trkpt>
      <trkpt lat="43.87008" lon="7.22596">
        <ele>442.187</ele>
        <time>2009-05-07T11:23:26Z</time>
      </trkpt>
      <trkpt lat="43.87009" lon="7.22598">
        <ele>442.849</ele>
        <time>2009-05-07T11:23:33Z</time>
      </trkpt>
      <trkpt lat="43.87013" lon="7.22607">
        <ele>442.126</ele>
        <time>2009-05-07T11:23:39Z</time>
      </trkpt>
      <trkpt lat="43.87018" lon="7.22616">
        <ele>442.738</ele>
        <time>2009-05-07T11:23:46Z</time>
      </trkpt>
      <trkpt lat="43.87024" lon="7.22623">
        <ele>445.929</ele>
        <time>2009-05-07T11:23:52Z</time>
      </trkpt>
      <trkpt lat="43.87016" lon="7.22621">
        <ele>447.732</ele>
        <time>2009-05-07T11:23:57Z</time>
      </trkpt>
      <trkpt lat="43.87014" lon="7.2262">
        <ele>448.22</ele>
        <time>2009-05-07T11:23:58Z</time>
      </trkpt>
      <trkpt lat="43.87008" lon="7.22617">
        <ele>451.143</ele>
        <time>2009-05-07T11:24:06Z</time>
      </trkpt>
      <trkpt lat="43.87003" lon="7.22615">
        <ele>451.853</ele>
        <time>2009-05-07T11:24:14Z</time>
      </trkpt>
      <trkpt lat="43.87003" lon="7.22614">
        <ele>453.688</ele>
        <time>2009-05-07T11:24:25Z</time>
      </trkpt>
      <trkpt lat="43.87" lon="7.22612">
        <ele>454.783</ele>
        <time>2009-05-07T11:24:36Z</time>
      </trkpt>
      <trkpt lat="43.86994" lon="7.22611">
        <ele>455.178</ele>
        <time>2009-05-07T11:24:57Z</time>
      </trkpt>
      <trkpt lat="43.86988" lon="7.22614">
        <ele>453.354</ele>
        <time>2009-05-07T11:25:05Z</time>
      </trkpt>
      <trkpt lat="43.86985" lon="7.22613">
        <ele>453.929</ele>
        <time>2009-05-07T11:25:14Z</time>
      </trkpt>
      <trkpt lat="43.86981" lon="7.22614">
        <ele>454.315</ele>
        <time>2009-05-07T11:25:26Z</time>
      </trkpt>
      <trkpt lat="43.86977" lon="7.22617">
        <ele>455.023</ele>
        <time>2009-05-07T11:26:45Z</time>
      </trkpt>
      <trkpt lat="43.86971" lon="7.22618">
        <ele>456.333</ele>
        <time>2009-05-07T11:26:52Z</time>
      </trkpt>
      <trkpt lat="43.86964" lon="7.22621">
        <ele>458.441</ele>
        <time>2009-05-07T11:27:02Z</time>
      </trkpt>
      <trkpt lat="43.86958" lon="7.22623">
        <ele>460.183</ele>
        <time>2009-05-07T11:27:09Z</time>
      </trkpt>
      <trkpt lat="43.86953" lon="7.22625">
        <ele>463.086</ele>
        <time>2009-05-07T11:27:17Z</time>
      </trkpt>
      <trkpt lat="43.86952" lon="7.22627">
        <ele>464.366</ele>
        <time>2009-05-07T11:27:24Z</time>
      </trkpt>
      <trkpt lat="43.86945" lon="7.22629">
        <ele>464.373</ele>
        <time>2009-05-07T11:27:33Z</time>
      </trkpt>
      <trkpt lat="43.86939" lon="7.22629">
        <ele>465.147</ele>
        <time>2009-05-07T11:27:40Z</time>
      </trkpt>
      <trkpt lat="43.86936" lon="7.2263">
        <ele>465.894</ele>
        <time>2009-05-07T11:27:47Z</time>
      </trkpt>
      <trkpt lat="43.8693" lon="7.22637">
        <ele>465.699</ele>
        <time>2009-05-07T11:27:55Z</time>
      </trkpt>
      <trkpt lat="43.86928" lon="7.22642">
        <ele>465.908</ele>
        <time>2009-05-07T11:28:01Z</time>
      </trkpt>
      <trkpt lat="43.86925" lon="7.22646">
        <ele>467.04</ele>
        <time>2009-05-07T11:28:08Z</time>
      </trkpt>
      <trkpt lat="43.86918" lon="7.22655">
        <ele>468.482</ele>
        <time>2009-05-07T11:28:15Z</time>
      </trkpt>
      <trkpt lat="43.86913" lon="7.22658">
        <ele>469.354</ele>
        <time>2009-05-07T11:28:19Z</time>
      </trkpt>
      <trkpt lat="43.8691" lon="7.22661">
        <ele>470.601</ele>
        <time>2009-05-07T11:28:27Z</time>
      </trkpt>
      <trkpt lat="43.86908" lon="7.22664">
        <ele>470.803</ele>
        <time>2009-05-07T11:28:37Z</time>
      </trkpt>
      <trkpt lat="43.86908" lon="7.22667">
        <ele>471.792</ele>
        <time>2009-05-07T11:28:45Z</time>
      </trkpt>
      <trkpt lat="43.86903" lon="7.22677">
        <ele>472.599</ele>
        <time>2009-05-07T11:28:53Z</time>
      </trkpt>
      <trkpt lat="43.86899" lon="7.22681">
        <ele>473.441</ele>
        <time>2009-05-07T11:28:59Z</time>
      </trkpt>
      <trkpt lat="43.86896" lon="7.22683">
        <ele>474.718</ele>
        <time>2009-05-07T11:29:06Z</time>
      </trkpt>
      <trkpt lat="43.86893" lon="7.22687">
        <ele>475.896</ele>
        <time>2009-05-07T11:29:13Z</time>
      </trkpt>
      <trkpt lat="43.86888" lon="7.22687">
        <ele>477.04</ele>
        <time>2009-05-07T11:29:20Z</time>
      </trkpt>
      <trkpt lat="43.86884" lon="7.22692">
        <ele>476.67</ele>
        <time>2009-05-07T11:29:27Z</time>
      </trkpt>
      <trkpt lat="43.8688" lon="7.22697">
        <ele>477.099</ele>
        <time>2009-05-07T11:29:33Z</time>
      </trkpt>
      <trkpt lat="43.86877" lon="7.227">
        <ele>477.544</ele>
        <time>2009-05-07T11:29:40Z</time>
      </trkpt>
      <trkpt lat="43.86876" lon="7.227">
        <ele>477.707</ele>
        <time>2009-05-07T11:29:41Z</time>
      </trkpt>
      <trkpt lat="43.86869" lon="7.22703">
        <ele>477.17</ele>
        <time>2009-05-07T11:29:48Z</time>
      </trkpt>
      <trkpt lat="43.86861" lon="7.22712">
        <ele>477.79</ele>
        <time>2009-05-07T11:29:55Z</time>
      </trkpt>
      <trkpt lat="43.86862" lon="7.22714">
        <ele>477.78</ele>
        <time>2009-05-07T11:30:03Z</time>
      </trkpt>
      <trkpt lat="43.86862" lon="7.22721">
        <ele>478.027</ele>
        <time>2009-05-07T11:30:13Z</time>
      </trkpt>
      <trkpt lat="43.86861" lon="7.22726">
        <ele>478.755</ele>
        <time>2009-05-07T11:30:19Z</time>
      </trkpt>
      <trkpt lat="43.86861" lon="7.22728">
        <ele>478.647</ele>
        <time>2009-05-07T11:30:20Z</time>
      </trkpt>
      <trkpt lat="43.86861" lon="7.22735">
        <ele>479.248</ele>
        <time>2009-05-07T11:30:28Z</time>
      </trkpt>
      <trkpt lat="43.86862" lon="7.22742">
        <ele>480.262</ele>
        <time>2009-05-07T11:30:36Z</time>
      </trkpt>
      <trkpt lat="43.86865" lon="7.22746">
        <ele>480.242</ele>
        <time>2009-05-07T11:30:43Z</time>
      </trkpt>
      <trkpt lat="43.86864" lon="7.22754">
        <ele>482.281</ele>
        <time>2009-05-07T11:30:52Z</time>
      </trkpt>
      <trkpt lat="43.86864" lon="7.22759">
        <ele>483.115</ele>
        <time>2009-05-07T11:31:00Z</time>
      </trkpt>
      <trkpt lat="43.86862" lon="7.2276">
        <ele>482.632</ele>
        <time>2009-05-07T11:31:05Z</time>
      </trkpt>
      <trkpt lat="43.86858" lon="7.22762">
        <ele>482.858</ele>
        <time>2009-05-07T11:31:12Z</time>
      </trkpt>
      <trkpt lat="43.86857" lon="7.22763">
        <ele>483.192</ele>
        <time>2009-05-07T11:31:13Z</time>
      </trkpt>
      <trkpt lat="43.86854" lon="7.22761">
        <ele>482.769</ele>
        <time>2009-05-07T11:31:16Z</time>
      </trkpt>
      <trkpt lat="43.86848" lon="7.22768">
        <ele>483.583</ele>
        <time>2009-05-07T11:31:22Z</time>
      </trkpt>
      <trkpt lat="43.86843" lon="7.22774">
        <ele>483.625</ele>
        <time>2009-05-07T11:31:26Z</time>
      </trkpt>
      <trkpt lat="43.86834" lon="7.22776">
        <ele>485.018</ele>
        <time>2009-05-07T11:31:33Z</time>
      </trkpt>
      <trkpt lat="43.86833" lon="7.22777">
        <ele>485.094</ele>
        <time>2009-05-07T11:31:34Z</time>
      </trkpt>
      <trkpt lat="43.86827" lon="7.22784">
        <ele>487.13</ele>
        <time>2009-05-07T11:31:41Z</time>
      </trkpt>
      <trkpt lat="43.86823" lon="7.22792">
        <ele>489.066</ele>
        <time>2009-05-07T11:31:46Z</time>
      </trkpt>
      <trkpt lat="43.86819" lon="7.22802">
        <ele>490.742</ele>
        <time>2009-05-07T11:31:53Z</time>
      </trkpt>
      <trkpt lat="43.86817" lon="7.22803">
        <ele>491.615</ele>
        <time>2009-05-07T11:31:55Z</time>
      </trkpt>
      <trkpt lat="43.86812" lon="7.22811">
        <ele>492.889</ele>
        <time>2009-05-07T11:32:03Z</time>
      </trkpt>
      <trkpt lat="43.86811" lon="7.22813">
        <ele>493.099</ele>
        <time>2009-05-07T11:32:10Z</time>
      </trkpt>
      <trkpt lat="43.8681" lon="7.22814">
        <ele>493.051</ele>
        <time>2009-05-07T11:32:46Z</time>
      </trkpt>
      <trkpt lat="43.86806" lon="7.22816">
        <ele>492.918</ele>
        <time>2009-05-07T11:32:50Z</time>
      </trkpt>
      <trkpt lat="43.86796" lon="7.22822">
        <ele>493.955</ele>
        <time>2009-05-07T11:32:57Z</time>
      </trkpt>
      <trkpt lat="43.86788" lon="7.22824">
        <ele>494.968</ele>
        <time>2009-05-07T11:33:03Z</time>
      </trkpt>
      <trkpt lat="43.86774" lon="7.22823">
        <ele>496.152</ele>
        <time>2009-05-07T11:33:13Z</time>
      </trkpt>
      <trkpt lat="43.86764" lon="7.22825">
        <ele>497.731</ele>
        <time>2009-05-07T11:33:21Z</time>
      </trkpt>
      <trkpt lat="43.86753" lon="7.22827">
        <ele>499.404</ele>
        <time>2009-05-07T11:33:28Z</time>
      </trkpt>
      <trkpt lat="43.86751" lon="7.2283">
        <ele>499.876</ele>
        <time>2009-05-07T11:33:31Z</time>
      </trkpt>
      <trkpt lat="43.86745" lon="7.2283">
        <ele>501.188</ele>
        <time>2009-05-07T11:33:37Z</time>
      </trkpt>
      <trkpt lat="43.86745" lon="7.22829">
        <ele>501.202</ele>
        <time>2009-05-07T11:33:49Z</time>
      </trkpt>
      <trkpt lat="43.86743" lon="7.22835">
        <ele>500.944</ele>
        <time>2009-05-07T11:36:07Z</time>
      </trkpt>
      <trkpt lat="43.86742" lon="7.22837">
        <ele>501.563</ele>
        <time>2009-05-07T11:36:09Z</time>
      </trkpt>
      <trkpt lat="43.86734" lon="7.22844">
        <ele>502.623</ele>
        <time>2009-05-07T11:36:17Z</time>
      </trkpt>
      <trkpt lat="43.86723" lon="7.22848">
        <ele>505.76</ele>
        <time>2009-05-07T11:36:26Z</time>
      </trkpt>
      <trkpt lat="43.8671" lon="7.22843">
        <ele>507.697</ele>
        <time>2009-05-07T11:36:34Z</time>
      </trkpt>
      <trkpt lat="43.86697" lon="7.2283">
        <ele>508.282</ele>
        <time>2009-05-07T11:36:42Z</time>
      </trkpt>
      <trkpt lat="43.86694" lon="7.22827">
        <ele>508.251</ele>
        <time>2009-05-07T11:36:45Z</time>
      </trkpt>
      <trkpt lat="43.86683" lon="7.22827">
        <ele>509.165</ele>
        <time>2009-05-07T11:36:52Z</time>
      </trkpt>
      <trkpt lat="43.86677" lon="7.2283">
        <ele>509.17</ele>
        <time>2009-05-07T11:36:55Z</time>
      </trkpt>
      <trkpt lat="43.86663" lon="7.22835">
        <ele>510.43</ele>
        <time>2009-05-07T11:37:03Z</time>
      </trkpt>
      <trkpt lat="43.86649" lon="7.22843">
        <ele>511.969</ele>
        <time>2009-05-07T11:37:12Z</time>
      </trkpt>
      <trkpt lat="43.8664" lon="7.22852">
        <ele>514.67</ele>
        <time>2009-05-07T11:37:21Z</time>
      </trkpt>
      <trkpt lat="43.86634" lon="7.22857">
        <ele>516.333</ele>
        <time>2009-05-07T11:37:26Z</time>
      </trkpt>
      <trkpt lat="43.86624" lon="7.22866">
        <ele>518.032</ele>
        <time>2009-05-07T11:37:34Z</time>
      </trkpt>
      <trkpt lat="43.86622" lon="7.2287">
        <ele>518.97</ele>
        <time>2009-05-07T11:37:36Z</time>
      </trkpt>
      <trkpt lat="43.86621" lon="7.22872">
        <ele>519.879</ele>
        <time>2009-05-07T11:37:43Z</time>
      </trkpt>
      <trkpt lat="43.8662" lon="7.22876">
        <ele>520.773</ele>
        <time>2009-05-07T11:37:54Z</time>
      </trkpt>
      <trkpt lat="43.86618" lon="7.22883">
        <ele>521.425</ele>
        <time>2009-05-07T11:38:02Z</time>
      </trkpt>
      <trkpt lat="43.86614" lon="7.22891">
        <ele>520.443</ele>
        <time>2009-05-07T11:38:18Z</time>
      </trkpt>
      <trkpt lat="43.86613" lon="7.22893">
        <ele>520.539</ele>
        <time>2009-05-07T11:38:24Z</time>
      </trkpt>
      <trkpt lat="43.86611" lon="7.229">
        <ele>521.036</ele>
        <time>2009-05-07T11:38:29Z</time>
      </trkpt>
      <trkpt lat="43.86607" lon="7.22915">
        <ele>522.92</ele>
        <time>2009-05-07T11:38:37Z</time>
      </trkpt>
      <trkpt lat="43.86605" lon="7.22921">
        <ele>522.514</ele>
        <time>2009-05-07T11:38:41Z</time>
      </trkpt>
      <trkpt lat="43.86599" lon="7.22921">
        <ele>522.233</ele>
        <time>2009-05-07T11:38:45Z</time>
      </trkpt>
      <trkpt lat="43.86592" lon="7.22914">
        <ele>522.964</ele>
        <time>2009-05-07T11:38:51Z</time>
      </trkpt>
      <trkpt lat="43.86583" lon="7.22917">
        <ele>523.909</ele>
        <time>2009-05-07T11:38:58Z</time>
      </trkpt>
      <trkpt lat="43.86577" lon="7.22911">
        <ele>523.708</ele>
        <time>2009-05-07T11:39:05Z</time>
      </trkpt>
      <trkpt lat="43.86575" lon="7.22905">
        <ele>524.574</ele>
        <time>2009-05-07T11:39:08Z</time>
      </trkpt>
      <trkpt lat="43.86575" lon="7.22894">
        <ele>524.552</ele>
        <time>2009-05-07T11:39:14Z</time>
      </trkpt>
      <trkpt lat="43.86576" lon="7.2289">
        <ele>523.591</ele>
        <time>2009-05-07T11:39:17Z</time>
      </trkpt>
      <trkpt lat="43.86576" lon="7.22887">
        <ele>523.28</ele>
        <time>2009-05-07T11:39:20Z</time>
      </trkpt>
      <trkpt lat="43.86575" lon="7.22879">
        <ele>521.135</ele>
        <time>2009-05-07T11:39:25Z</time>
      </trkpt>
      <trkpt lat="43.86575" lon="7.22867">
        <ele>520.325</ele>
        <time>2009-05-07T11:39:32Z</time>
      </trkpt>
      <trkpt lat="43.86575" lon="7.22863">
        <ele>520.857</ele>
        <time>2009-05-07T11:39:34Z</time>
      </trkpt>
      <trkpt lat="43.86574" lon="7.2286">
        <ele>521.722</ele>
        <time>2009-05-07T11:39:37Z</time>
      </trkpt>
      <trkpt lat="43.86575" lon="7.22848">
        <ele>521.849</ele>
        <time>2009-05-07T11:39:43Z</time>
      </trkpt>
      <trkpt lat="43.86574" lon="7.22841">
        <ele>521.536</ele>
        <time>2009-05-07T11:39:47Z</time>
      </trkpt>
      <trkpt lat="43.86575" lon="7.22836">
        <ele>522.348</ele>
        <time>2009-05-07T11:39:50Z</time>
      </trkpt>
      <trkpt lat="43.86574" lon="7.2283">
        <ele>522.64</ele>
        <time>2009-05-07T11:39:54Z</time>
      </trkpt>
      <trkpt lat="43.86575" lon="7.22814">
        <ele>523.988</ele>
        <time>2009-05-07T11:40:04Z</time>
      </trkpt>
      <trkpt lat="43.86576" lon="7.22811">
        <ele>524.8</ele>
        <time>2009-05-07T11:40:06Z</time>
      </trkpt>
      <trkpt lat="43.86577" lon="7.22801">
        <ele>525.16</ele>
        <time>2009-05-07T11:40:13Z</time>
      </trkpt>
      <trkpt lat="43.86576" lon="7.2279">
        <ele>527.591</ele>
        <time>2009-05-07T11:40:20Z</time>
      </trkpt>
      <trkpt lat="43.86575" lon="7.22788">
        <ele>527.761</ele>
        <time>2009-05-07T11:40:21Z</time>
      </trkpt>
      <trkpt lat="43.86571" lon="7.22773">
        <ele>529.811</ele>
        <time>2009-05-07T11:40:29Z</time>
      </trkpt>
      <trkpt lat="43.86569" lon="7.22771">
        <ele>531.048</ele>
        <time>2009-05-07T11:40:30Z</time>
      </trkpt>
      <trkpt lat="43.86567" lon="7.22768">
        <ele>534.454</ele>
        <time>2009-05-07T11:40:34Z</time>
      </trkpt>
      <trkpt lat="43.86564" lon="7.22768">
        <ele>536.936</ele>
        <time>2009-05-07T11:40:41Z</time>
      </trkpt>
      <trkpt lat="43.86558" lon="7.22769">
        <ele>537.812</ele>
        <time>2009-05-07T11:40:53Z</time>
      </trkpt>
      <trkpt lat="43.86547" lon="7.22767">
        <ele>540.642</ele>
        <time>2009-05-07T11:41:00Z</time>
      </trkpt>
      <trkpt lat="43.86534" lon="7.22766">
        <ele>540.958</ele>
        <time>2009-05-07T11:41:07Z</time>
      </trkpt>
      <trkpt lat="43.8653" lon="7.22769">
        <ele>541.367</ele>
        <time>2009-05-07T11:41:09Z</time>
      </trkpt>
      <trkpt lat="43.86514" lon="7.22771">
        <ele>543.517</ele>
        <time>2009-05-07T11:41:17Z</time>
      </trkpt>
      <trkpt lat="43.86497" lon="7.22772">
        <ele>545.23</ele>
        <time>2009-05-07T11:41:25Z</time>
      </trkpt>
      <trkpt lat="43.86482" lon="7.22775">
        <ele>543.607</ele>
        <time>2009-05-07T11:41:32Z</time>
      </trkpt>
      <trkpt lat="43.86466" lon="7.22778">
        <ele>546.138</ele>
        <time>2009-05-07T11:41:39Z</time>
      </trkpt>
      <trkpt lat="43.8645" lon="7.22781">
        <ele>548.871</ele>
        <time>2009-05-07T11:41:46Z</time>
      </trkpt>
      <trkpt lat="43.86434" lon="7.22782">
        <ele>551.121</ele>
        <time>2009-05-07T11:41:52Z</time>
      </trkpt>
      <trkpt lat="43.86419" lon="7.22785">
        <ele>553.116</ele>
        <time>2009-05-07T11:41:59Z</time>
      </trkpt>
      <trkpt lat="43.86407" lon="7.22788">
        <ele>553.021</ele>
        <time>2009-05-07T11:42:05Z</time>
      </trkpt>
      <trkpt lat="43.86389" lon="7.22791">
        <ele>552.71</ele>
        <time>2009-05-07T11:42:11Z</time>
      </trkpt>
      <trkpt lat="43.8637" lon="7.22799">
        <ele>551.863</ele>
        <time>2009-05-07T11:42:17Z</time>
      </trkpt>
      <trkpt lat="43.86355" lon="7.22803">
        <ele>550.401</ele>
        <time>2009-05-07T11:42:21Z</time>
      </trkpt>
      <trkpt lat="43.86353" lon="7.22804">
        <ele>550.572</ele>
        <time>2009-05-07T11:42:27Z</time>
      </trkpt>
      <trkpt lat="43.86344" lon="7.22816">
        <ele>551.693</ele>
        <time>2009-05-07T11:43:10Z</time>
      </trkpt>
      <trkpt lat="43.86334" lon="7.22824">
        <ele>551.722</ele>
        <time>2009-05-07T11:43:17Z</time>
      </trkpt>
      <trkpt lat="43.86324" lon="7.22833">
        <ele>550.154</ele>
        <time>2009-05-07T11:43:22Z</time>
      </trkpt>
      <trkpt lat="43.86324" lon="7.22834">
        <ele>550.466</ele>
        <time>2009-05-07T11:43:39Z</time>
      </trkpt>
      <trkpt lat="43.86317" lon="7.22841">
        <ele>549.271</ele>
        <time>2009-05-07T11:44:03Z</time>
      </trkpt>
      <trkpt lat="43.86312" lon="7.22843">
        <ele>547.741</ele>
        <time>2009-05-07T11:44:10Z</time>
      </trkpt>
      <trkpt lat="43.86302" lon="7.22841">
        <ele>548.259</ele>
        <time>2009-05-07T11:44:16Z</time>
      </trkpt>
      <trkpt lat="43.86299" lon="7.22843">
        <ele>547.473</ele>
        <time>2009-05-07T11:44:17Z</time>
      </trkpt>
      <trkpt lat="43.86282" lon="7.22857">
        <ele>543.269</ele>
        <time>2009-05-07T11:44:23Z</time>
      </trkpt>
      <trkpt lat="43.86271" lon="7.22861">
        <ele>543.046</ele>
        <time>2009-05-07T11:44:26Z</time>
      </trkpt>
      <trkpt lat="43.8625" lon="7.22874">
        <ele>538.272</ele>
        <time>2009-05-07T11:44:31Z</time>
      </trkpt>
      <trkpt lat="43.86236" lon="7.22887">
        <ele>534.506</ele>
        <time>2009-05-07T11:44:34Z</time>
      </trkpt>
      <trkpt lat="43.86215" lon="7.22902">
        <ele>528.219</ele>
        <time>2009-05-07T11:44:39Z</time>
      </trkpt>
      <trkpt lat="43.86202" lon="7.22904">
        <ele>527.322</ele>
        <time>2009-05-07T11:44:42Z</time>
      </trkpt>
      <trkpt lat="43.86172" lon="7.22911">
        <ele>522.041</ele>
        <time>2009-05-07T11:44:51Z</time>
      </trkpt>
      <trkpt lat="43.86147" lon="7.22909">
        <ele>521.324</ele>
        <time>2009-05-07T11:45:00Z</time>
      </trkpt>
      <trkpt lat="43.86125" lon="7.22907">
        <ele>519.549</ele>
        <time>2009-05-07T11:45:08Z</time>
      </trkpt>
      <trkpt lat="43.86102" lon="7.22909">
        <ele>519.915</ele>
        <time>2009-05-07T11:45:15Z</time>
      </trkpt>
      <trkpt lat="43.86079" lon="7.22906">
        <ele>521.889</ele>
        <time>2009-05-07T11:45:23Z</time>
      </trkpt>
      <trkpt lat="43.86056" lon="7.22906">
        <ele>522.45</ele>
        <time>2009-05-07T11:45:31Z</time>
      </trkpt>
      <trkpt lat="43.86027" lon="7.22905">
        <ele>521.533</ele>
        <time>2009-05-07T11:45:40Z</time>
      </trkpt>
      <trkpt lat="43.86015" lon="7.22907">
        <ele>521.406</ele>
        <time>2009-05-07T11:45:46Z</time>
      </trkpt>
      <trkpt lat="43.8601" lon="7.22908">
        <ele>522.285</ele>
        <time>2009-05-07T11:45:51Z</time>
      </trkpt>
      <trkpt lat="43.86006" lon="7.2291">
        <ele>521.079</ele>
        <time>2009-05-07T11:46:00Z</time>
      </trkpt>
      <trkpt lat="43.86008" lon="7.22911">
        <ele>520.518</ele>
        <time>2009-05-07T11:46:13Z</time>
      </trkpt>
      <trkpt lat="43.86013" lon="7.22908">
        <ele>519.925</ele>
        <time>2009-05-07T11:46:17Z</time>
      </trkpt>
      <trkpt lat="43.86012" lon="7.22899">
        <ele>519.328</ele>
        <time>2009-05-07T11:46:23Z</time>
      </trkpt>
      <trkpt lat="43.8601" lon="7.229">
        <ele>519.07</ele>
        <time>2009-05-07T11:46:25Z</time>
      </trkpt>
      <trkpt lat="43.86012" lon="7.2291">
        <ele>518.926</ele>
        <time>2009-05-07T11:46:29Z</time>
      </trkpt>
      <trkpt lat="43.8601" lon="7.22927">
        <ele>518.703</ele>
        <time>2009-05-07T11:46:36Z</time>
      </trkpt>
      <trkpt lat="43.86011" lon="7.2293">
        <ele>519.452</ele>
        <time>2009-05-07T11:46:44Z</time>
      </trkpt>
      <trkpt lat="43.86011" lon="7.2293">
        <ele>519.584</ele>
        <time>2009-05-07T11:46:54Z</time>
      </trkpt>
      <trkpt lat="43.86014" lon="7.22914">
        <ele>520.008</ele>
        <time>2009-05-07T11:47:01Z</time>
      </trkpt>
      <trkpt lat="43.86015" lon="7.22905">
        <ele>521.146</ele>
        <time>2009-05-07T11:47:06Z</time>
      </trkpt>
      <trkpt lat="43.86013" lon="7.22899">
        <ele>523.4</ele>
        <time>2009-05-07T11:47:10Z</time>
      </trkpt>
      <trkpt lat="43.86016" lon="7.22887">
        <ele>522.878</ele>
        <time>2009-05-07T11:47:18Z</time>
      </trkpt>
      <trkpt lat="43.8602" lon="7.22869">
        <ele>524.162</ele>
        <time>2009-05-07T11:47:27Z</time>
      </trkpt>
      <trkpt lat="43.86021" lon="7.22855">
        <ele>529.447</ele>
        <time>2009-05-07T11:47:34Z</time>
      </trkpt>
      <trkpt lat="43.86017" lon="7.22836">
        <ele>533.342</ele>
        <time>2009-05-07T11:47:44Z</time>
      </trkpt>
      <trkpt lat="43.86012" lon="7.22821">
        <ele>532.774</ele>
        <time>2009-05-07T11:47:53Z</time>
      </trkpt>
      <trkpt lat="43.86007" lon="7.22805">
        <ele>532.206</ele>
        <time>2009-05-07T11:48:01Z</time>
      </trkpt>
      <trkpt lat="43.86002" lon="7.22794">
        <ele>530.638</ele>
        <time>2009-05-07T11:48:08Z</time>
      </trkpt>
      <trkpt lat="43.86001" lon="7.22787">
        <ele>530.674</ele>
        <time>2009-05-07T11:48:12Z</time>
      </trkpt>
      <trkpt lat="43.86002" lon="7.22783">
        <ele>531.44</ele>
        <time>2009-05-07T11:48:20Z</time>
      </trkpt>
      <trkpt lat="43.86002" lon="7.22783">
        <ele>531.104</ele>
        <time>2009-05-07T11:48:22Z</time>
      </trkpt>
      <trkpt lat="43.86007" lon="7.22794">
        <ele>529.581</ele>
        <time>2009-05-07T11:48:26Z</time>
      </trkpt>
      <trkpt lat="43.86013" lon="7.22835">
        <ele>526.82</ele>
        <time>2009-05-07T11:48:32Z</time>
      </trkpt>
      <trkpt lat="43.86013" lon="7.2284">
        <ele>526.415</ele>
        <time>2009-05-07T11:48:36Z</time>
      </trkpt>
      <trkpt lat="43.86015" lon="7.22852">
        <ele>526.431</ele>
        <time>2009-05-07T11:48:57Z</time>
      </trkpt>
      <trkpt lat="43.86017" lon="7.22861">
        <ele>526.629</ele>
        <time>2009-05-07T11:48:59Z</time>
      </trkpt>
      <trkpt lat="43.86014" lon="7.22886">
        <ele>525.545</ele>
        <time>2009-05-07T11:49:03Z</time>
      </trkpt>
      <trkpt lat="43.86006" lon="7.22912">
        <ele>523.656</ele>
        <time>2009-05-07T11:49:09Z</time>
      </trkpt>
      <trkpt lat="43.85992" lon="7.22923">
        <ele>524.096</ele>
        <time>2009-05-07T11:49:16Z</time>
      </trkpt>
      <trkpt lat="43.85992" lon="7.22924">
        <ele>525.035</ele>
        <time>2009-05-07T11:49:21Z</time>
      </trkpt>
      <trkpt lat="43.85989" lon="7.22922">
        <ele>531.668</ele>
        <time>2009-05-07T12:07:47Z</time>
      </trkpt>
      <trkpt lat="43.85986" lon="7.22927">
        <ele>528.017</ele>
        <time>2009-05-07T12:07:53Z</time>
      </trkpt>
      <trkpt lat="43.85982" lon="7.22929">
        <ele>527.654</ele>
        <time>2009-05-07T12:08:08Z</time>
      </trkpt>
      <trkpt lat="43.85977" lon="7.22938">
        <ele>527.296</ele>
        <time>2009-05-07T12:08:15Z</time>
      </trkpt>
      <trkpt lat="43.85973" lon="7.22944">
        <ele>527.5</ele>
        <time>2009-05-07T12:08:22Z</time>
      </trkpt>
      <trkpt lat="43.85968" lon="7.22953">
        <ele>527.633</ele>
        <time>2009-05-07T12:08:29Z</time>
      </trkpt>
      <trkpt lat="43.85965" lon="7.22956">
        <ele>527.427</ele>
        <time>2009-05-07T12:08:32Z</time>
      </trkpt>
      <trkpt lat="43.85954" lon="7.22966">
        <ele>527.484</ele>
        <time>2009-05-07T12:08:39Z</time>
      </trkpt>
      <trkpt lat="43.85938" lon="7.22989">
        <ele>521.968</ele>
        <time>2009-05-07T12:08:45Z</time>
      </trkpt>
      <trkpt lat="43.85935" lon="7.22993">
        <ele>521.453</ele>
        <time>2009-05-07T12:08:46Z</time>
      </trkpt>
      <trkpt lat="43.8592" lon="7.23011">
        <ele>517.404</ele>
        <time>2009-05-07T12:08:51Z</time>
      </trkpt>
      <trkpt lat="43.85895" lon="7.2303">
        <ele>516.064</ele>
        <time>2009-05-07T12:08:57Z</time>
      </trkpt>
      <trkpt lat="43.85887" lon="7.23026">
        <ele>516.106</ele>
        <time>2009-05-07T12:09:02Z</time>
      </trkpt>
      <trkpt lat="43.85895" lon="7.23019">
        <ele>517.422</ele>
        <time>2009-05-07T12:09:08Z</time>
      </trkpt>
      <trkpt lat="43.85895" lon="7.23013">
        <ele>516.812</ele>
        <time>2009-05-07T12:09:15Z</time>
      </trkpt>
      <trkpt lat="43.85896" lon="7.23006">
        <ele>514.203</ele>
        <time>2009-05-07T12:10:04Z</time>
      </trkpt>
      <trkpt lat="43.85897" lon="7.23013">
        <ele>514.552</ele>
        <time>2009-05-07T12:10:10Z</time>
      </trkpt>
      <trkpt lat="43.85899" lon="7.23015">
        <ele>514.56</ele>
        <time>2009-05-07T12:10:11Z</time>
      </trkpt>
      <trkpt lat="43.85888" lon="7.23028">
        <ele>514.594</ele>
        <time>2009-05-07T12:10:16Z</time>
      </trkpt>
      <trkpt lat="43.85869" lon="7.23037">
        <ele>515.168</ele>
        <time>2009-05-07T12:10:22Z</time>
      </trkpt>
      <trkpt lat="43.85851" lon="7.23035">
        <ele>514.613</ele>
        <time>2009-05-07T12:10:31Z</time>
      </trkpt>
      <trkpt lat="43.8583" lon="7.23038">
        <ele>517.577</ele>
        <time>2009-05-07T12:10:37Z</time>
      </trkpt>
      <trkpt lat="43.85802" lon="7.23036">
        <ele>518.416</ele>
        <time>2009-05-07T12:10:46Z</time>
      </trkpt>
      <trkpt lat="43.85784" lon="7.23032">
        <ele>522.211</ele>
        <time>2009-05-07T12:10:53Z</time>
      </trkpt>
      <trkpt lat="43.85758" lon="7.23037">
        <ele>522.447</ele>
        <time>2009-05-07T12:11:02Z</time>
      </trkpt>
      <trkpt lat="43.8574" lon="7.23046">
        <ele>523.965</ele>
        <time>2009-05-07T12:11:09Z</time>
      </trkpt>
      <trkpt lat="43.85717" lon="7.23062">
        <ele>523.513</ele>
        <time>2009-05-07T12:11:17Z</time>
      </trkpt>
      <trkpt lat="43.857" lon="7.2308">
        <ele>521.775</ele>
        <time>2009-05-07T12:11:24Z</time>
      </trkpt>
      <trkpt lat="43.8568" lon="7.23104">
        <ele>515.966</ele>
        <time>2009-05-07T12:11:32Z</time>
      </trkpt>
      <trkpt lat="43.85654" lon="7.23117">
        <ele>517.316</ele>
        <time>2009-05-07T12:11:40Z</time>
      </trkpt>
      <trkpt lat="43.85631" lon="7.2312">
        <ele>518.921</ele>
        <time>2009-05-07T12:11:47Z</time>
      </trkpt>
      <trkpt lat="43.85609" lon="7.23124">
        <ele>519.315</ele>
        <time>2009-05-07T12:11:55Z</time>
      </trkpt>
      <trkpt lat="43.85587" lon="7.23139">
        <ele>519.363</ele>
        <time>2009-05-07T12:12:03Z</time>
      </trkpt>
      <trkpt lat="43.85567" lon="7.23153">
        <ele>517.857</ele>
        <time>2009-05-07T12:12:11Z</time>
      </trkpt>
      <trkpt lat="43.85546" lon="7.23168">
        <ele>515.838</ele>
        <time>2009-05-07T12:12:19Z</time>
      </trkpt>
      <trkpt lat="43.85526" lon="7.23184">
        <ele>515.42</ele>
        <time>2009-05-07T12:12:26Z</time>
      </trkpt>
      <trkpt lat="43.85504" lon="7.23198">
        <ele>516.766</ele>
        <time>2009-05-07T12:12:34Z</time>
      </trkpt>
      <trkpt lat="43.85479" lon="7.23216">
        <ele>519.29</ele>
        <time>2009-05-07T12:12:41Z</time>
      </trkpt>
      <trkpt lat="43.85461" lon="7.23226">
        <ele>520.219</ele>
        <time>2009-05-07T12:12:47Z</time>
      </trkpt>
      <trkpt lat="43.85445" lon="7.23237">
        <ele>521.231</ele>
        <time>2009-05-07T12:12:53Z</time>
      </trkpt>
      <trkpt lat="43.85421" lon="7.23256">
        <ele>520.749</ele>
        <time>2009-05-07T12:13:01Z</time>
      </trkpt>
      <trkpt lat="43.85398" lon="7.23271">
        <ele>518.533</ele>
        <time>2009-05-07T12:13:09Z</time>
      </trkpt>
      <trkpt lat="43.85377" lon="7.23292">
        <ele>518.03</ele>
        <time>2009-05-07T12:13:16Z</time>
      </trkpt>
      <trkpt lat="43.8536" lon="7.23319">
        <ele>520.718</ele>
        <time>2009-05-07T12:13:24Z</time>
      </trkpt>
      <trkpt lat="43.85338" lon="7.23354">
        <ele>521.894</ele>
        <time>2009-05-07T12:13:34Z</time>
      </trkpt>
      <trkpt lat="43.85318" lon="7.23383">
        <ele>523.247</ele>
        <time>2009-05-07T12:13:43Z</time>
      </trkpt>
      <trkpt lat="43.85307" lon="7.234">
        <ele>526.314</ele>
        <time>2009-05-07T12:13:49Z</time>
      </trkpt>
      <trkpt lat="43.85296" lon="7.23416">
        <ele>529.411</ele>
        <time>2009-05-07T12:13:54Z</time>
      </trkpt>
      <trkpt lat="43.85269" lon="7.23436">
        <ele>524.683</ele>
        <time>2009-05-07T12:14:01Z</time>
      </trkpt>
      <trkpt lat="43.85248" lon="7.23448">
        <ele>525.279</ele>
        <time>2009-05-07T12:14:08Z</time>
      </trkpt>
      <trkpt lat="43.85236" lon="7.2346">
        <ele>527.324</ele>
        <time>2009-05-07T12:14:14Z</time>
      </trkpt>
      <trkpt lat="43.85225" lon="7.23476">
        <ele>528.685</ele>
        <time>2009-05-07T12:14:21Z</time>
      </trkpt>
      <trkpt lat="43.85215" lon="7.23493">
        <ele>531.495</ele>
        <time>2009-05-07T12:14:28Z</time>
      </trkpt>
      <trkpt lat="43.85206" lon="7.23509">
        <ele>534.998</ele>
        <time>2009-05-07T12:14:35Z</time>
      </trkpt>
      <trkpt lat="43.85194" lon="7.23528">
        <ele>537.267</ele>
        <time>2009-05-07T12:14:43Z</time>
      </trkpt>
      <trkpt lat="43.85184" lon="7.23544">
        <ele>540.874</ele>
        <time>2009-05-07T12:14:50Z</time>
      </trkpt>
      <trkpt lat="43.85176" lon="7.23557">
        <ele>544.571</ele>
        <time>2009-05-07T12:14:56Z</time>
      </trkpt>
      <trkpt lat="43.85166" lon="7.23572">
        <ele>544.185</ele>
        <time>2009-05-07T12:15:02Z</time>
      </trkpt>
      <trkpt lat="43.85152" lon="7.23584">
        <ele>545.979</ele>
        <time>2009-05-07T12:15:10Z</time>
      </trkpt>
      <trkpt lat="43.85139" lon="7.23596">
        <ele>539.421</ele>
        <time>2009-05-07T12:15:16Z</time>
      </trkpt>
      <trkpt lat="43.85124" lon="7.23605">
        <ele>537.629</ele>
        <time>2009-05-07T12:15:23Z</time>
      </trkpt>
      <trkpt lat="43.85107" lon="7.23611">
        <ele>538.192</ele>
        <time>2009-05-07T12:15:31Z</time>
      </trkpt>
      <trkpt lat="43.8509" lon="7.2362">
        <ele>541.623</ele>
        <time>2009-05-07T12:15:39Z</time>
      </trkpt>
      <trkpt lat="43.85073" lon="7.23631">
        <ele>542.312</ele>
        <time>2009-05-07T12:15:48Z</time>
      </trkpt>
      <trkpt lat="43.85061" lon="7.2364">
        <ele>542.343</ele>
        <time>2009-05-07T12:15:55Z</time>
      </trkpt>
      <trkpt lat="43.8505" lon="7.23649">
        <ele>540.625</ele>
        <time>2009-05-07T12:16:01Z</time>
      </trkpt>
      <trkpt lat="43.85039" lon="7.23656">
        <ele>538.832</ele>
        <time>2009-05-07T12:16:07Z</time>
      </trkpt>
      <trkpt lat="43.85029" lon="7.23664">
        <ele>538.355</ele>
        <time>2009-05-07T12:16:13Z</time>
      </trkpt>
      <trkpt lat="43.85011" lon="7.23678">
        <ele>540.165</ele>
        <time>2009-05-07T12:16:22Z</time>
      </trkpt>
      <trkpt lat="43.85004" lon="7.23687">
        <ele>542.588</ele>
        <time>2009-05-07T12:16:27Z</time>
      </trkpt>
      <trkpt lat="43.85005" lon="7.23692">
        <ele>544.08</ele>
        <time>2009-05-07T12:16:31Z</time>
      </trkpt>
      <trkpt lat="43.85023" lon="7.23678">
        <ele>542.708</ele>
        <time>2009-05-07T12:16:37Z</time>
      </trkpt>
      <trkpt lat="43.85054" lon="7.23653">
        <ele>540.044</ele>
        <time>2009-05-07T12:16:43Z</time>
      </trkpt>
      <trkpt lat="43.85067" lon="7.23643">
        <ele>539.747</ele>
        <time>2009-05-07T12:16:45Z</time>
      </trkpt>
      <trkpt lat="43.85073" lon="7.23614">
        <ele>539.925</ele>
        <time>2009-05-07T12:16:49Z</time>
      </trkpt>
      <trkpt lat="43.85072" lon="7.23606">
        <ele>540.426</ele>
        <time>2009-05-07T12:16:50Z</time>
      </trkpt>
      <trkpt lat="43.85061" lon="7.23563">
        <ele>541.049</ele>
        <time>2009-05-07T12:16:59Z</time>
      </trkpt>
      <trkpt lat="43.85055" lon="7.2353">
        <ele>543.488</ele>
        <time>2009-05-07T12:17:07Z</time>
      </trkpt>
      <trkpt lat="43.85043" lon="7.23511">
        <ele>545.239</ele>
        <time>2009-05-07T12:17:15Z</time>
      </trkpt>
      <trkpt lat="43.8503" lon="7.23494">
        <ele>548.19</ele>
        <time>2009-05-07T12:17:23Z</time>
      </trkpt>
      <trkpt lat="43.85016" lon="7.23482">
        <ele>546.623</ele>
        <time>2009-05-07T12:17:30Z</time>
      </trkpt>
      <trkpt lat="43.84991" lon="7.23468">
        <ele>549.153</ele>
        <time>2009-05-07T12:17:40Z</time>
      </trkpt>
      <trkpt lat="43.84981" lon="7.2346">
        <ele>550.011</ele>
        <time>2009-05-07T12:17:43Z</time>
      </trkpt>
      <trkpt lat="43.84966" lon="7.23427">
        <ele>549.701</ele>
        <time>2009-05-07T12:17:50Z</time>
      </trkpt>
      <trkpt lat="43.8496" lon="7.23416">
        <ele>549.882</ele>
        <time>2009-05-07T12:17:52Z</time>
      </trkpt>
      <trkpt lat="43.84947" lon="7.23401">
        <ele>549.168</ele>
        <time>2009-05-07T12:17:56Z</time>
      </trkpt>
      <trkpt lat="43.84925" lon="7.23382">
        <ele>547.372</ele>
        <time>2009-05-07T12:18:02Z</time>
      </trkpt>
      <trkpt lat="43.84902" lon="7.23381">
        <ele>547.159</ele>
        <time>2009-05-07T12:18:08Z</time>
      </trkpt>
      <trkpt lat="43.84899" lon="7.23384">
        <ele>546.64</ele>
        <time>2009-05-07T12:18:09Z</time>
      </trkpt>
      <trkpt lat="43.84875" lon="7.2341">
        <ele>545.68</ele>
        <time>2009-05-07T12:18:18Z</time>
      </trkpt>
      <trkpt lat="43.84859" lon="7.23425">
        <ele>545.06</ele>
        <time>2009-05-07T12:18:24Z</time>
      </trkpt>
      <trkpt lat="43.84837" lon="7.23441">
        <ele>544.337</ele>
        <time>2009-05-07T12:18:31Z</time>
      </trkpt>
      <trkpt lat="43.84815" lon="7.23457">
        <ele>543.955</ele>
        <time>2009-05-07T12:18:38Z</time>
      </trkpt>
      <trkpt lat="43.84789" lon="7.23478">
        <ele>544.741</ele>
        <time>2009-05-07T12:18:46Z</time>
      </trkpt>
      <trkpt lat="43.84764" lon="7.23497">
        <ele>544.439</ele>
        <time>2009-05-07T12:18:54Z</time>
      </trkpt>
      <trkpt lat="43.84748" lon="7.23507">
        <ele>545.968</ele>
        <time>2009-05-07T12:18:59Z</time>
      </trkpt>
      <trkpt lat="43.84727" lon="7.23527">
        <ele>545.594</ele>
        <time>2009-05-07T12:19:06Z</time>
      </trkpt>
      <trkpt lat="43.84711" lon="7.23543">
        <ele>544.456</ele>
        <time>2009-05-07T12:19:11Z</time>
      </trkpt>
      <trkpt lat="43.84685" lon="7.23575">
        <ele>544.753</ele>
        <time>2009-05-07T12:19:20Z</time>
      </trkpt>
      <trkpt lat="43.84664" lon="7.23601">
        <ele>545.125</ele>
        <time>2009-05-07T12:19:28Z</time>
      </trkpt>
      <trkpt lat="43.84646" lon="7.23623">
        <ele>545.422</ele>
        <time>2009-05-07T12:19:35Z</time>
      </trkpt>
      <trkpt lat="43.84624" lon="7.23655">
        <ele>544.912</ele>
        <time>2009-05-07T12:19:44Z</time>
      </trkpt>
      <trkpt lat="43.84618" lon="7.23664">
        <ele>544.089</ele>
        <time>2009-05-07T12:19:46Z</time>
      </trkpt>
      <trkpt lat="43.84589" lon="7.23706">
        <ele>542.813</ele>
        <time>2009-05-07T12:19:56Z</time>
      </trkpt>
      <trkpt lat="43.84556" lon="7.23752">
        <ele>541.784</ele>
        <time>2009-05-07T12:20:07Z</time>
      </trkpt>
      <trkpt lat="43.84543" lon="7.23767">
        <ele>540.925</ele>
        <time>2009-05-07T12:20:11Z</time>
      </trkpt>
      <trkpt lat="43.84513" lon="7.23805">
        <ele>541.305</ele>
        <time>2009-05-07T12:20:21Z</time>
      </trkpt>
      <trkpt lat="43.84507" lon="7.23813">
        <ele>540.94</ele>
        <time>2009-05-07T12:20:23Z</time>
      </trkpt>
      <trkpt lat="43.84479" lon="7.23847">
        <ele>542.854</ele>
        <time>2009-05-07T12:20:32Z</time>
      </trkpt>
      <trkpt lat="43.84456" lon="7.23875">
        <ele>543.63</ele>
        <time>2009-05-07T12:20:40Z</time>
      </trkpt>
      <trkpt lat="43.84438" lon="7.23904">
        <ele>545.014</ele>
        <time>2009-05-07T12:20:48Z</time>
      </trkpt>
      <trkpt lat="43.84427" lon="7.23922">
        <ele>544.333</ele>
        <time>2009-05-07T12:20:54Z</time>
      </trkpt>
      <trkpt lat="43.84419" lon="7.23944">
        <ele>546.669</ele>
        <time>2009-05-07T12:21:02Z</time>
      </trkpt>
      <trkpt lat="43.84415" lon="7.23969">
        <ele>546.139</ele>
        <time>2009-05-07T12:21:08Z</time>
      </trkpt>
      <trkpt lat="43.84416" lon="7.2399">
        <ele>542.881</ele>
        <time>2009-05-07T12:21:13Z</time>
      </trkpt>
      <trkpt lat="43.84416" lon="7.24016">
        <ele>542.419</ele>
        <time>2009-05-07T12:21:19Z</time>
      </trkpt>
      <trkpt lat="43.84418" lon="7.24022">
        <ele>541.159</ele>
        <time>2009-05-07T12:21:21Z</time>
      </trkpt>
      <trkpt lat="43.84419" lon="7.24017">
        <ele>541.547</ele>
        <time>2009-05-07T12:21:25Z</time>
      </trkpt>
      <trkpt lat="43.84413" lon="7.23993">
        <ele>542.069</ele>
        <time>2009-05-07T12:21:34Z</time>
      </trkpt>
      <trkpt lat="43.84413" lon="7.23972">
        <ele>544.344</ele>
        <time>2009-05-07T12:21:42Z</time>
      </trkpt>
      <trkpt lat="43.84415" lon="7.2395">
        <ele>547.284</ele>
        <time>2009-05-07T12:21:50Z</time>
      </trkpt>
      <trkpt lat="43.84426" lon="7.23927">
        <ele>546.906</ele>
        <time>2009-05-07T12:21:59Z</time>
      </trkpt>
      <trkpt lat="43.84433" lon="7.23907">
        <ele>546.753</ele>
        <time>2009-05-07T12:22:06Z</time>
      </trkpt>
      <trkpt lat="43.8443" lon="7.23897">
        <ele>547.187</ele>
        <time>2009-05-07T12:22:36Z</time>
      </trkpt>
      <trkpt lat="43.84425" lon="7.23893">
        <ele>547.946</ele>
        <time>2009-05-07T12:22:45Z</time>
      </trkpt>
      <trkpt lat="43.8442" lon="7.23891">
        <ele>548.704</ele>
        <time>2009-05-07T12:22:48Z</time>
      </trkpt>
      <trkpt lat="43.84416" lon="7.23886">
        <ele>549.511</ele>
        <time>2009-05-07T12:22:53Z</time>
      </trkpt>
      <trkpt lat="43.84413" lon="7.2388">
        <ele>550.892</ele>
        <time>2009-05-07T12:23:00Z</time>
      </trkpt>
      <trkpt lat="43.8441" lon="7.23872">
        <ele>551.484</ele>
        <time>2009-05-07T12:23:08Z</time>
      </trkpt>
      <trkpt lat="43.8441" lon="7.23866">
        <ele>552.428</ele>
        <time>2009-05-07T12:23:16Z</time>
      </trkpt>
      <trkpt lat="43.8441" lon="7.23861">
        <ele>554.254</ele>
        <time>2009-05-07T12:23:24Z</time>
      </trkpt>
      <trkpt lat="43.84407" lon="7.23861">
        <ele>555.713</ele>
        <time>2009-05-07T12:23:32Z</time>
      </trkpt>
      <trkpt lat="43.84404" lon="7.23859">
        <ele>556.625</ele>
        <time>2009-05-07T12:23:59Z</time>
      </trkpt>
      <trkpt lat="43.84398" lon="7.23858">
        <ele>557.982</ele>
        <time>2009-05-07T12:24:08Z</time>
      </trkpt>
      <trkpt lat="43.84393" lon="7.23853">
        <ele>560.503</ele>
        <time>2009-05-07T12:24:16Z</time>
      </trkpt>
      <trkpt lat="43.84389" lon="7.23854">
        <ele>561.822</ele>
        <time>2009-05-07T12:24:22Z</time>
      </trkpt>
      <trkpt lat="43.84388" lon="7.23851">
        <ele>562.07</ele>
        <time>2009-05-07T12:24:29Z</time>
      </trkpt>
      <trkpt lat="43.84389" lon="7.23845">
        <ele>561.93</ele>
        <time>2009-05-07T12:24:39Z</time>
      </trkpt>
      <trkpt lat="43.84395" lon="7.23828">
        <ele>561.821</ele>
        <time>2009-05-07T12:24:47Z</time>
      </trkpt>
      <trkpt lat="43.84395" lon="7.23819">
        <ele>561.475</ele>
        <time>2009-05-07T12:24:52Z</time>
      </trkpt>
      <trkpt lat="43.84394" lon="7.23818">
        <ele>561.418</ele>
        <time>2009-05-07T12:24:53Z</time>
      </trkpt>
      <trkpt lat="43.84392" lon="7.23811">
        <ele>560.636</ele>
        <time>2009-05-07T12:24:57Z</time>
      </trkpt>
      <trkpt lat="43.84389" lon="7.23805">
        <ele>560.895</ele>
        <time>2009-05-07T12:25:01Z</time>
      </trkpt>
      <trkpt lat="43.84388" lon="7.23801">
        <ele>560.957</ele>
        <time>2009-05-07T12:25:03Z</time>
      </trkpt>
      <trkpt lat="43.84382" lon="7.23789">
        <ele>561.147</ele>
        <time>2009-05-07T12:25:11Z</time>
      </trkpt>
      <trkpt lat="43.8438" lon="7.23788">
        <ele>562.062</ele>
        <time>2009-05-07T12:25:13Z</time>
      </trkpt>
      <trkpt lat="43.8437" lon="7.23789">
        <ele>564.832</ele>
        <time>2009-05-07T12:25:21Z</time>
      </trkpt>
      <trkpt lat="43.84364" lon="7.23788">
        <ele>567.588</ele>
        <time>2009-05-07T12:25:27Z</time>
      </trkpt>
      <trkpt lat="43.84353" lon="7.2379">
        <ele>570.139</ele>
        <time>2009-05-07T12:25:35Z</time>
      </trkpt>
      <trkpt lat="43.84349" lon="7.23788">
        <ele>570.562</ele>
        <time>2009-05-07T12:25:39Z</time>
      </trkpt>
      <trkpt lat="43.84343" lon="7.23787">
        <ele>572.862</ele>
        <time>2009-05-07T12:25:45Z</time>
      </trkpt>
      <trkpt lat="43.84333" lon="7.23786">
        <ele>574.689</ele>
        <time>2009-05-07T12:25:52Z</time>
      </trkpt>
      <trkpt lat="43.8433" lon="7.23786">
        <ele>574.665</ele>
        <time>2009-05-07T12:25:54Z</time>
      </trkpt>
      <trkpt lat="43.84318" lon="7.23781">
        <ele>574.172</ele>
        <time>2009-05-07T12:26:03Z</time>
      </trkpt>
      <trkpt lat="43.84307" lon="7.23773">
        <ele>574.752</ele>
        <time>2009-05-07T12:26:11Z</time>
      </trkpt>
      <trkpt lat="43.84304" lon="7.23773">
        <ele>574.211</ele>
        <time>2009-05-07T12:26:13Z</time>
      </trkpt>
      <trkpt lat="43.84301" lon="7.23779">
        <ele>574.775</ele>
        <time>2009-05-07T12:26:16Z</time>
      </trkpt>
      <trkpt lat="43.84289" lon="7.23775">
        <ele>574.836</ele>
        <time>2009-05-07T12:26:22Z</time>
      </trkpt>
      <trkpt lat="43.84279" lon="7.23767">
        <ele>575.04</ele>
        <time>2009-05-07T12:26:26Z</time>
      </trkpt>
      <trkpt lat="43.84256" lon="7.2375">
        <ele>574.42</ele>
        <time>2009-05-07T12:26:33Z</time>
      </trkpt>
      <trkpt lat="43.84233" lon="7.2373">
        <ele>573.2</ele>
        <time>2009-05-07T12:26:40Z</time>
      </trkpt>
      <trkpt lat="43.8422" lon="7.23713">
        <ele>570.847</ele>
        <time>2009-05-07T12:26:44Z</time>
      </trkpt>
      <trkpt lat="43.84191" lon="7.23687">
        <ele>563.317</ele>
        <time>2009-05-07T12:26:51Z</time>
      </trkpt>
      <trkpt lat="43.84185" lon="7.23682">
        <ele>561.743</ele>
        <time>2009-05-07T12:26:52Z</time>
      </trkpt>
      <trkpt lat="43.84146" lon="7.23659">
        <ele>558.359</ele>
        <time>2009-05-07T12:26:58Z</time>
      </trkpt>
      <trkpt lat="43.84136" lon="7.23656">
        <ele>558.422</ele>
        <time>2009-05-07T12:27:03Z</time>
      </trkpt>
      <trkpt lat="43.84127" lon="7.23656">
        <ele>557.313</ele>
        <time>2009-05-07T12:27:09Z</time>
      </trkpt>
      <trkpt lat="43.8411" lon="7.2365">
        <ele>559.452</ele>
        <time>2009-05-07T12:27:19Z</time>
      </trkpt>
      <trkpt lat="43.84106" lon="7.23649">
        <ele>559.18</ele>
        <time>2009-05-07T12:27:22Z</time>
      </trkpt>
      <trkpt lat="43.84099" lon="7.23662">
        <ele>560.208</ele>
        <time>2009-05-07T12:27:31Z</time>
      </trkpt>
      <trkpt lat="43.84097" lon="7.23679">
        <ele>562.372</ele>
        <time>2009-05-07T12:27:38Z</time>
      </trkpt>
      <trkpt lat="43.84097" lon="7.23699">
        <ele>564.764</ele>
        <time>2009-05-07T12:27:47Z</time>
      </trkpt>
      <trkpt lat="43.84095" lon="7.23716">
        <ele>567.881</ele>
        <time>2009-05-07T12:27:54Z</time>
      </trkpt>
      <trkpt lat="43.84088" lon="7.23725">
        <ele>571.879</ele>
        <time>2009-05-07T12:28:00Z</time>
      </trkpt>
      <trkpt lat="43.84082" lon="7.23737">
        <ele>574.242</ele>
        <time>2009-05-07T12:28:07Z</time>
      </trkpt>
      <trkpt lat="43.84077" lon="7.23744">
        <ele>575.323</ele>
        <time>2009-05-07T12:28:14Z</time>
      </trkpt>
      <trkpt lat="43.84052" lon="7.23756">
        <ele>578.96</ele>
        <time>2009-05-07T12:29:55Z</time>
      </trkpt>
      <trkpt lat="43.84046" lon="7.23753">
        <ele>581.573</ele>
        <time>2009-05-07T12:30:04Z</time>
      </trkpt>
      <trkpt lat="43.84044" lon="7.23752">
        <ele>582.932</ele>
        <time>2009-05-07T12:30:11Z</time>
      </trkpt>
      <trkpt lat="43.84044" lon="7.23751">
        <ele>583.531</ele>
        <time>2009-05-07T12:30:15Z</time>
      </trkpt>
      <trkpt lat="43.84043" lon="7.23747">
        <ele>584.587</ele>
        <time>2009-05-07T12:30:18Z</time>
      </trkpt>
      <trkpt lat="43.8404" lon="7.23738">
        <ele>584.41</ele>
        <time>2009-05-07T12:30:25Z</time>
      </trkpt>
      <trkpt lat="43.84041" lon="7.23735">
        <ele>584.935</ele>
        <time>2009-05-07T12:30:26Z</time>
      </trkpt>
      <trkpt lat="43.84036" lon="7.23725">
        <ele>585.699</ele>
        <time>2009-05-07T12:30:32Z</time>
      </trkpt>
      <trkpt lat="43.84027" lon="7.23723">
        <ele>587.291</ele>
        <time>2009-05-07T12:30:38Z</time>
      </trkpt>
      <trkpt lat="43.84016" lon="7.23722">
        <ele>589.128</ele>
        <time>2009-05-07T12:30:46Z</time>
      </trkpt>
      <trkpt lat="43.8401" lon="7.23724">
        <ele>589.611</ele>
        <time>2009-05-07T12:30:52Z</time>
      </trkpt>
      <trkpt lat="43.84009" lon="7.23724">
        <ele>589.554</ele>
        <time>2009-05-07T12:30:53Z</time>
      </trkpt>
      <trkpt lat="43.84006" lon="7.23725">
        <ele>589.464</ele>
        <time>2009-05-07T12:30:55Z</time>
      </trkpt>
      <trkpt lat="43.83995" lon="7.23721">
        <ele>591.154</ele>
        <time>2009-05-07T12:31:03Z</time>
      </trkpt>
      <trkpt lat="43.83994" lon="7.2372">
        <ele>591.228</ele>
        <time>2009-05-07T12:31:04Z</time>
      </trkpt>
      <trkpt lat="43.83982" lon="7.23714">
        <ele>592.139</ele>
        <time>2009-05-07T12:31:14Z</time>
      </trkpt>
      <trkpt lat="43.83981" lon="7.23716">
        <ele>591.404</ele>
        <time>2009-05-07T12:31:25Z</time>
      </trkpt>
      <trkpt lat="43.83979" lon="7.23715">
        <ele>592.435</ele>
        <time>2009-05-07T12:36:13Z</time>
      </trkpt>
      <trkpt lat="43.83967" lon="7.23715">
        <ele>592.15</ele>
        <time>2009-05-07T12:36:21Z</time>
      </trkpt>
      <trkpt lat="43.83962" lon="7.23719">
        <ele>590.951</ele>
        <time>2009-05-07T12:36:23Z</time>
      </trkpt>
      <trkpt lat="43.8394" lon="7.23729">
        <ele>589.15</ele>
        <time>2009-05-07T12:36:28Z</time>
      </trkpt>
      <trkpt lat="43.83936" lon="7.23735">
        <ele>587.989</ele>
        <time>2009-05-07T12:36:29Z</time>
      </trkpt>
      <trkpt lat="43.83912" lon="7.23791">
        <ele>589.255</ele>
        <time>2009-05-07T12:36:37Z</time>
      </trkpt>
      <trkpt lat="43.83912" lon="7.23794">
        <ele>589.88</ele>
        <time>2009-05-07T12:36:38Z</time>
      </trkpt>
      <trkpt lat="43.83911" lon="7.23799">
        <ele>591.227</ele>
        <time>2009-05-07T12:36:45Z</time>
      </trkpt>
      <trkpt lat="43.83915" lon="7.23784">
        <ele>591.816</ele>
        <time>2009-05-07T12:36:52Z</time>
      </trkpt>
      <trkpt lat="43.8392" lon="7.2377">
        <ele>590.392</ele>
        <time>2009-05-07T12:36:58Z</time>
      </trkpt>
      <trkpt lat="43.83928" lon="7.2375">
        <ele>588.305</ele>
        <time>2009-05-07T12:37:06Z</time>
      </trkpt>
      <trkpt lat="43.83933" lon="7.23737">
        <ele>590.125</ele>
        <time>2009-05-07T12:37:13Z</time>
      </trkpt>
      <trkpt lat="43.83931" lon="7.23737">
        <ele>588.512</ele>
        <time>2009-05-07T12:37:22Z</time>
      </trkpt>
      <trkpt lat="43.83931" lon="7.23738">
        <ele>588.106</ele>
        <time>2009-05-07T12:39:59Z</time>
      </trkpt>
      <trkpt lat="43.83916" lon="7.23738">
        <ele>585.99</ele>
        <time>2009-05-07T12:40:04Z</time>
      </trkpt>
      <trkpt lat="43.83906" lon="7.23723">
        <ele>583.656</ele>
        <time>2009-05-07T12:40:10Z</time>
      </trkpt>
      <trkpt lat="43.83906" lon="7.2372">
        <ele>582.876</ele>
        <time>2009-05-07T12:40:15Z</time>
      </trkpt>
      <trkpt lat="43.83903" lon="7.23715">
        <ele>582.927</ele>
        <time>2009-05-07T12:40:59Z</time>
      </trkpt>
      <trkpt lat="43.83897" lon="7.23718">
        <ele>581.595</ele>
        <time>2009-05-07T12:41:05Z</time>
      </trkpt>
      <trkpt lat="43.83897" lon="7.23718">
        <ele>581.052</ele>
        <time>2009-05-07T12:41:37Z</time>
      </trkpt>
      <trkpt lat="43.83894" lon="7.2372">
        <ele>580.451</ele>
        <time>2009-05-07T12:41:44Z</time>
      </trkpt>
      <trkpt lat="43.83885" lon="7.23723">
        <ele>580.863</ele>
        <time>2009-05-07T12:41:57Z</time>
      </trkpt>
      <trkpt lat="43.83878" lon="7.23723">
        <ele>580.476</ele>
        <time>2009-05-07T12:42:04Z</time>
      </trkpt>
      <trkpt lat="43.83875" lon="7.23724">
        <ele>579.801</ele>
        <time>2009-05-07T12:42:11Z</time>
      </trkpt>
      <trkpt lat="43.8387" lon="7.23725">
        <ele>578.763</ele>
        <time>2009-05-07T12:42:20Z</time>
      </trkpt>
      <trkpt lat="43.83867" lon="7.23723">
        <ele>578.178</ele>
        <time>2009-05-07T12:42:23Z</time>
      </trkpt>
      <trkpt lat="43.83864" lon="7.23729">
        <ele>571.29</ele>
        <time>2009-05-07T12:42:28Z</time>
      </trkpt>
      <trkpt lat="43.83855" lon="7.23733">
        <ele>567.674</ele>
        <time>2009-05-07T12:42:34Z</time>
      </trkpt>
      <trkpt lat="43.83851" lon="7.23733">
        <ele>565.729</ele>
        <time>2009-05-07T12:42:36Z</time>
      </trkpt>
      <trkpt lat="43.83841" lon="7.23739">
        <ele>562.417</ele>
        <time>2009-05-07T12:42:41Z</time>
      </trkpt>
      <trkpt lat="43.8383" lon="7.23748">
        <ele>557.667</ele>
        <time>2009-05-07T12:42:46Z</time>
      </trkpt>
      <trkpt lat="43.83822" lon="7.23755">
        <ele>553.655</ele>
        <time>2009-05-07T12:42:51Z</time>
      </trkpt>
      <trkpt lat="43.83818" lon="7.23761">
        <ele>551.496</ele>
        <time>2009-05-07T12:43:18Z</time>
      </trkpt>
      <trkpt lat="43.83806" lon="7.23782">
        <ele>550.621</ele>
        <time>2009-05-07T12:43:23Z</time>
      </trkpt>
      <trkpt lat="43.83796" lon="7.23798">
        <ele>547.378</ele>
        <time>2009-05-07T12:43:28Z</time>
      </trkpt>
      <trkpt lat="43.83785" lon="7.23821">
        <ele>544.387</ele>
        <time>2009-05-07T12:43:32Z</time>
      </trkpt>
      <trkpt lat="43.83759" lon="7.23843">
        <ele>542.944</ele>
        <time>2009-05-07T12:43:39Z</time>
      </trkpt>
      <trkpt lat="43.83742" lon="7.23844">
        <ele>540.93</ele>
        <time>2009-05-07T12:43:44Z</time>
      </trkpt>
      <trkpt lat="43.83725" lon="7.23843">
        <ele>536.107</ele>
        <time>2009-05-07T12:43:50Z</time>
      </trkpt>
      <trkpt lat="43.83722" lon="7.23842">
        <ele>535.22</ele>
        <time>2009-05-07T12:43:51Z</time>
      </trkpt>
      <trkpt lat="43.8372" lon="7.23844">
        <ele>530.329</ele>
        <time>2009-05-07T12:43:58Z</time>
      </trkpt>
      <trkpt lat="43.83715" lon="7.23834">
        <ele>528.58</ele>
        <time>2009-05-07T12:44:46Z</time>
      </trkpt>
      <trkpt lat="43.83703" lon="7.23827">
        <ele>527.415</ele>
        <time>2009-05-07T12:44:53Z</time>
      </trkpt>
      <trkpt lat="43.83704" lon="7.23824">
        <ele>527.634</ele>
        <time>2009-05-07T12:44:54Z</time>
      </trkpt>
      <trkpt lat="43.83706" lon="7.2382">
        <ele>527.425</ele>
        <time>2009-05-07T12:44:56Z</time>
      </trkpt>
      <trkpt lat="43.83699" lon="7.23821">
        <ele>522.362</ele>
        <time>2009-05-07T12:45:02Z</time>
      </trkpt>
      <trkpt lat="43.83697" lon="7.23821">
        <ele>521.644</ele>
        <time>2009-05-07T12:45:04Z</time>
      </trkpt>
      <trkpt lat="43.83694" lon="7.23804">
        <ele>517.597</ele>
        <time>2009-05-07T12:45:10Z</time>
      </trkpt>
      <trkpt lat="43.83699" lon="7.23799">
        <ele>516.878</ele>
        <time>2009-05-07T12:45:14Z</time>
      </trkpt>
      <trkpt lat="43.83699" lon="7.23799">
        <ele>518.098</ele>
        <time>2009-05-07T12:45:25Z</time>
      </trkpt>
      <trkpt lat="43.83699" lon="7.23795">
        <ele>517.382</ele>
        <time>2009-05-07T12:45:32Z</time>
      </trkpt>
      <trkpt lat="43.83696" lon="7.23791">
        <ele>516.319</ele>
        <time>2009-05-07T12:45:40Z</time>
      </trkpt>
      <trkpt lat="43.83695" lon="7.23791">
        <ele>515.85</ele>
        <time>2009-05-07T12:45:43Z</time>
      </trkpt>
      <trkpt lat="43.83687" lon="7.23789">
        <ele>514.058</ele>
        <time>2009-05-07T12:45:47Z</time>
      </trkpt>
      <trkpt lat="43.83677" lon="7.23795">
        <ele>512.936</ele>
        <time>2009-05-07T12:45:51Z</time>
      </trkpt>
      <trkpt lat="43.83673" lon="7.23794">
        <ele>512.656</ele>
        <time>2009-05-07T12:45:53Z</time>
      </trkpt>
      <trkpt lat="43.83666" lon="7.23795">
        <ele>511.801</ele>
        <time>2009-05-07T12:46:00Z</time>
      </trkpt>
      <trkpt lat="43.83663" lon="7.2379">
        <ele>511.501</ele>
        <time>2009-05-07T12:46:09Z</time>
      </trkpt>
      <trkpt lat="43.83659" lon="7.23788">
        <ele>508.664</ele>
        <time>2009-05-07T12:46:17Z</time>
      </trkpt>
      <trkpt lat="43.83663" lon="7.23788">
        <ele>508.059</ele>
        <time>2009-05-07T12:46:25Z</time>
      </trkpt>
      <trkpt lat="43.83662" lon="7.23786">
        <ele>507.202</ele>
        <time>2009-05-07T12:46:33Z</time>
      </trkpt>
      <trkpt lat="43.83661" lon="7.23783">
        <ele>507.47</ele>
        <time>2009-05-07T12:46:39Z</time>
      </trkpt>
      <trkpt lat="43.83657" lon="7.2377">
        <ele>505.401</ele>
        <time>2009-05-07T12:46:44Z</time>
      </trkpt>
      <trkpt lat="43.83657" lon="7.23758">
        <ele>503.212</ele>
        <time>2009-05-07T12:46:49Z</time>
      </trkpt>
      <trkpt lat="43.83657" lon="7.23758">
        <ele>499.982</ele>
        <time>2009-05-07T12:46:56Z</time>
      </trkpt>
      <trkpt lat="43.83645" lon="7.23766">
        <ele>495.66</ele>
        <time>2009-05-07T12:47:01Z</time>
      </trkpt>
      <trkpt lat="43.83622" lon="7.23779">
        <ele>490.774</ele>
        <time>2009-05-07T12:47:08Z</time>
      </trkpt>
      <trkpt lat="43.83614" lon="7.23783">
        <ele>489.577</ele>
        <time>2009-05-07T12:47:10Z</time>
      </trkpt>
      <trkpt lat="43.8359" lon="7.23811">
        <ele>487.52</ele>
        <time>2009-05-07T12:47:18Z</time>
      </trkpt>
      <trkpt lat="43.83575" lon="7.23835">
        <ele>485.858</ele>
        <time>2009-05-07T12:47:25Z</time>
      </trkpt>
      <trkpt lat="43.83564" lon="7.23854">
        <ele>486.22</ele>
        <time>2009-05-07T12:47:32Z</time>
      </trkpt>
      <trkpt lat="43.83556" lon="7.23867">
        <ele>486.417</ele>
        <time>2009-05-07T12:47:39Z</time>
      </trkpt>
      <trkpt lat="43.83547" lon="7.23886">
        <ele>487.119</ele>
        <time>2009-05-07T12:47:48Z</time>
      </trkpt>
      <trkpt lat="43.83546" lon="7.2389">
        <ele>487.114</ele>
        <time>2009-05-07T12:47:50Z</time>
      </trkpt>
      <trkpt lat="43.83538" lon="7.23905">
        <ele>486.376</ele>
        <time>2009-05-07T12:47:59Z</time>
      </trkpt>
      <trkpt lat="43.83537" lon="7.23906">
        <ele>485.91</ele>
        <time>2009-05-07T12:48:00Z</time>
      </trkpt>
      <trkpt lat="43.83533" lon="7.23917">
        <ele>486.679</ele>
        <time>2009-05-07T12:48:07Z</time>
      </trkpt>
      <trkpt lat="43.83524" lon="7.23938">
        <ele>488.476</ele>
        <time>2009-05-07T12:48:18Z</time>
      </trkpt>
      <trkpt lat="43.83517" lon="7.23949">
        <ele>489.79</ele>
        <time>2009-05-07T12:48:24Z</time>
      </trkpt>
      <trkpt lat="43.83504" lon="7.23966">
        <ele>490.879</ele>
        <time>2009-05-07T12:48:31Z</time>
      </trkpt>
      <trkpt lat="43.83491" lon="7.23983">
        <ele>493.169</ele>
        <time>2009-05-07T12:48:38Z</time>
      </trkpt>
      <trkpt lat="43.83473" lon="7.24006">
        <ele>494.484</ele>
        <time>2009-05-07T12:48:46Z</time>
      </trkpt>
      <trkpt lat="43.83463" lon="7.24024">
        <ele>494.703</ele>
        <time>2009-05-07T12:48:51Z</time>
      </trkpt>
      <trkpt lat="43.83462" lon="7.24049">
        <ele>496.048</ele>
        <time>2009-05-07T12:48:56Z</time>
      </trkpt>
      <trkpt lat="43.83465" lon="7.24065">
        <ele>497.763</ele>
        <time>2009-05-07T12:49:01Z</time>
      </trkpt>
      <trkpt lat="43.83471" lon="7.24078">
        <ele>499.738</ele>
        <time>2009-05-07T12:49:08Z</time>
      </trkpt>
      <trkpt lat="43.83476" lon="7.24087">
        <ele>500.998</ele>
        <time>2009-05-07T12:49:13Z</time>
      </trkpt>
      <trkpt lat="43.83482" lon="7.24095">
        <ele>501.589</ele>
        <time>2009-05-07T12:49:20Z</time>
      </trkpt>
      <trkpt lat="43.83485" lon="7.24098">
        <ele>502.482</ele>
        <time>2009-05-07T12:49:37Z</time>
      </trkpt>
      <trkpt lat="43.83489" lon="7.24107">
        <ele>503.214</ele>
        <time>2009-05-07T12:49:44Z</time>
      </trkpt>
      <trkpt lat="43.83497" lon="7.24116">
        <ele>505.52</ele>
        <time>2009-05-07T12:49:52Z</time>
      </trkpt>
      <trkpt lat="43.83501" lon="7.2412">
        <ele>506.815</ele>
        <time>2009-05-07T12:49:55Z</time>
      </trkpt>
      <trkpt lat="43.83504" lon="7.24126">
        <ele>508.991</ele>
        <time>2009-05-07T12:50:02Z</time>
      </trkpt>
      <trkpt lat="43.83505" lon="7.24127">
        <ele>508.883</ele>
        <time>2009-05-07T12:50:06Z</time>
      </trkpt>
      <trkpt lat="43.83509" lon="7.2413">
        <ele>510.662</ele>
        <time>2009-05-07T12:50:14Z</time>
      </trkpt>
      <trkpt lat="43.8351" lon="7.2413">
        <ele>510.542</ele>
        <time>2009-05-07T12:50:26Z</time>
      </trkpt>
      <trkpt lat="43.83514" lon="7.24133">
        <ele>511.446</ele>
        <time>2009-05-07T12:50:34Z</time>
      </trkpt>
      <trkpt lat="43.83518" lon="7.24139">
        <ele>511.225</ele>
        <time>2009-05-07T12:50:45Z</time>
      </trkpt>
      <trkpt lat="43.83518" lon="7.24141">
        <ele>511.262</ele>
        <time>2009-05-07T12:51:02Z</time>
      </trkpt>
      <trkpt lat="43.83524" lon="7.24153">
        <ele>512.469</ele>
        <time>2009-05-07T12:51:10Z</time>
      </trkpt>
      <trkpt lat="43.83534" lon="7.24161">
        <ele>513.735</ele>
        <time>2009-05-07T12:51:18Z</time>
      </trkpt>
      <trkpt lat="43.83542" lon="7.24168">
        <ele>515.035</ele>
        <time>2009-05-07T12:51:25Z</time>
      </trkpt>
      <trkpt lat="43.83547" lon="7.24173">
        <ele>515.623</ele>
        <time>2009-05-07T12:51:30Z</time>
      </trkpt>
      <trkpt lat="43.83557" lon="7.24176">
        <ele>515.931</ele>
        <time>2009-05-07T12:51:38Z</time>
      </trkpt>
      <trkpt lat="43.83557" lon="7.24178">
        <ele>516.335</ele>
        <time>2009-05-07T12:51:39Z</time>
      </trkpt>
      <trkpt lat="43.83566" lon="7.24179">
        <ele>517.284</ele>
        <time>2009-05-07T12:51:46Z</time>
      </trkpt>
      <trkpt lat="43.83573" lon="7.24178">
        <ele>518.351</ele>
        <time>2009-05-07T12:51:54Z</time>
      </trkpt>
      <trkpt lat="43.83576" lon="7.24178">
        <ele>518.863</ele>
        <time>2009-05-07T12:52:23Z</time>
      </trkpt>
      <trkpt lat="43.83585" lon="7.24176">
        <ele>519.125</ele>
        <time>2009-05-07T12:52:28Z</time>
      </trkpt>
      <trkpt lat="43.83596" lon="7.2418">
        <ele>520.782</ele>
        <time>2009-05-07T12:52:36Z</time>
      </trkpt>
      <trkpt lat="43.83598" lon="7.24181">
        <ele>521.039</ele>
        <time>2009-05-07T12:52:38Z</time>
      </trkpt>
      <trkpt lat="43.83603" lon="7.2419">
        <ele>521.777</ele>
        <time>2009-05-07T12:52:45Z</time>
      </trkpt>
      <trkpt lat="43.83598" lon="7.242">
        <ele>521.967</ele>
        <time>2009-05-07T12:52:50Z</time>
      </trkpt>
      <trkpt lat="43.83594" lon="7.24206">
        <ele>521.837</ele>
        <time>2009-05-07T12:52:54Z</time>
      </trkpt>
      <trkpt lat="43.83587" lon="7.24217">
        <ele>521.431</ele>
        <time>2009-05-07T12:53:02Z</time>
      </trkpt>
      <trkpt lat="43.83581" lon="7.24233">
        <ele>521.028</ele>
        <time>2009-05-07T12:53:09Z</time>
      </trkpt>
      <trkpt lat="43.83579" lon="7.24249">
        <ele>521.774</ele>
        <time>2009-05-07T12:53:17Z</time>
      </trkpt>
      <trkpt lat="43.83577" lon="7.24263">
        <ele>524.788</ele>
        <time>2009-05-07T12:53:24Z</time>
      </trkpt>
      <trkpt lat="43.83578" lon="7.24275">
        <ele>527.224</ele>
        <time>2009-05-07T12:53:31Z</time>
      </trkpt>
      <trkpt lat="43.83579" lon="7.24285">
        <ele>529.9</ele>
        <time>2009-05-07T12:53:38Z</time>
      </trkpt>
      <trkpt lat="43.8358" lon="7.24287">
        <ele>529.89</ele>
        <time>2009-05-07T12:53:45Z</time>
      </trkpt>
      <trkpt lat="43.83582" lon="7.24294">
        <ele>530.63</ele>
        <time>2009-05-07T12:54:04Z</time>
      </trkpt>
      <trkpt lat="43.83585" lon="7.24307">
        <ele>531.267</ele>
        <time>2009-05-07T12:54:12Z</time>
      </trkpt>
      <trkpt lat="43.83589" lon="7.24314">
        <ele>531.252</ele>
        <time>2009-05-07T12:54:16Z</time>
      </trkpt>
      <trkpt lat="43.83588" lon="7.2432">
        <ele>531.916</ele>
        <time>2009-05-07T12:54:18Z</time>
      </trkpt>
      <trkpt lat="43.83595" lon="7.24333">
        <ele>532.816</ele>
        <time>2009-05-07T12:54:27Z</time>
      </trkpt>
      <trkpt lat="43.83604" lon="7.24343">
        <ele>533.176</ele>
        <time>2009-05-07T12:54:35Z</time>
      </trkpt>
      <trkpt lat="43.83605" lon="7.24345">
        <ele>533.107</ele>
        <time>2009-05-07T12:54:36Z</time>
      </trkpt>
      <trkpt lat="43.83601" lon="7.24358">
        <ele>533.324</ele>
        <time>2009-05-07T12:54:44Z</time>
      </trkpt>
      <trkpt lat="43.83595" lon="7.2437">
        <ele>534.666</ele>
        <time>2009-05-07T12:54:51Z</time>
      </trkpt>
      <trkpt lat="43.83595" lon="7.24372">
        <ele>534.904</ele>
        <time>2009-05-07T12:54:52Z</time>
      </trkpt>
      <trkpt lat="43.83592" lon="7.24382">
        <ele>535.17</ele>
        <time>2009-05-07T12:54:57Z</time>
      </trkpt>
      <trkpt lat="43.83587" lon="7.24401">
        <ele>534.901</ele>
        <time>2009-05-07T12:55:06Z</time>
      </trkpt>
      <trkpt lat="43.83581" lon="7.2441">
        <ele>536.09</ele>
        <time>2009-05-07T12:55:13Z</time>
      </trkpt>
      <trkpt lat="43.8358" lon="7.24424">
        <ele>539.161</ele>
        <time>2009-05-07T12:55:20Z</time>
      </trkpt>
      <trkpt lat="43.8358" lon="7.24436">
        <ele>540.25</ele>
        <time>2009-05-07T12:55:26Z</time>
      </trkpt>
      <trkpt lat="43.83585" lon="7.2445">
        <ele>540.368</ele>
        <time>2009-05-07T12:55:32Z</time>
      </trkpt>
      <trkpt lat="43.83597" lon="7.24474">
        <ele>541.831</ele>
        <time>2009-05-07T12:55:41Z</time>
      </trkpt>
      <trkpt lat="43.83592" lon="7.24506">
        <ele>539.01</ele>
        <time>2009-05-07T12:55:45Z</time>
      </trkpt>
      <trkpt lat="43.8359" lon="7.24535">
        <ele>536.775</ele>
        <time>2009-05-07T12:55:49Z</time>
      </trkpt>
      <trkpt lat="43.83584" lon="7.24564">
        <ele>533.797</ele>
        <time>2009-05-07T12:55:55Z</time>
      </trkpt>
      <trkpt lat="43.83577" lon="7.24596">
        <ele>530.249</ele>
        <time>2009-05-07T12:56:01Z</time>
      </trkpt>
      <trkpt lat="43.83564" lon="7.24613">
        <ele>526.979</ele>
        <time>2009-05-07T12:56:06Z</time>
      </trkpt>
      <trkpt lat="43.83562" lon="7.24616">
        <ele>526.065</ele>
        <time>2009-05-07T12:56:13Z</time>
      </trkpt>
      <trkpt lat="43.83557" lon="7.24631">
        <ele>525.628</ele>
        <time>2009-05-07T12:56:54Z</time>
      </trkpt>
      <trkpt lat="43.83547" lon="7.24644">
        <ele>524.055</ele>
        <time>2009-05-07T12:56:56Z</time>
      </trkpt>
      <trkpt lat="43.83538" lon="7.24652">
        <ele>524.469</ele>
        <time>2009-05-07T12:57:00Z</time>
      </trkpt>
      <trkpt lat="43.83539" lon="7.24652">
        <ele>524.462</ele>
        <time>2009-05-07T12:57:14Z</time>
      </trkpt>
      <trkpt lat="43.83538" lon="7.24652">
        <ele>523.758</ele>
        <time>2009-05-07T12:58:45Z</time>
      </trkpt>
      <trkpt lat="43.83519" lon="7.2466">
        <ele>520.349</ele>
        <time>2009-05-07T12:58:53Z</time>
      </trkpt>
      <trkpt lat="43.83509" lon="7.24667">
        <ele>518.695</ele>
        <time>2009-05-07T12:58:56Z</time>
      </trkpt>
      <trkpt lat="43.83495" lon="7.24673">
        <ele>515.316</ele>
        <time>2009-05-07T12:58:59Z</time>
      </trkpt>
      <trkpt lat="43.83462" lon="7.24696">
        <ele>513.48</ele>
        <time>2009-05-07T12:59:05Z</time>
      </trkpt>
      <trkpt lat="43.83416" lon="7.24719">
        <ele>511.109</ele>
        <time>2009-05-07T12:59:14Z</time>
      </trkpt>
      <trkpt lat="43.83399" lon="7.24722">
        <ele>510.715</ele>
        <time>2009-05-07T12:59:17Z</time>
      </trkpt>
      <trkpt lat="43.83364" lon="7.24725">
        <ele>512.099</ele>
        <time>2009-05-07T12:59:24Z</time>
      </trkpt>
      <trkpt lat="43.83348" lon="7.24732">
        <ele>513.234</ele>
        <time>2009-05-07T12:59:31Z</time>
      </trkpt>
      <trkpt lat="43.83326" lon="7.2474">
        <ele>515.054</ele>
        <time>2009-05-07T12:59:40Z</time>
      </trkpt>
      <trkpt lat="43.83305" lon="7.24751">
        <ele>515.863</ele>
        <time>2009-05-07T12:59:49Z</time>
      </trkpt>
      <trkpt lat="43.83283" lon="7.24759">
        <ele>515.805</ele>
        <time>2009-05-07T12:59:58Z</time>
      </trkpt>
      <trkpt lat="43.83264" lon="7.24766">
        <ele>514.815</ele>
        <time>2009-05-07T13:00:06Z</time>
      </trkpt>
      <trkpt lat="43.83245" lon="7.24771">
        <ele>516.372</ele>
        <time>2009-05-07T13:00:14Z</time>
      </trkpt>
      <trkpt lat="43.83228" lon="7.24775">
        <ele>517.377</ele>
        <time>2009-05-07T13:00:22Z</time>
      </trkpt>
      <trkpt lat="43.83207" lon="7.24779">
        <ele>518.183</ele>
        <time>2009-05-07T13:00:31Z</time>
      </trkpt>
      <trkpt lat="43.83192" lon="7.24782">
        <ele>518.246</ele>
        <time>2009-05-07T13:00:38Z</time>
      </trkpt>
      <trkpt lat="43.83183" lon="7.24787">
        <ele>518.96</ele>
        <time>2009-05-07T13:00:45Z</time>
      </trkpt>
      <trkpt lat="43.83172" lon="7.24793">
        <ele>520.843</ele>
        <time>2009-05-07T13:00:52Z</time>
      </trkpt>
      <trkpt lat="43.83162" lon="7.24804">
        <ele>523.243</ele>
        <time>2009-05-07T13:01:00Z</time>
      </trkpt>
      <trkpt lat="43.83161" lon="7.24804">
        <ele>523.419</ele>
        <time>2009-05-07T13:01:01Z</time>
      </trkpt>
      <trkpt lat="43.83158" lon="7.24807">
        <ele>524.826</ele>
        <time>2009-05-07T13:01:08Z</time>
      </trkpt>
      <trkpt lat="43.83157" lon="7.24808">
        <ele>526.412</ele>
        <time>2009-05-07T13:02:53Z</time>
      </trkpt>
      <trkpt lat="43.83151" lon="7.24815">
        <ele>527.004</ele>
        <time>2009-05-07T13:03:00Z</time>
      </trkpt>
      <trkpt lat="43.8314" lon="7.24824">
        <ele>529.122</ele>
        <time>2009-05-07T13:03:09Z</time>
      </trkpt>
      <trkpt lat="43.83134" lon="7.24829">
        <ele>530.656</ele>
        <time>2009-05-07T13:03:14Z</time>
      </trkpt>
      <trkpt lat="43.83123" lon="7.24835">
        <ele>532.825</ele>
        <time>2009-05-07T13:03:22Z</time>
      </trkpt>
      <trkpt lat="43.83109" lon="7.24841">
        <ele>531.801</ele>
        <time>2009-05-07T13:03:30Z</time>
      </trkpt>
      <trkpt lat="43.83089" lon="7.24847">
        <ele>531.399</ele>
        <time>2009-05-07T13:03:38Z</time>
      </trkpt>
      <trkpt lat="43.83065" lon="7.24851">
        <ele>530.263</ele>
        <time>2009-05-07T13:03:47Z</time>
      </trkpt>
      <trkpt lat="43.8305" lon="7.24861">
        <ele>529.473</ele>
        <time>2009-05-07T13:03:52Z</time>
      </trkpt>
      <trkpt lat="43.83035" lon="7.24883">
        <ele>530.053</ele>
        <time>2009-05-07T13:03:56Z</time>
      </trkpt>
      <trkpt lat="43.83013" lon="7.24887">
        <ele>531.105</ele>
        <time>2009-05-07T13:04:00Z</time>
      </trkpt>
      <trkpt lat="43.82993" lon="7.24871">
        <ele>529.91</ele>
        <time>2009-05-07T13:04:06Z</time>
      </trkpt>
      <trkpt lat="43.82974" lon="7.2486">
        <ele>529.133</ele>
        <time>2009-05-07T13:04:13Z</time>
      </trkpt>
      <trkpt lat="43.82965" lon="7.24859">
        <ele>530.987</ele>
        <time>2009-05-07T13:04:19Z</time>
      </trkpt>
      <trkpt lat="43.82953" lon="7.24862">
        <ele>533.743</ele>
        <time>2009-05-07T13:04:27Z</time>
      </trkpt>
      <trkpt lat="43.82938" lon="7.24863">
        <ele>533.635</ele>
        <time>2009-05-07T13:04:35Z</time>
      </trkpt>
      <trkpt lat="43.8292" lon="7.24873">
        <ele>532.406</ele>
        <time>2009-05-07T13:04:43Z</time>
      </trkpt>
      <trkpt lat="43.829" lon="7.24888">
        <ele>531.167</ele>
        <time>2009-05-07T13:04:53Z</time>
      </trkpt>
      <trkpt lat="43.82883" lon="7.24907">
        <ele>530.383</ele>
        <time>2009-05-07T13:05:01Z</time>
      </trkpt>
      <trkpt lat="43.82867" lon="7.24927">
        <ele>530.609</ele>
        <time>2009-05-07T13:05:07Z</time>
      </trkpt>
      <trkpt lat="43.82861" lon="7.24947">
        <ele>530.594</ele>
        <time>2009-05-07T13:05:11Z</time>
      </trkpt>
      <trkpt lat="43.82838" lon="7.24971">
        <ele>529.838</ele>
        <time>2009-05-07T13:05:17Z</time>
      </trkpt>
      <trkpt lat="43.82824" lon="7.2497">
        <ele>528.91</ele>
        <time>2009-05-07T13:05:20Z</time>
      </trkpt>
      <trkpt lat="43.828" lon="7.24961">
        <ele>531.024</ele>
        <time>2009-05-07T13:05:26Z</time>
      </trkpt>
      <trkpt lat="43.82791" lon="7.24959">
        <ele>531.488</ele>
        <time>2009-05-07T13:05:28Z</time>
      </trkpt>
      <trkpt lat="43.82774" lon="7.24956">
        <ele>531.35</ele>
        <time>2009-05-07T13:05:31Z</time>
      </trkpt>
      <trkpt lat="43.8275" lon="7.24962">
        <ele>528.245</ele>
        <time>2009-05-07T13:05:35Z</time>
      </trkpt>
      <trkpt lat="43.82742" lon="7.2497">
        <ele>527.527</ele>
        <time>2009-05-07T13:05:41Z</time>
      </trkpt>
      <trkpt lat="43.82737" lon="7.24971">
        <ele>527.268</ele>
        <time>2009-05-07T13:05:45Z</time>
      </trkpt>
      <trkpt lat="43.82729" lon="7.24978">
        <ele>526.472</ele>
        <time>2009-05-07T13:05:53Z</time>
      </trkpt>
      <trkpt lat="43.8272" lon="7.24987">
        <ele>527.431</ele>
        <time>2009-05-07T13:06:01Z</time>
      </trkpt>
      <trkpt lat="43.82714" lon="7.24993">
        <ele>530.484</ele>
        <time>2009-05-07T13:06:08Z</time>
      </trkpt>
      <trkpt lat="43.82708" lon="7.24999">
        <ele>529.379</ele>
        <time>2009-05-07T13:06:16Z</time>
      </trkpt>
      <trkpt lat="43.82702" lon="7.25007">
        <ele>530.805</ele>
        <time>2009-05-07T13:07:20Z</time>
      </trkpt>
      <trkpt lat="43.82691" lon="7.25017">
        <ele>531.48</ele>
        <time>2009-05-07T13:07:29Z</time>
      </trkpt>
      <trkpt lat="43.82681" lon="7.25027">
        <ele>531.605</ele>
        <time>2009-05-07T13:07:39Z</time>
      </trkpt>
      <trkpt lat="43.82671" lon="7.25034">
        <ele>532.691</ele>
        <time>2009-05-07T13:07:47Z</time>
      </trkpt>
      <trkpt lat="43.8266" lon="7.25041">
        <ele>535.198</ele>
        <time>2009-05-07T13:07:56Z</time>
      </trkpt>
      <trkpt lat="43.82651" lon="7.25052">
        <ele>536.995</ele>
        <time>2009-05-07T13:08:05Z</time>
      </trkpt>
      <trkpt lat="43.82642" lon="7.25063">
        <ele>537.628</ele>
        <time>2009-05-07T13:08:14Z</time>
      </trkpt>
      <trkpt lat="43.82633" lon="7.25071">
        <ele>539.247</ele>
        <time>2009-05-07T13:08:22Z</time>
      </trkpt>
      <trkpt lat="43.82624" lon="7.25079">
        <ele>540.113</ele>
        <time>2009-05-07T13:08:29Z</time>
      </trkpt>
      <trkpt lat="43.82616" lon="7.25088">
        <ele>541.374</ele>
        <time>2009-05-07T13:08:38Z</time>
      </trkpt>
      <trkpt lat="43.82615" lon="7.25089">
        <ele>541.365</ele>
        <time>2009-05-07T13:08:39Z</time>
      </trkpt>
      <trkpt lat="43.82607" lon="7.25094">
        <ele>543.307</ele>
        <time>2009-05-07T13:08:46Z</time>
      </trkpt>
      <trkpt lat="43.82595" lon="7.25105">
        <ele>545.408</ele>
        <time>2009-05-07T13:08:56Z</time>
      </trkpt>
      <trkpt lat="43.82586" lon="7.2511">
        <ele>544.877</ele>
        <time>2009-05-07T13:09:04Z</time>
      </trkpt>
      <trkpt lat="43.82578" lon="7.25116">
        <ele>546.351</ele>
        <time>2009-05-07T13:09:11Z</time>
      </trkpt>
      <trkpt lat="43.82573" lon="7.2512">
        <ele>546.409</ele>
        <time>2009-05-07T13:09:15Z</time>
      </trkpt>
      <trkpt lat="43.82562" lon="7.25131">
        <ele>548.712</ele>
        <time>2009-05-07T13:09:26Z</time>
      </trkpt>
      <trkpt lat="43.82551" lon="7.25141">
        <ele>549.887</ele>
        <time>2009-05-07T13:09:36Z</time>
      </trkpt>
      <trkpt lat="43.82541" lon="7.2515">
        <ele>550.979</ele>
        <time>2009-05-07T13:09:45Z</time>
      </trkpt>
      <trkpt lat="43.82538" lon="7.2515">
        <ele>551.593</ele>
        <time>2009-05-07T13:09:47Z</time>
      </trkpt>
      <trkpt lat="43.82534" lon="7.25154">
        <ele>552.574</ele>
        <time>2009-05-07T13:09:51Z</time>
      </trkpt>
      <trkpt lat="43.82531" lon="7.25156">
        <ele>553.735</ele>
        <time>2009-05-07T13:09:53Z</time>
      </trkpt>
      <trkpt lat="43.82518" lon="7.25163">
        <ele>559.297</ele>
        <time>2009-05-07T13:10:02Z</time>
      </trkpt>
      <trkpt lat="43.82517" lon="7.25163">
        <ele>559.735</ele>
        <time>2009-05-07T13:10:03Z</time>
      </trkpt>
      <trkpt lat="43.82512" lon="7.25166">
        <ele>561.022</ele>
        <time>2009-05-07T13:10:07Z</time>
      </trkpt>
      <trkpt lat="43.82502" lon="7.25174">
        <ele>562.126</ele>
        <time>2009-05-07T13:10:16Z</time>
      </trkpt>
      <trkpt lat="43.82493" lon="7.25179">
        <ele>561.448</ele>
        <time>2009-05-07T13:10:23Z</time>
      </trkpt>
      <trkpt lat="43.82487" lon="7.25188">
        <ele>559.77</ele>
        <time>2009-05-07T13:10:31Z</time>
      </trkpt>
      <trkpt lat="43.82475" lon="7.25197">
        <ele>561.462</ele>
        <time>2009-05-07T13:10:41Z</time>
      </trkpt>
      <trkpt lat="43.82466" lon="7.25203">
        <ele>561.551</ele>
        <time>2009-05-07T13:10:49Z</time>
      </trkpt>
      <trkpt lat="43.82451" lon="7.2521">
        <ele>562.455</ele>
        <time>2009-05-07T13:10:59Z</time>
      </trkpt>
      <trkpt lat="43.82437" lon="7.25216">
        <ele>564.088</ele>
        <time>2009-05-07T13:11:10Z</time>
      </trkpt>
      <trkpt lat="43.82421" lon="7.25227">
        <ele>567.253</ele>
        <time>2009-05-07T13:11:22Z</time>
      </trkpt>
      <trkpt lat="43.82408" lon="7.25236">
        <ele>567.813</ele>
        <time>2009-05-07T13:11:33Z</time>
      </trkpt>
      <trkpt lat="43.82396" lon="7.25243">
        <ele>570.488</ele>
        <time>2009-05-07T13:11:42Z</time>
      </trkpt>
      <trkpt lat="43.8239" lon="7.25247">
        <ele>571.337</ele>
        <time>2009-05-07T13:11:48Z</time>
      </trkpt>
      <trkpt lat="43.82389" lon="7.25247">
        <ele>570.98</ele>
        <time>2009-05-07T13:13:13Z</time>
      </trkpt>
      <trkpt lat="43.8238" lon="7.25254">
        <ele>570.146</ele>
        <time>2009-05-07T13:13:21Z</time>
      </trkpt>
      <trkpt lat="43.82371" lon="7.2526">
        <ele>569.911</ele>
        <time>2009-05-07T13:13:34Z</time>
      </trkpt>
      <trkpt lat="43.82357" lon="7.25268">
        <ele>569.955</ele>
        <time>2009-05-07T13:13:41Z</time>
      </trkpt>
      <trkpt lat="43.82336" lon="7.25278">
        <ele>569.002</ele>
        <time>2009-05-07T13:13:49Z</time>
      </trkpt>
      <trkpt lat="43.82314" lon="7.25292">
        <ele>568.234</ele>
        <time>2009-05-07T13:13:57Z</time>
      </trkpt>
      <trkpt lat="43.82287" lon="7.25313">
        <ele>568.363</ele>
        <time>2009-05-07T13:14:06Z</time>
      </trkpt>
      <trkpt lat="43.82264" lon="7.25335">
        <ele>568.214</ele>
        <time>2009-05-07T13:14:14Z</time>
      </trkpt>
      <trkpt lat="43.82241" lon="7.25364">
        <ele>568.059</ele>
        <time>2009-05-07T13:14:23Z</time>
      </trkpt>
      <trkpt lat="43.82212" lon="7.25393">
        <ele>568.162</ele>
        <time>2009-05-07T13:14:32Z</time>
      </trkpt>
      <trkpt lat="43.82183" lon="7.25409">
        <ele>567.413</ele>
        <time>2009-05-07T13:14:40Z</time>
      </trkpt>
      <trkpt lat="43.82171" lon="7.25417">
        <ele>567.585</ele>
        <time>2009-05-07T13:14:43Z</time>
      </trkpt>
      <trkpt lat="43.82139" lon="7.25455">
        <ele>566.449</ele>
        <time>2009-05-07T13:14:52Z</time>
      </trkpt>
      <trkpt lat="43.82109" lon="7.25479">
        <ele>564.561</ele>
        <time>2009-05-07T13:15:00Z</time>
      </trkpt>
      <trkpt lat="43.82106" lon="7.25482">
        <ele>564.432</ele>
        <time>2009-05-07T13:15:01Z</time>
      </trkpt>
      <trkpt lat="43.8207" lon="7.25507">
        <ele>565.403</ele>
        <time>2009-05-07T13:15:11Z</time>
      </trkpt>
      <trkpt lat="43.8204" lon="7.25528">
        <ele>566.205</ele>
        <time>2009-05-07T13:15:20Z</time>
      </trkpt>
      <trkpt lat="43.82011" lon="7.25556">
        <ele>567.815</ele>
        <time>2009-05-07T13:15:30Z</time>
      </trkpt>
      <trkpt lat="43.81996" lon="7.25573">
        <ele>569.554</ele>
        <time>2009-05-07T13:15:37Z</time>
      </trkpt>
      <trkpt lat="43.81986" lon="7.25576">
        <ele>569.81</ele>
        <time>2009-05-07T13:15:43Z</time>
      </trkpt>
      <trkpt lat="43.81987" lon="7.25577">
        <ele>569.739</ele>
        <time>2009-05-07T13:15:59Z</time>
      </trkpt>
      <trkpt lat="43.81976" lon="7.25568">
        <ele>567.999</ele>
        <time>2009-05-07T13:16:04Z</time>
      </trkpt>
      <trkpt lat="43.81972" lon="7.25564">
        <ele>567.791</ele>
        <time>2009-05-07T13:16:05Z</time>
      </trkpt>
      <trkpt lat="43.81946" lon="7.25545">
        <ele>564.143</ele>
        <time>2009-05-07T13:16:12Z</time>
      </trkpt>
      <trkpt lat="43.81938" lon="7.25539">
        <ele>563.561</ele>
        <time>2009-05-07T13:16:16Z</time>
      </trkpt>
      <trkpt lat="43.81925" lon="7.25533">
        <ele>563.131</ele>
        <time>2009-05-07T13:16:23Z</time>
      </trkpt>
      <trkpt lat="43.81914" lon="7.25526">
        <ele>563.297</ele>
        <time>2009-05-07T13:16:31Z</time>
      </trkpt>
      <trkpt lat="43.81903" lon="7.25519">
        <ele>564.651</ele>
        <time>2009-05-07T13:16:40Z</time>
      </trkpt>
      <trkpt lat="43.81887" lon="7.25513">
        <ele>564.38</ele>
        <time>2009-05-07T13:16:51Z</time>
      </trkpt>
      <trkpt lat="43.81873" lon="7.25513">
        <ele>564.005</ele>
        <time>2009-05-07T13:16:58Z</time>
      </trkpt>
      <trkpt lat="43.81859" lon="7.25504">
        <ele>564.216</ele>
        <time>2009-05-07T13:17:06Z</time>
      </trkpt>
      <trkpt lat="43.81855" lon="7.25503">
        <ele>566.21</ele>
        <time>2009-05-07T13:17:10Z</time>
      </trkpt>
      <trkpt lat="43.8184" lon="7.25503">
        <ele>566.262</ele>
        <time>2009-05-07T13:17:17Z</time>
      </trkpt>
      <trkpt lat="43.81829" lon="7.25498">
        <ele>568.886</ele>
        <time>2009-05-07T13:17:23Z</time>
      </trkpt>
      <trkpt lat="43.8182" lon="7.25496">
        <ele>572.132</ele>
        <time>2009-05-07T13:17:30Z</time>
      </trkpt>
      <trkpt lat="43.81773" lon="7.25469">
        <ele>575.888</ele>
        <time>2009-05-07T13:19:33Z</time>
      </trkpt>
      <trkpt lat="43.81767" lon="7.25465">
        <ele>578.407</ele>
        <time>2009-05-07T13:19:43Z</time>
      </trkpt>
      <trkpt lat="43.81764" lon="7.25465">
        <ele>579.585</ele>
        <time>2009-05-07T13:19:53Z</time>
      </trkpt>
      <trkpt lat="43.81761" lon="7.25464">
        <ele>579.998</ele>
        <time>2009-05-07T13:20:01Z</time>
      </trkpt>
      <trkpt lat="43.81757" lon="7.25463">
        <ele>580.209</ele>
        <time>2009-05-07T13:20:07Z</time>
      </trkpt>
      <trkpt lat="43.81753" lon="7.2546">
        <ele>583.771</ele>
        <time>2009-05-07T13:20:46Z</time>
      </trkpt>
      <trkpt lat="43.81752" lon="7.25461">
        <ele>585.476</ele>
        <time>2009-05-07T13:20:55Z</time>
      </trkpt>
      <trkpt lat="43.81745" lon="7.25458">
        <ele>589.023</ele>
        <time>2009-05-07T13:21:03Z</time>
      </trkpt>
      <trkpt lat="43.81737" lon="7.25454">
        <ele>592.594</ele>
        <time>2009-05-07T13:21:13Z</time>
      </trkpt>
      <trkpt lat="43.81733" lon="7.25453">
        <ele>594.18</ele>
        <time>2009-05-07T13:21:24Z</time>
      </trkpt>
      <trkpt lat="43.81728" lon="7.2545">
        <ele>597.106</ele>
        <time>2009-05-07T13:21:41Z</time>
      </trkpt>
      <trkpt lat="43.81722" lon="7.25449">
        <ele>598.556</ele>
        <time>2009-05-07T13:21:50Z</time>
      </trkpt>
      <trkpt lat="43.81717" lon="7.25444">
        <ele>599.428</ele>
        <time>2009-05-07T13:22:00Z</time>
      </trkpt>
      <trkpt lat="43.81715" lon="7.25442">
        <ele>599.71</ele>
        <time>2009-05-07T13:22:09Z</time>
      </trkpt>
      <trkpt lat="43.81712" lon="7.25447">
        <ele>600.767</ele>
        <time>2009-05-07T13:22:17Z</time>
      </trkpt>
      <trkpt lat="43.81715" lon="7.2545">
        <ele>601.67</ele>
        <time>2009-05-07T13:22:25Z</time>
      </trkpt>
      <trkpt lat="43.81718" lon="7.25454">
        <ele>603.216</ele>
        <time>2009-05-07T13:22:34Z</time>
      </trkpt>
      <trkpt lat="43.81718" lon="7.25459">
        <ele>603.661</ele>
        <time>2009-05-07T13:22:43Z</time>
      </trkpt>
      <trkpt lat="43.8172" lon="7.25465">
        <ele>603.567</ele>
        <time>2009-05-07T13:22:59Z</time>
      </trkpt>
      <trkpt lat="43.81717" lon="7.25468">
        <ele>603.232</ele>
        <time>2009-05-07T13:23:13Z</time>
      </trkpt>
      <trkpt lat="43.81715" lon="7.25466">
        <ele>604.302</ele>
        <time>2009-05-07T13:23:37Z</time>
      </trkpt>
      <trkpt lat="43.81708" lon="7.25464">
        <ele>604.577</ele>
        <time>2009-05-07T13:25:32Z</time>
      </trkpt>
      <trkpt lat="43.81698" lon="7.25456">
        <ele>605.344</ele>
        <time>2009-05-07T13:25:39Z</time>
      </trkpt>
      <trkpt lat="43.8169" lon="7.25449">
        <ele>605.625</ele>
        <time>2009-05-07T13:25:46Z</time>
      </trkpt>
      <trkpt lat="43.81682" lon="7.25442">
        <ele>608.466</ele>
        <time>2009-05-07T13:25:53Z</time>
      </trkpt>
      <trkpt lat="43.81673" lon="7.25431">
        <ele>609.67</ele>
        <time>2009-05-07T13:26:04Z</time>
      </trkpt>
      <trkpt lat="43.81671" lon="7.25428">
        <ele>609.957</ele>
        <time>2009-05-07T13:26:06Z</time>
      </trkpt>
      <trkpt lat="43.81658" lon="7.25419">
        <ele>612.374</ele>
        <time>2009-05-07T13:26:16Z</time>
      </trkpt>
      <trkpt lat="43.81649" lon="7.25411">
        <ele>613.083</ele>
        <time>2009-05-07T13:26:25Z</time>
      </trkpt>
      <trkpt lat="43.81647" lon="7.25409">
        <ele>613.507</ele>
        <time>2009-05-07T13:26:27Z</time>
      </trkpt>
      <trkpt lat="43.81643" lon="7.25404">
        <ele>614.218</ele>
        <time>2009-05-07T13:26:31Z</time>
      </trkpt>
      <trkpt lat="43.81637" lon="7.25399">
        <ele>615.065</ele>
        <time>2009-05-07T13:26:37Z</time>
      </trkpt>
      <trkpt lat="43.8163" lon="7.25392">
        <ele>616.73</ele>
        <time>2009-05-07T13:26:44Z</time>
      </trkpt>
      <trkpt lat="43.81625" lon="7.25385">
        <ele>618.264</ele>
        <time>2009-05-07T13:26:51Z</time>
      </trkpt>
      <trkpt lat="43.81619" lon="7.25378">
        <ele>620.354</ele>
        <time>2009-05-07T13:26:59Z</time>
      </trkpt>
      <trkpt lat="43.81614" lon="7.25374">
        <ele>623.37</ele>
        <time>2009-05-07T13:27:06Z</time>
      </trkpt>
      <trkpt lat="43.81612" lon="7.25372">
        <ele>624.082</ele>
        <time>2009-05-07T13:27:48Z</time>
      </trkpt>
      <trkpt lat="43.81608" lon="7.2537">
        <ele>623.734</ele>
        <time>2009-05-07T13:29:09Z</time>
      </trkpt>
      <trkpt lat="43.81605" lon="7.25367">
        <ele>625.161</ele>
        <time>2009-05-07T13:29:29Z</time>
      </trkpt>
      <trkpt lat="43.81602" lon="7.25365">
        <ele>625.825</ele>
        <time>2009-05-07T13:29:39Z</time>
      </trkpt>
      <trkpt lat="43.81603" lon="7.25366">
        <ele>626.564</ele>
        <time>2009-05-07T13:29:45Z</time>
      </trkpt>
      <trkpt lat="43.81599" lon="7.25367">
        <ele>627.847</ele>
        <time>2009-05-07T13:29:55Z</time>
      </trkpt>
      <trkpt lat="43.81597" lon="7.25365">
        <ele>629.199</ele>
        <time>2009-05-07T13:30:02Z</time>
      </trkpt>
      <trkpt lat="43.81596" lon="7.25361">
        <ele>629.988</ele>
        <time>2009-05-07T13:30:09Z</time>
      </trkpt>
      <trkpt lat="43.81594" lon="7.25361">
        <ele>632.256</ele>
        <time>2009-05-07T13:30:17Z</time>
      </trkpt>
      <trkpt lat="43.81592" lon="7.2536">
        <ele>633.459</ele>
        <time>2009-05-07T13:30:23Z</time>
      </trkpt>
      <trkpt lat="43.81589" lon="7.2536">
        <ele>635.195</ele>
        <time>2009-05-07T13:30:32Z</time>
      </trkpt>
      <trkpt lat="43.81586" lon="7.2536">
        <ele>637.132</ele>
        <time>2009-05-07T13:30:41Z</time>
      </trkpt>
      <trkpt lat="43.81582" lon="7.25357">
        <ele>640.875</ele>
        <time>2009-05-07T13:30:53Z</time>
      </trkpt>
      <trkpt lat="43.81578" lon="7.25354">
        <ele>643.243</ele>
        <time>2009-05-07T13:31:03Z</time>
      </trkpt>
      <trkpt lat="43.81575" lon="7.25351">
        <ele>644.657</ele>
        <time>2009-05-07T13:31:12Z</time>
      </trkpt>
      <trkpt lat="43.81572" lon="7.25349">
        <ele>645.946</ele>
        <time>2009-05-07T13:31:20Z</time>
      </trkpt>
      <trkpt lat="43.8157" lon="7.25346">
        <ele>646.48</ele>
        <time>2009-05-07T13:31:27Z</time>
      </trkpt>
      <trkpt lat="43.81568" lon="7.25343">
        <ele>646.325</ele>
        <time>2009-05-07T13:31:37Z</time>
      </trkpt>
      <trkpt lat="43.81563" lon="7.25342">
        <ele>647.514</ele>
        <time>2009-05-07T13:31:45Z</time>
      </trkpt>
      <trkpt lat="43.81558" lon="7.25341">
        <ele>648.355</ele>
        <time>2009-05-07T13:31:53Z</time>
      </trkpt>
      <trkpt lat="43.81554" lon="7.25341">
        <ele>649.175</ele>
        <time>2009-05-07T13:32:01Z</time>
      </trkpt>
      <trkpt lat="43.81553" lon="7.25338">
        <ele>649.238</ele>
        <time>2009-05-07T13:32:08Z</time>
      </trkpt>
      <trkpt lat="43.81548" lon="7.25339">
        <ele>648.414</ele>
        <time>2009-05-07T13:34:40Z</time>
      </trkpt>
      <trkpt lat="43.81537" lon="7.25341">
        <ele>648.564</ele>
        <time>2009-05-07T13:34:49Z</time>
      </trkpt>
      <trkpt lat="43.81529" lon="7.25343">
        <ele>648.85</ele>
        <time>2009-05-07T13:34:57Z</time>
      </trkpt>
      <trkpt lat="43.81526" lon="7.25345">
        <ele>648.127</ele>
        <time>2009-05-07T13:35:05Z</time>
      </trkpt>
      <trkpt lat="43.81522" lon="7.25346">
        <ele>647.886</ele>
        <time>2009-05-07T13:35:12Z</time>
      </trkpt>
      <trkpt lat="43.81522" lon="7.25347">
        <ele>648.262</ele>
        <time>2009-05-07T13:35:26Z</time>
      </trkpt>
      <trkpt lat="43.81521" lon="7.25348">
        <ele>648.808</ele>
        <time>2009-05-07T13:35:32Z</time>
      </trkpt>
      <trkpt lat="43.81519" lon="7.25349">
        <ele>649.266</ele>
        <time>2009-05-07T13:35:39Z</time>
      </trkpt>
      <trkpt lat="43.81517" lon="7.25351">
        <ele>649.5</ele>
        <time>2009-05-07T13:35:49Z</time>
      </trkpt>
      <trkpt lat="43.81514" lon="7.25354">
        <ele>650.031</ele>
        <time>2009-05-07T13:35:58Z</time>
      </trkpt>
      <trkpt lat="43.8151" lon="7.25357">
        <ele>651.774</ele>
        <time>2009-05-07T13:36:08Z</time>
      </trkpt>
      <trkpt lat="43.81509" lon="7.25359">
        <ele>653.41</ele>
        <time>2009-05-07T13:36:14Z</time>
      </trkpt>
      <trkpt lat="43.81505" lon="7.25362">
        <ele>654.435</ele>
        <time>2009-05-07T13:36:24Z</time>
      </trkpt>
      <trkpt lat="43.81502" lon="7.25364">
        <ele>655.424</ele>
        <time>2009-05-07T13:36:33Z</time>
      </trkpt>
      <trkpt lat="43.81499" lon="7.25365">
        <ele>655.602</ele>
        <time>2009-05-07T13:36:52Z</time>
      </trkpt>
      <trkpt lat="43.81494" lon="7.25368">
        <ele>657.776</ele>
        <time>2009-05-07T13:37:00Z</time>
      </trkpt>
      <trkpt lat="43.81491" lon="7.2537">
        <ele>659.355</ele>
        <time>2009-05-07T13:37:08Z</time>
      </trkpt>
      <trkpt lat="43.81487" lon="7.25373">
        <ele>660.998</ele>
        <time>2009-05-07T13:37:16Z</time>
      </trkpt>
      <trkpt lat="43.81483" lon="7.25374">
        <ele>662.7</ele>
        <time>2009-05-07T13:37:24Z</time>
      </trkpt>
      <trkpt lat="43.81479" lon="7.25376">
        <ele>664.462</ele>
        <time>2009-05-07T13:37:32Z</time>
      </trkpt>
      <trkpt lat="43.81476" lon="7.25376">
        <ele>665.689</ele>
        <time>2009-05-07T13:37:39Z</time>
      </trkpt>
      <trkpt lat="43.81473" lon="7.25378">
        <ele>666.656</ele>
        <time>2009-05-07T13:37:48Z</time>
      </trkpt>
      <trkpt lat="43.8147" lon="7.2538">
        <ele>667.196</ele>
        <time>2009-05-07T13:37:55Z</time>
      </trkpt>
      <trkpt lat="43.81465" lon="7.25382">
        <ele>668.664</ele>
        <time>2009-05-07T13:38:03Z</time>
      </trkpt>
      <trkpt lat="43.8146" lon="7.25386">
        <ele>670.941</ele>
        <time>2009-05-07T13:38:12Z</time>
      </trkpt>
      <trkpt lat="43.81456" lon="7.2539">
        <ele>671.88</ele>
        <time>2009-05-07T13:38:19Z</time>
      </trkpt>
      <trkpt lat="43.8145" lon="7.25391">
        <ele>673.941</ele>
        <time>2009-05-07T13:38:28Z</time>
      </trkpt>
      <trkpt lat="43.81444" lon="7.25393">
        <ele>675.061</ele>
        <time>2009-05-07T13:38:37Z</time>
      </trkpt>
      <trkpt lat="43.81438" lon="7.25395">
        <ele>675.169</ele>
        <time>2009-05-07T13:38:45Z</time>
      </trkpt>
      <trkpt lat="43.81436" lon="7.25396">
        <ele>670.647</ele>
        <time>2009-05-07T13:38:54Z</time>
      </trkpt>
      <trkpt lat="43.81434" lon="7.25396">
        <ele>670.452</ele>
        <time>2009-05-07T13:41:20Z</time>
      </trkpt>
      <trkpt lat="43.81416" lon="7.25393">
        <ele>668.355</ele>
        <time>2009-05-07T13:41:26Z</time>
      </trkpt>
      <trkpt lat="43.81378" lon="7.25388">
        <ele>663.513</ele>
        <time>2009-05-07T13:41:32Z</time>
      </trkpt>
      <trkpt lat="43.81327" lon="7.25375">
        <ele>660.849</ele>
        <time>2009-05-07T13:41:39Z</time>
      </trkpt>
      <trkpt lat="43.8132" lon="7.25373">
        <ele>661.387</ele>
        <time>2009-05-07T13:41:40Z</time>
      </trkpt>
      <trkpt lat="43.813" lon="7.25372">
        <ele>662.58</ele>
        <time>2009-05-07T13:41:45Z</time>
      </trkpt>
      <trkpt lat="43.81294" lon="7.2537">
        <ele>663.33</ele>
        <time>2009-05-07T13:41:50Z</time>
      </trkpt>
      <trkpt lat="43.81289" lon="7.25368">
        <ele>663.922</ele>
        <time>2009-05-07T13:41:55Z</time>
      </trkpt>
      <trkpt lat="43.81283" lon="7.25363">
        <ele>664.267</ele>
        <time>2009-05-07T13:42:01Z</time>
      </trkpt>
      <trkpt lat="43.8128" lon="7.25361">
        <ele>664.618</ele>
        <time>2009-05-07T13:42:04Z</time>
      </trkpt>
      <trkpt lat="43.81271" lon="7.25358">
        <ele>667.487</ele>
        <time>2009-05-07T13:42:13Z</time>
      </trkpt>
      <trkpt lat="43.8127" lon="7.25358">
        <ele>668.278</ele>
        <time>2009-05-07T13:42:14Z</time>
      </trkpt>
      <trkpt lat="43.81264" lon="7.25355">
        <ele>669.85</ele>
        <time>2009-05-07T13:42:20Z</time>
      </trkpt>
      <trkpt lat="43.81262" lon="7.25354">
        <ele>669.955</ele>
        <time>2009-05-07T13:42:28Z</time>
      </trkpt>
      <trkpt lat="43.81249" lon="7.25344">
        <ele>673.221</ele>
        <time>2009-05-07T13:43:27Z</time>
      </trkpt>
      <trkpt lat="43.81245" lon="7.25346">
        <ele>674.873</ele>
        <time>2009-05-07T13:43:30Z</time>
      </trkpt>
      <trkpt lat="43.81233" lon="7.25345">
        <ele>676.911</ele>
        <time>2009-05-07T13:43:39Z</time>
      </trkpt>
      <trkpt lat="43.81227" lon="7.25344">
        <ele>679.35</ele>
        <time>2009-05-07T13:43:48Z</time>
      </trkpt>
      <trkpt lat="43.81223" lon="7.25341">
        <ele>680.03</ele>
        <time>2009-05-07T13:44:07Z</time>
      </trkpt>
      <trkpt lat="43.81211" lon="7.25336">
        <ele>680.208</ele>
        <time>2009-05-07T13:44:17Z</time>
      </trkpt>
      <trkpt lat="43.81201" lon="7.25331">
        <ele>681.472</ele>
        <time>2009-05-07T13:44:26Z</time>
      </trkpt>
      <trkpt lat="43.81195" lon="7.2533">
        <ele>683.545</ele>
        <time>2009-05-07T13:44:31Z</time>
      </trkpt>
      <trkpt lat="43.81191" lon="7.25328">
        <ele>685.105</ele>
        <time>2009-05-07T13:44:40Z</time>
      </trkpt>
      <trkpt lat="43.81187" lon="7.25327">
        <ele>685.674</ele>
        <time>2009-05-07T13:48:08Z</time>
      </trkpt>
      <trkpt lat="43.81178" lon="7.25322">
        <ele>686.923</ele>
        <time>2009-05-07T13:48:16Z</time>
      </trkpt>
      <trkpt lat="43.81172" lon="7.25319">
        <ele>686.696</ele>
        <time>2009-05-07T13:48:24Z</time>
      </trkpt>
      <trkpt lat="43.81168" lon="7.25316">
        <ele>686.368</ele>
        <time>2009-05-07T13:48:34Z</time>
      </trkpt>
      <trkpt lat="43.81158" lon="7.25309">
        <ele>686.471</ele>
        <time>2009-05-07T13:48:43Z</time>
      </trkpt>
      <trkpt lat="43.81147" lon="7.25301">
        <ele>688.427</ele>
        <time>2009-05-07T13:48:52Z</time>
      </trkpt>
      <trkpt lat="43.81139" lon="7.25292">
        <ele>691.143</ele>
        <time>2009-05-07T13:49:00Z</time>
      </trkpt>
      <trkpt lat="43.81131" lon="7.25289">
        <ele>692.527</ele>
        <time>2009-05-07T13:49:08Z</time>
      </trkpt>
      <trkpt lat="43.81125" lon="7.25287">
        <ele>693.837</ele>
        <time>2009-05-07T13:49:15Z</time>
      </trkpt>
      <trkpt lat="43.81117" lon="7.25279">
        <ele>695.495</ele>
        <time>2009-05-07T13:49:23Z</time>
      </trkpt>
      <trkpt lat="43.81105" lon="7.25272">
        <ele>697.997</ele>
        <time>2009-05-07T13:49:33Z</time>
      </trkpt>
      <trkpt lat="43.81104" lon="7.25271">
        <ele>698.098</ele>
        <time>2009-05-07T13:49:34Z</time>
      </trkpt>
      <trkpt lat="43.81098" lon="7.2526">
        <ele>700.417</ele>
        <time>2009-05-07T13:49:42Z</time>
      </trkpt>
      <trkpt lat="43.81097" lon="7.25258">
        <ele>700.629</ele>
        <time>2009-05-07T13:49:44Z</time>
      </trkpt>
      <trkpt lat="43.8109" lon="7.25256">
        <ele>701.599</ele>
        <time>2009-05-07T13:49:52Z</time>
      </trkpt>
      <trkpt lat="43.8109" lon="7.25256">
        <ele>700.622</ele>
        <time>2009-05-07T13:50:00Z</time>
      </trkpt>
      <trkpt lat="43.81087" lon="7.25254">
        <ele>700.954</ele>
        <time>2009-05-07T13:50:16Z</time>
      </trkpt>
      <trkpt lat="43.81083" lon="7.25254">
        <ele>703.171</ele>
        <time>2009-05-07T13:50:28Z</time>
      </trkpt>
      <trkpt lat="43.81084" lon="7.25254">
        <ele>704.035</ele>
        <time>2009-05-07T13:50:37Z</time>
      </trkpt>
      <trkpt lat="43.81082" lon="7.25251">
        <ele>703.73</ele>
        <time>2009-05-07T13:50:46Z</time>
      </trkpt>
      <trkpt lat="43.81082" lon="7.25251">
        <ele>704.1</ele>
        <time>2009-05-07T13:50:54Z</time>
      </trkpt>
      <trkpt lat="43.81081" lon="7.25248">
        <ele>704.244</ele>
        <time>2009-05-07T13:51:02Z</time>
      </trkpt>
      <trkpt lat="43.81073" lon="7.25248">
        <ele>705.774</ele>
        <time>2009-05-07T13:51:09Z</time>
      </trkpt>
      <trkpt lat="43.81067" lon="7.25245">
        <ele>705.95</ele>
        <time>2009-05-07T13:51:13Z</time>
      </trkpt>
      <trkpt lat="43.81064" lon="7.25242">
        <ele>706.515</ele>
        <time>2009-05-07T13:51:16Z</time>
      </trkpt>
      <trkpt lat="43.81052" lon="7.25229">
        <ele>709.717</ele>
        <time>2009-05-07T13:51:26Z</time>
      </trkpt>
      <trkpt lat="43.81045" lon="7.25221">
        <ele>710.314</ele>
        <time>2009-05-07T13:51:34Z</time>
      </trkpt>
      <trkpt lat="43.81041" lon="7.25211">
        <ele>712.274</ele>
        <time>2009-05-07T13:51:41Z</time>
      </trkpt>
      <trkpt lat="43.81034" lon="7.252">
        <ele>714.32</ele>
        <time>2009-05-07T13:51:49Z</time>
      </trkpt>
      <trkpt lat="43.81026" lon="7.25191">
        <ele>716.039</ele>
        <time>2009-05-07T13:51:57Z</time>
      </trkpt>
      <trkpt lat="43.81017" lon="7.2518">
        <ele>717.65</ele>
        <time>2009-05-07T13:52:06Z</time>
      </trkpt>
      <trkpt lat="43.8101" lon="7.25173">
        <ele>718.362</ele>
        <time>2009-05-07T13:52:13Z</time>
      </trkpt>
      <trkpt lat="43.81" lon="7.25161">
        <ele>718.074</ele>
        <time>2009-05-07T13:52:21Z</time>
      </trkpt>
      <trkpt lat="43.80996" lon="7.25155">
        <ele>718.648</ele>
        <time>2009-05-07T13:52:25Z</time>
      </trkpt>
      <trkpt lat="43.8099" lon="7.25145">
        <ele>719.736</ele>
        <time>2009-05-07T13:52:32Z</time>
      </trkpt>
      <trkpt lat="43.8098" lon="7.25133">
        <ele>722.639</ele>
        <time>2009-05-07T13:52:42Z</time>
      </trkpt>
      <trkpt lat="43.80971" lon="7.25122">
        <ele>724.959</ele>
        <time>2009-05-07T13:52:51Z</time>
      </trkpt>
      <trkpt lat="43.80963" lon="7.25114">
        <ele>728.571</ele>
        <time>2009-05-07T13:52:59Z</time>
      </trkpt>
      <trkpt lat="43.80957" lon="7.25108">
        <ele>730.009</ele>
        <time>2009-05-07T13:53:06Z</time>
      </trkpt>
      <trkpt lat="43.80955" lon="7.25107">
        <ele>730.165</ele>
        <time>2009-05-07T13:53:07Z</time>
      </trkpt>
      <trkpt lat="43.80949" lon="7.25104">
        <ele>731.435</ele>
        <time>2009-05-07T13:53:11Z</time>
      </trkpt>
      <trkpt lat="43.80937" lon="7.25095">
        <ele>733.299</ele>
        <time>2009-05-07T13:53:21Z</time>
      </trkpt>
      <trkpt lat="43.80927" lon="7.25089">
        <ele>734.133</ele>
        <time>2009-05-07T13:53:29Z</time>
      </trkpt>
      <trkpt lat="43.80915" lon="7.25084">
        <ele>735.365</ele>
        <time>2009-05-07T13:53:40Z</time>
      </trkpt>
      <trkpt lat="43.80905" lon="7.25081">
        <ele>735.149</ele>
        <time>2009-05-07T13:53:47Z</time>
      </trkpt>
      <trkpt lat="43.80895" lon="7.25077">
        <ele>735.768</ele>
        <time>2009-05-07T13:53:54Z</time>
      </trkpt>
      <trkpt lat="43.80888" lon="7.25078">
        <ele>735.847</ele>
        <time>2009-05-07T13:53:59Z</time>
      </trkpt>
      <trkpt lat="43.80875" lon="7.25076">
        <ele>737.544</ele>
        <time>2009-05-07T13:54:08Z</time>
      </trkpt>
      <trkpt lat="43.80863" lon="7.25071">
        <ele>738.506</ele>
        <time>2009-05-07T13:54:16Z</time>
      </trkpt>
      <trkpt lat="43.80859" lon="7.25068">
        <ele>737.901</ele>
        <time>2009-05-07T13:54:19Z</time>
      </trkpt>
      <trkpt lat="43.80848" lon="7.25056">
        <ele>739.053</ele>
        <time>2009-05-07T13:54:28Z</time>
      </trkpt>
      <trkpt lat="43.80846" lon="7.25055">
        <ele>739.271</ele>
        <time>2009-05-07T13:54:29Z</time>
      </trkpt>
      <trkpt lat="43.80842" lon="7.25051">
        <ele>740.573</ele>
        <time>2009-05-07T13:54:33Z</time>
      </trkpt>
      <trkpt lat="43.80839" lon="7.25048">
        <ele>741.76</ele>
        <time>2009-05-07T13:54:36Z</time>
      </trkpt>
      <trkpt lat="43.80833" lon="7.25054">
        <ele>743.409</ele>
        <time>2009-05-07T13:54:41Z</time>
      </trkpt>
      <trkpt lat="43.80832" lon="7.25062">
        <ele>744.207</ele>
        <time>2009-05-07T13:54:45Z</time>
      </trkpt>
      <trkpt lat="43.80825" lon="7.25074">
        <ele>745.808</ele>
        <time>2009-05-07T13:54:53Z</time>
      </trkpt>
      <trkpt lat="43.8082" lon="7.25079">
        <ele>746.124</ele>
        <time>2009-05-07T13:54:58Z</time>
      </trkpt>
      <trkpt lat="43.80813" lon="7.25089">
        <ele>746.689</ele>
        <time>2009-05-07T13:55:05Z</time>
      </trkpt>
      <trkpt lat="43.80801" lon="7.25101">
        <ele>747.237</ele>
        <time>2009-05-07T13:55:15Z</time>
      </trkpt>
      <trkpt lat="43.8079" lon="7.25109">
        <ele>746.25</ele>
        <time>2009-05-07T13:55:24Z</time>
      </trkpt>
      <trkpt lat="43.80779" lon="7.25114">
        <ele>746.508</ele>
        <time>2009-05-07T13:55:32Z</time>
      </trkpt>
      <trkpt lat="43.80773" lon="7.25118">
        <ele>746.655</ele>
        <time>2009-05-07T13:55:38Z</time>
      </trkpt>
      <trkpt lat="43.80761" lon="7.25123">
        <ele>744.493</ele>
        <time>2009-05-07T13:55:42Z</time>
      </trkpt>
      <trkpt lat="43.80752" lon="7.25124">
        <ele>743.548</ele>
        <time>2009-05-07T13:55:44Z</time>
      </trkpt>
      <trkpt lat="43.80728" lon="7.25119">
        <ele>741.976</ele>
        <time>2009-05-07T13:55:48Z</time>
      </trkpt>
      <trkpt lat="43.80702" lon="7.2511">
        <ele>739.251</ele>
        <time>2009-05-07T13:55:52Z</time>
      </trkpt>
      <trkpt lat="43.80689" lon="7.25108">
        <ele>738.324</ele>
        <time>2009-05-07T13:55:55Z</time>
      </trkpt>
      <trkpt lat="43.80655" lon="7.2511">
        <ele>738.623</ele>
        <time>2009-05-07T13:56:01Z</time>
      </trkpt>
      <trkpt lat="43.80647" lon="7.25111">
        <ele>738.58</ele>
        <time>2009-05-07T13:56:05Z</time>
      </trkpt>
      <trkpt lat="43.80634" lon="7.2512">
        <ele>740.422</ele>
        <time>2009-05-07T13:56:13Z</time>
      </trkpt>
      <trkpt lat="43.80621" lon="7.25126">
        <ele>739.847</ele>
        <time>2009-05-07T13:56:19Z</time>
      </trkpt>
      <trkpt lat="43.80598" lon="7.2513">
        <ele>740.572</ele>
        <time>2009-05-07T13:56:26Z</time>
      </trkpt>
      <trkpt lat="43.80558" lon="7.25132">
        <ele>738.373</ele>
        <time>2009-05-07T13:56:35Z</time>
      </trkpt>
      <trkpt lat="43.80526" lon="7.25134">
        <ele>735.481</ele>
        <time>2009-05-07T13:56:40Z</time>
      </trkpt>
      <trkpt lat="43.80505" lon="7.25141">
        <ele>734.03</ele>
        <time>2009-05-07T13:56:45Z</time>
      </trkpt>
      <trkpt lat="43.80487" lon="7.25147">
        <ele>736.165</ele>
        <time>2009-05-07T13:56:51Z</time>
      </trkpt>
      <trkpt lat="43.80467" lon="7.25154">
        <ele>737.29</ele>
        <time>2009-05-07T13:56:57Z</time>
      </trkpt>
      <trkpt lat="43.8044" lon="7.25165">
        <ele>739.496</ele>
        <time>2009-05-07T13:57:05Z</time>
      </trkpt>
      <trkpt lat="43.80423" lon="7.25169">
        <ele>738.873</ele>
        <time>2009-05-07T13:57:09Z</time>
      </trkpt>
      <trkpt lat="43.80413" lon="7.25173">
        <ele>737.822</ele>
        <time>2009-05-07T13:57:11Z</time>
      </trkpt>
      <trkpt lat="43.8039" lon="7.25181">
        <ele>736.209</ele>
        <time>2009-05-07T13:57:15Z</time>
      </trkpt>
      <trkpt lat="43.80356" lon="7.25184">
        <ele>730.913</ele>
        <time>2009-05-07T13:57:21Z</time>
      </trkpt>
      <trkpt lat="43.80318" lon="7.25171">
        <ele>716.03</ele>
        <time>2009-05-07T13:57:26Z</time>
      </trkpt>
      <trkpt lat="43.80275" lon="7.25146">
        <ele>713.263</ele>
        <time>2009-05-07T13:57:32Z</time>
      </trkpt>
      <trkpt lat="43.80262" lon="7.25128">
        <ele>715.257</ele>
        <time>2009-05-07T13:57:36Z</time>
      </trkpt>
      <trkpt lat="43.80248" lon="7.25112">
        <ele>714.155</ele>
        <time>2009-05-07T13:57:41Z</time>
      </trkpt>
      <trkpt lat="43.8024" lon="7.25105">
        <ele>713.135</ele>
        <time>2009-05-07T13:57:43Z</time>
      </trkpt>
      <trkpt lat="43.80216" lon="7.25074">
        <ele>711.975</ele>
        <time>2009-05-07T13:57:50Z</time>
      </trkpt>
      <trkpt lat="43.80201" lon="7.25034">
        <ele>713.63</ele>
        <time>2009-05-07T13:57:58Z</time>
      </trkpt>
      <trkpt lat="43.80188" lon="7.25015">
        <ele>708.957</ele>
        <time>2009-05-07T13:58:02Z</time>
      </trkpt>
      <trkpt lat="43.80164" lon="7.24988">
        <ele>704.482</ele>
        <time>2009-05-07T13:58:06Z</time>
      </trkpt>
      <trkpt lat="43.80144" lon="7.24981">
        <ele>699.945</ele>
        <time>2009-05-07T13:58:11Z</time>
      </trkpt>
      <trkpt lat="43.80128" lon="7.24977">
        <ele>698.398</ele>
        <time>2009-05-07T13:58:15Z</time>
      </trkpt>
      <trkpt lat="43.80122" lon="7.24969">
        <ele>698.659</ele>
        <time>2009-05-07T13:58:17Z</time>
      </trkpt>
      <trkpt lat="43.80113" lon="7.24952">
        <ele>698.536</ele>
        <time>2009-05-07T13:58:22Z</time>
      </trkpt>
      <trkpt lat="43.80096" lon="7.24921">
        <ele>696.093</ele>
        <time>2009-05-07T13:58:29Z</time>
      </trkpt>
      <trkpt lat="43.80095" lon="7.24921">
        <ele>695.77</ele>
        <time>2009-05-07T13:58:34Z</time>
      </trkpt>
      <trkpt lat="43.80091" lon="7.24912">
        <ele>696.874</ele>
        <time>2009-05-07T14:00:11Z</time>
      </trkpt>
      <trkpt lat="43.80086" lon="7.24896">
        <ele>694.502</ele>
        <time>2009-05-07T14:00:17Z</time>
      </trkpt>
      <trkpt lat="43.80082" lon="7.24886">
        <ele>692.095</ele>
        <time>2009-05-07T14:00:19Z</time>
      </trkpt>
      <trkpt lat="43.80075" lon="7.24842">
        <ele>691.249</ele>
        <time>2009-05-07T14:00:24Z</time>
      </trkpt>
      <trkpt lat="43.80075" lon="7.24835">
        <ele>690.977</ele>
        <time>2009-05-07T14:00:25Z</time>
      </trkpt>
      <trkpt lat="43.80078" lon="7.24821">
        <ele>690.568</ele>
        <time>2009-05-07T14:00:27Z</time>
      </trkpt>
      <trkpt lat="43.80075" lon="7.24801">
        <ele>690.313</ele>
        <time>2009-05-07T14:00:30Z</time>
      </trkpt>
      <trkpt lat="43.80073" lon="7.2479">
        <ele>689.215</ele>
        <time>2009-05-07T14:00:32Z</time>
      </trkpt>
      <trkpt lat="43.80071" lon="7.24763">
        <ele>686.045</ele>
        <time>2009-05-07T14:00:36Z</time>
      </trkpt>
      <trkpt lat="43.80065" lon="7.24735">
        <ele>683.704</ele>
        <time>2009-05-07T14:00:40Z</time>
      </trkpt>
      <trkpt lat="43.80057" lon="7.24711">
        <ele>682.244</ele>
        <time>2009-05-07T14:00:43Z</time>
      </trkpt>
      <trkpt lat="43.80042" lon="7.24672">
        <ele>676.79</ele>
        <time>2009-05-07T14:00:48Z</time>
      </trkpt>
      <trkpt lat="43.80033" lon="7.24669">
        <ele>676.113</ele>
        <time>2009-05-07T14:00:51Z</time>
      </trkpt>
      <trkpt lat="43.80024" lon="7.24678">
        <ele>676.744</ele>
        <time>2009-05-07T14:00:56Z</time>
      </trkpt>
      <trkpt lat="43.8002" lon="7.24677">
        <ele>677.315</ele>
        <time>2009-05-07T14:01:03Z</time>
      </trkpt>
      <trkpt lat="43.80016" lon="7.24676">
        <ele>678.94</ele>
        <time>2009-05-07T14:01:29Z</time>
      </trkpt>
      <trkpt lat="43.80013" lon="7.24678">
        <ele>679.159</ele>
        <time>2009-05-07T14:01:33Z</time>
      </trkpt>
      <trkpt lat="43.80009" lon="7.24679">
        <ele>680.414</ele>
        <time>2009-05-07T14:01:40Z</time>
      </trkpt>
      <trkpt lat="43.80007" lon="7.24682">
        <ele>683.495</ele>
        <time>2009-05-07T14:01:52Z</time>
      </trkpt>
      <trkpt lat="43.80002" lon="7.24686">
        <ele>685.044</ele>
        <time>2009-05-07T14:01:59Z</time>
      </trkpt>
      <trkpt lat="43.80001" lon="7.24686">
        <ele>684.839</ele>
        <time>2009-05-07T14:02:03Z</time>
      </trkpt>
      <trkpt lat="43.79994" lon="7.24689">
        <ele>685.944</ele>
        <time>2009-05-07T14:02:12Z</time>
      </trkpt>
      <trkpt lat="43.79991" lon="7.24687">
        <ele>684.095</ele>
        <time>2009-05-07T14:02:20Z</time>
      </trkpt>
      <trkpt lat="43.79986" lon="7.24687">
        <ele>683.51</ele>
        <time>2009-05-07T14:02:29Z</time>
      </trkpt>
      <trkpt lat="43.79979" lon="7.24687">
        <ele>684.47</ele>
        <time>2009-05-07T14:02:35Z</time>
      </trkpt>
      <trkpt lat="43.79968" lon="7.24688">
        <ele>685.679</ele>
        <time>2009-05-07T14:02:42Z</time>
      </trkpt>
      <trkpt lat="43.79957" lon="7.24691">
        <ele>686.629</ele>
        <time>2009-05-07T14:02:49Z</time>
      </trkpt>
      <trkpt lat="43.79955" lon="7.24691">
        <ele>686.432</ele>
        <time>2009-05-07T14:02:50Z</time>
      </trkpt>
      <trkpt lat="43.79945" lon="7.24695">
        <ele>687.354</ele>
        <time>2009-05-07T14:02:58Z</time>
      </trkpt>
      <trkpt lat="43.79938" lon="7.24698">
        <ele>689.281</ele>
        <time>2009-05-07T14:03:06Z</time>
      </trkpt>
      <trkpt lat="43.79934" lon="7.24701">
        <ele>690.138</ele>
        <time>2009-05-07T14:03:14Z</time>
      </trkpt>
      <trkpt lat="43.79931" lon="7.24701">
        <ele>690.273</ele>
        <time>2009-05-07T14:03:25Z</time>
      </trkpt>
      <trkpt lat="43.79923" lon="7.24703">
        <ele>691.137</ele>
        <time>2009-05-07T14:03:32Z</time>
      </trkpt>
      <trkpt lat="43.79919" lon="7.24703">
        <ele>692.243</ele>
        <time>2009-05-07T14:03:40Z</time>
      </trkpt>
      <trkpt lat="43.79918" lon="7.24704">
        <ele>690.667</ele>
        <time>2009-05-07T14:03:49Z</time>
      </trkpt>
      <trkpt lat="43.79913" lon="7.24705">
        <ele>691.383</ele>
        <time>2009-05-07T14:03:57Z</time>
      </trkpt>
      <trkpt lat="43.79902" lon="7.24709">
        <ele>692.546</ele>
        <time>2009-05-07T14:04:05Z</time>
      </trkpt>
      <trkpt lat="43.79895" lon="7.24709">
        <ele>693.464</ele>
        <time>2009-05-07T14:04:12Z</time>
      </trkpt>
      <trkpt lat="43.79891" lon="7.24713">
        <ele>693.507</ele>
        <time>2009-05-07T14:04:18Z</time>
      </trkpt>
      <trkpt lat="43.79883" lon="7.24715">
        <ele>693.902</ele>
        <time>2009-05-07T14:04:27Z</time>
      </trkpt>
      <trkpt lat="43.79878" lon="7.24716">
        <ele>694.81</ele>
        <time>2009-05-07T14:04:34Z</time>
      </trkpt>
      <trkpt lat="43.79872" lon="7.24719">
        <ele>697.361</ele>
        <time>2009-05-07T14:04:41Z</time>
      </trkpt>
      <trkpt lat="43.79867" lon="7.24721">
        <ele>698.557</ele>
        <time>2009-05-07T14:04:48Z</time>
      </trkpt>
      <trkpt lat="43.79861" lon="7.24727">
        <ele>700.833</ele>
        <time>2009-05-07T14:04:58Z</time>
      </trkpt>
      <trkpt lat="43.79861" lon="7.24727">
        <ele>701.336</ele>
        <time>2009-05-07T14:05:01Z</time>
      </trkpt>
      <trkpt lat="43.79852" lon="7.24733">
        <ele>701.563</ele>
        <time>2009-05-07T14:05:08Z</time>
      </trkpt>
      <trkpt lat="43.79841" lon="7.2474">
        <ele>703.791</ele>
        <time>2009-05-07T14:05:17Z</time>
      </trkpt>
      <trkpt lat="43.79834" lon="7.24746">
        <ele>704.633</ele>
        <time>2009-05-07T14:05:23Z</time>
      </trkpt>
      <trkpt lat="43.79826" lon="7.24752">
        <ele>705.175</ele>
        <time>2009-05-07T14:05:29Z</time>
      </trkpt>
      <trkpt lat="43.79821" lon="7.24757">
        <ele>706.52</ele>
        <time>2009-05-07T14:05:37Z</time>
      </trkpt>
      <trkpt lat="43.79819" lon="7.24758">
        <ele>706.877</ele>
        <time>2009-05-07T14:05:49Z</time>
      </trkpt>
      <trkpt lat="43.79816" lon="7.24756">
        <ele>707.474</ele>
        <time>2009-05-07T14:05:58Z</time>
      </trkpt>
      <trkpt lat="43.79813" lon="7.24756">
        <ele>707.726</ele>
        <time>2009-05-07T14:06:04Z</time>
      </trkpt>
      <trkpt lat="43.79812" lon="7.24757">
        <ele>707.77</ele>
        <time>2009-05-07T14:07:25Z</time>
      </trkpt>
      <trkpt lat="43.79804" lon="7.24764">
        <ele>707.539</ele>
        <time>2009-05-07T14:07:31Z</time>
      </trkpt>
      <trkpt lat="43.79785" lon="7.24778">
        <ele>705.654</ele>
        <time>2009-05-07T14:07:39Z</time>
      </trkpt>
      <trkpt lat="43.79758" lon="7.24791">
        <ele>704.098</ele>
        <time>2009-05-07T14:07:46Z</time>
      </trkpt>
      <trkpt lat="43.79725" lon="7.24809">
        <ele>700.628</ele>
        <time>2009-05-07T14:07:51Z</time>
      </trkpt>
      <trkpt lat="43.79683" lon="7.24855">
        <ele>697.589</ele>
        <time>2009-05-07T14:07:57Z</time>
      </trkpt>
      <trkpt lat="43.79662" lon="7.24879">
        <ele>694.781</ele>
        <time>2009-05-07T14:08:01Z</time>
      </trkpt>
      <trkpt lat="43.79639" lon="7.249">
        <ele>692.965</ele>
        <time>2009-05-07T14:08:06Z</time>
      </trkpt>
      <trkpt lat="43.79631" lon="7.24906">
        <ele>693.482</ele>
        <time>2009-05-07T14:08:08Z</time>
      </trkpt>
      <trkpt lat="43.7959" lon="7.24912">
        <ele>692.715</ele>
        <time>2009-05-07T14:08:14Z</time>
      </trkpt>
      <trkpt lat="43.79536" lon="7.24908">
        <ele>689.258</ele>
        <time>2009-05-07T14:08:20Z</time>
      </trkpt>
      <trkpt lat="43.79484" lon="7.24895">
        <ele>684.143</ele>
        <time>2009-05-07T14:08:26Z</time>
      </trkpt>
      <trkpt lat="43.79415" lon="7.24858">
        <ele>676.744</ele>
        <time>2009-05-07T14:08:34Z</time>
      </trkpt>
      <trkpt lat="43.79385" lon="7.24845">
        <ele>676.627</ele>
        <time>2009-05-07T14:08:38Z</time>
      </trkpt>
      <trkpt lat="43.7936" lon="7.24835">
        <ele>673.609</ele>
        <time>2009-05-07T14:08:43Z</time>
      </trkpt>
      <trkpt lat="43.79357" lon="7.24834">
        <ele>674.535</ele>
        <time>2009-05-07T14:08:47Z</time>
      </trkpt>
      <trkpt lat="43.79357" lon="7.24835">
        <ele>674.617</ele>
        <time>2009-05-07T14:08:55Z</time>
      </trkpt>
      <trkpt lat="43.79339" lon="7.24834">
        <ele>671.518</ele>
        <time>2009-05-07T14:09:01Z</time>
      </trkpt>
      <trkpt lat="43.79335" lon="7.24831">
        <ele>671.801</ele>
        <time>2009-05-07T14:09:06Z</time>
      </trkpt>
      <trkpt lat="43.79325" lon="7.24827">
        <ele>671.855</ele>
        <time>2009-05-07T14:09:16Z</time>
      </trkpt>
      <trkpt lat="43.79301" lon="7.2481">
        <ele>669.861</ele>
        <time>2009-05-07T14:09:24Z</time>
      </trkpt>
      <trkpt lat="43.79286" lon="7.24789">
        <ele>666.818</ele>
        <time>2009-05-07T14:09:30Z</time>
      </trkpt>
      <trkpt lat="43.79283" lon="7.24787">
        <ele>665.479</ele>
        <time>2009-05-07T14:09:31Z</time>
      </trkpt>
      <trkpt lat="43.79252" lon="7.24779">
        <ele>659.717</ele>
        <time>2009-05-07T14:09:37Z</time>
      </trkpt>
      <trkpt lat="43.79225" lon="7.24777">
        <ele>655.684</ele>
        <time>2009-05-07T14:09:41Z</time>
      </trkpt>
      <trkpt lat="43.79193" lon="7.24759">
        <ele>650.945</ele>
        <time>2009-05-07T14:09:47Z</time>
      </trkpt>
      <trkpt lat="43.7919" lon="7.24755">
        <ele>650.647</ele>
        <time>2009-05-07T14:09:48Z</time>
      </trkpt>
      <trkpt lat="43.79167" lon="7.24748">
        <ele>647.25</ele>
        <time>2009-05-07T14:09:55Z</time>
      </trkpt>
      <trkpt lat="43.79147" lon="7.24747">
        <ele>645.335</ele>
        <time>2009-05-07T14:10:03Z</time>
      </trkpt>
      <trkpt lat="43.79133" lon="7.24753">
        <ele>640.295</ele>
        <time>2009-05-07T14:10:09Z</time>
      </trkpt>
      <trkpt lat="43.79115" lon="7.24756">
        <ele>637.481</ele>
        <time>2009-05-07T14:10:16Z</time>
      </trkpt>
      <trkpt lat="43.79093" lon="7.24759">
        <ele>638.872</ele>
        <time>2009-05-07T14:10:24Z</time>
      </trkpt>
      <trkpt lat="43.79072" lon="7.24765">
        <ele>634.92</ele>
        <time>2009-05-07T14:10:32Z</time>
      </trkpt>
      <trkpt lat="43.79058" lon="7.24767">
        <ele>627.343</ele>
        <time>2009-05-07T14:10:38Z</time>
      </trkpt>
      <trkpt lat="43.79038" lon="7.24773">
        <ele>621.638</ele>
        <time>2009-05-07T14:10:45Z</time>
      </trkpt>
      <trkpt lat="43.79021" lon="7.24777">
        <ele>619.171</ele>
        <time>2009-05-07T14:10:50Z</time>
      </trkpt>
      <trkpt lat="43.79002" lon="7.24783">
        <ele>617.584</ele>
        <time>2009-05-07T14:10:56Z</time>
      </trkpt>
      <trkpt lat="43.78989" lon="7.24785">
        <ele>616.699</ele>
        <time>2009-05-07T14:11:01Z</time>
      </trkpt>
      <trkpt lat="43.78986" lon="7.24786">
        <ele>614.785</ele>
        <time>2009-05-07T14:11:03Z</time>
      </trkpt>
      <trkpt lat="43.78961" lon="7.24794">
        <ele>609.623</ele>
        <time>2009-05-07T14:11:08Z</time>
      </trkpt>
      <trkpt lat="43.7895" lon="7.248">
        <ele>608.205</ele>
        <time>2009-05-07T14:11:12Z</time>
      </trkpt>
      <trkpt lat="43.78946" lon="7.24797">
        <ele>606.642</ele>
        <time>2009-05-07T14:15:34Z</time>
      </trkpt>
      <trkpt lat="43.78944" lon="7.24793">
        <ele>605.026</ele>
        <time>2009-05-07T14:15:46Z</time>
      </trkpt>
      <trkpt lat="43.78944" lon="7.24792">
        <ele>604.984</ele>
        <time>2009-05-07T14:15:47Z</time>
      </trkpt>
      <trkpt lat="43.7894" lon="7.24789">
        <ele>603.691</ele>
        <time>2009-05-07T14:15:53Z</time>
      </trkpt>
      <trkpt lat="43.78939" lon="7.24788">
        <ele>603.489</ele>
        <time>2009-05-07T14:16:01Z</time>
      </trkpt>
      <trkpt lat="43.78936" lon="7.24784">
        <ele>602.634</ele>
        <time>2009-05-07T14:16:06Z</time>
      </trkpt>
      <trkpt lat="43.7893" lon="7.24776">
        <ele>601.092</ele>
        <time>2009-05-07T14:16:11Z</time>
      </trkpt>
      <trkpt lat="43.78916" lon="7.24755">
        <ele>598.947</ele>
        <time>2009-05-07T14:16:18Z</time>
      </trkpt>
      <trkpt lat="43.78909" lon="7.24734">
        <ele>596.643</ele>
        <time>2009-05-07T14:16:24Z</time>
      </trkpt>
      <trkpt lat="43.78906" lon="7.24709">
        <ele>591.308</ele>
        <time>2009-05-07T14:16:29Z</time>
      </trkpt>
      <trkpt lat="43.78902" lon="7.24691">
        <ele>587.107</ele>
        <time>2009-05-07T14:16:32Z</time>
      </trkpt>
      <trkpt lat="43.78886" lon="7.24675">
        <ele>582.112</ele>
        <time>2009-05-07T14:16:38Z</time>
      </trkpt>
      <trkpt lat="43.78881" lon="7.2467">
        <ele>578.946</ele>
        <time>2009-05-07T14:16:42Z</time>
      </trkpt>
      <trkpt lat="43.78885" lon="7.24662">
        <ele>575.909</ele>
        <time>2009-05-07T14:16:47Z</time>
      </trkpt>
      <trkpt lat="43.78884" lon="7.24658">
        <ele>575.609</ele>
        <time>2009-05-07T14:16:51Z</time>
      </trkpt>
      <trkpt lat="43.78882" lon="7.24659">
        <ele>574.273</ele>
        <time>2009-05-07T14:17:00Z</time>
      </trkpt>
      <trkpt lat="43.78868" lon="7.2466">
        <ele>572.735</ele>
        <time>2009-05-07T14:17:06Z</time>
      </trkpt>
      <trkpt lat="43.7886" lon="7.24674">
        <ele>571.113</ele>
        <time>2009-05-07T14:17:13Z</time>
      </trkpt>
      <trkpt lat="43.78852" lon="7.24687">
        <ele>571.342</ele>
        <time>2009-05-07T14:17:19Z</time>
      </trkpt>
      <trkpt lat="43.78847" lon="7.24709">
        <ele>571.145</ele>
        <time>2009-05-07T14:17:27Z</time>
      </trkpt>
      <trkpt lat="43.78839" lon="7.24731">
        <ele>573.188</ele>
        <time>2009-05-07T14:17:35Z</time>
      </trkpt>
      <trkpt lat="43.78835" lon="7.24749">
        <ele>574.681</ele>
        <time>2009-05-07T14:17:42Z</time>
      </trkpt>
      <trkpt lat="43.78832" lon="7.24768">
        <ele>574.737</ele>
        <time>2009-05-07T14:17:49Z</time>
      </trkpt>
      <trkpt lat="43.78827" lon="7.24794">
        <ele>575.465</ele>
        <time>2009-05-07T14:17:58Z</time>
      </trkpt>
      <trkpt lat="43.78822" lon="7.2482">
        <ele>579.735</ele>
        <time>2009-05-07T14:18:07Z</time>
      </trkpt>
      <trkpt lat="43.78822" lon="7.24841">
        <ele>578.143</ele>
        <time>2009-05-07T14:18:14Z</time>
      </trkpt>
      <trkpt lat="43.7882" lon="7.24864">
        <ele>577.64</ele>
        <time>2009-05-07T14:18:22Z</time>
      </trkpt>
      <trkpt lat="43.78821" lon="7.24881">
        <ele>579.712</ele>
        <time>2009-05-07T14:18:29Z</time>
      </trkpt>
      <trkpt lat="43.78819" lon="7.24892">
        <ele>582.042</ele>
        <time>2009-05-07T14:18:35Z</time>
      </trkpt>
      <trkpt lat="43.78818" lon="7.24897">
        <ele>582.398</ele>
        <time>2009-05-07T14:18:37Z</time>
      </trkpt>
      <trkpt lat="43.78814" lon="7.24919">
        <ele>585.409</ele>
        <time>2009-05-07T14:18:47Z</time>
      </trkpt>
      <trkpt lat="43.78814" lon="7.24941">
        <ele>585.093</ele>
        <time>2009-05-07T14:18:57Z</time>
      </trkpt>
      <trkpt lat="43.78816" lon="7.24948">
        <ele>586.795</ele>
        <time>2009-05-07T14:19:04Z</time>
      </trkpt>
      <trkpt lat="43.78816" lon="7.24949">
        <ele>587.279</ele>
        <time>2009-05-07T14:19:14Z</time>
      </trkpt>
      <trkpt lat="43.78816" lon="7.24943">
        <ele>591.415</ele>
        <time>2009-05-07T15:00:27Z</time>
      </trkpt>
      <trkpt lat="43.78816" lon="7.24942">
        <ele>591.155</ele>
        <time>2009-05-07T15:00:29Z</time>
      </trkpt>
      <trkpt lat="43.78816" lon="7.2493">
        <ele>591.801</ele>
        <time>2009-05-07T15:00:33Z</time>
      </trkpt>
      <trkpt lat="43.7882" lon="7.24895">
        <ele>591.211</ele>
        <time>2009-05-07T15:00:38Z</time>
      </trkpt>
      <trkpt lat="43.78823" lon="7.24884">
        <ele>591.738</ele>
        <time>2009-05-07T15:00:40Z</time>
      </trkpt>
      <trkpt lat="43.78823" lon="7.24878">
        <ele>591.147</ele>
        <time>2009-05-07T15:00:42Z</time>
      </trkpt>
      <trkpt lat="43.78821" lon="7.24882">
        <ele>591.017</ele>
        <time>2009-05-07T15:00:47Z</time>
      </trkpt>
      <trkpt lat="43.78817" lon="7.24899">
        <ele>591.052</ele>
        <time>2009-05-07T15:00:54Z</time>
      </trkpt>
      <trkpt lat="43.78808" lon="7.24933">
        <ele>590.353</ele>
        <time>2009-05-07T15:01:02Z</time>
      </trkpt>
      <trkpt lat="43.78802" lon="7.24957">
        <ele>588.942</ele>
        <time>2009-05-07T15:01:08Z</time>
      </trkpt>
      <trkpt lat="43.78802" lon="7.24982">
        <ele>587.624</ele>
        <time>2009-05-07T15:01:14Z</time>
      </trkpt>
      <trkpt lat="43.78801" lon="7.24997">
        <ele>587.476</ele>
        <time>2009-05-07T15:01:18Z</time>
      </trkpt>
      <trkpt lat="43.78797" lon="7.25015">
        <ele>587.621</ele>
        <time>2009-05-07T15:01:22Z</time>
      </trkpt>
      <trkpt lat="43.78773" lon="7.25036">
        <ele>584.985</ele>
        <time>2009-05-07T15:01:26Z</time>
      </trkpt>
      <trkpt lat="43.78729" lon="7.25048">
        <ele>581.199</ele>
        <time>2009-05-07T15:01:31Z</time>
      </trkpt>
      <trkpt lat="43.78721" lon="7.25051">
        <ele>581.009</ele>
        <time>2009-05-07T15:01:32Z</time>
      </trkpt>
      <trkpt lat="43.78664" lon="7.25071">
        <ele>579.201</ele>
        <time>2009-05-07T15:01:39Z</time>
      </trkpt>
      <trkpt lat="43.78642" lon="7.25076">
        <ele>579.14</ele>
        <time>2009-05-07T15:01:43Z</time>
      </trkpt>
      <trkpt lat="43.78626" lon="7.25082">
        <ele>579.492</ele>
        <time>2009-05-07T15:01:48Z</time>
      </trkpt>
      <trkpt lat="43.78621" lon="7.25084">
        <ele>579.847</ele>
        <time>2009-05-07T15:01:53Z</time>
      </trkpt>
      <trkpt lat="43.78609" lon="7.25086">
        <ele>580.999</ele>
        <time>2009-05-07T15:02:01Z</time>
      </trkpt>
      <trkpt lat="43.78605" lon="7.25087">
        <ele>581.094</ele>
        <time>2009-05-07T15:02:05Z</time>
      </trkpt>
      <trkpt lat="43.78605" lon="7.25087">
        <ele>582.001</ele>
        <time>2009-05-07T15:02:09Z</time>
      </trkpt>
      <trkpt lat="43.7863" lon="7.25078">
        <ele>580.866</ele>
        <time>2009-05-07T15:02:16Z</time>
      </trkpt>
      <trkpt lat="43.78667" lon="7.25072">
        <ele>577.688</ele>
        <time>2009-05-07T15:02:23Z</time>
      </trkpt>
      <trkpt lat="43.78681" lon="7.25051">
        <ele>577.598</ele>
        <time>2009-05-07T15:02:27Z</time>
      </trkpt>
      <trkpt lat="43.78681" lon="7.25044">
        <ele>577.723</ele>
        <time>2009-05-07T15:02:28Z</time>
      </trkpt>
      <trkpt lat="43.78677" lon="7.25005">
        <ele>575.607</ele>
        <time>2009-05-07T15:02:35Z</time>
      </trkpt>
      <trkpt lat="43.78671" lon="7.24954">
        <ele>571.288</ele>
        <time>2009-05-07T15:02:43Z</time>
      </trkpt>
      <trkpt lat="43.78668" lon="7.24934">
        <ele>568.791</ele>
        <time>2009-05-07T15:02:46Z</time>
      </trkpt>
      <trkpt lat="43.78653" lon="7.24916">
        <ele>565.643</ele>
        <time>2009-05-07T15:02:50Z</time>
      </trkpt>
      <trkpt lat="43.78642" lon="7.24919">
        <ele>565.418</ele>
        <time>2009-05-07T15:02:52Z</time>
      </trkpt>
      <trkpt lat="43.78607" lon="7.24928">
        <ele>567.716</ele>
        <time>2009-05-07T15:03:00Z</time>
      </trkpt>
      <trkpt lat="43.78585" lon="7.2494">
        <ele>567.266</ele>
        <time>2009-05-07T15:03:07Z</time>
      </trkpt>
      <trkpt lat="43.78553" lon="7.24965">
        <ele>567.022</ele>
        <time>2009-05-07T15:03:16Z</time>
      </trkpt>
      <trkpt lat="43.78541" lon="7.24974">
        <ele>567.098</ele>
        <time>2009-05-07T15:03:19Z</time>
      </trkpt>
      <trkpt lat="43.78528" lon="7.24985">
        <ele>567.444</ele>
        <time>2009-05-07T15:03:23Z</time>
      </trkpt>
      <trkpt lat="43.78506" lon="7.25011">
        <ele>568.666</ele>
        <time>2009-05-07T15:03:32Z</time>
      </trkpt>
      <trkpt lat="43.78492" lon="7.25038">
        <ele>566.962</ele>
        <time>2009-05-07T15:03:39Z</time>
      </trkpt>
      <trkpt lat="43.78463" lon="7.2508">
        <ele>560.644</ele>
        <time>2009-05-07T15:03:47Z</time>
      </trkpt>
      <trkpt lat="43.7843" lon="7.25117">
        <ele>554.532</ele>
        <time>2009-05-07T15:03:53Z</time>
      </trkpt>
      <trkpt lat="43.78389" lon="7.25145">
        <ele>552.048</ele>
        <time>2009-05-07T15:03:58Z</time>
      </trkpt>
      <trkpt lat="43.78339" lon="7.25175">
        <ele>549.198</ele>
        <time>2009-05-07T15:04:03Z</time>
      </trkpt>
      <trkpt lat="43.78278" lon="7.25214">
        <ele>542.25</ele>
        <time>2009-05-07T15:04:08Z</time>
      </trkpt>
      <trkpt lat="43.78235" lon="7.25244">
        <ele>535.622</ele>
        <time>2009-05-07T15:04:12Z</time>
      </trkpt>
      <trkpt lat="43.78223" lon="7.25253">
        <ele>532.817</ele>
        <time>2009-05-07T15:04:15Z</time>
      </trkpt>
      <trkpt lat="43.78219" lon="7.25257">
        <ele>529.562</ele>
        <time>2009-05-07T15:04:17Z</time>
      </trkpt>
      <trkpt lat="43.78216" lon="7.25258">
        <ele>527.957</ele>
        <time>2009-05-07T15:04:20Z</time>
      </trkpt>
      <trkpt lat="43.78205" lon="7.25269">
        <ele>525.288</ele>
        <time>2009-05-07T15:04:26Z</time>
      </trkpt>
      <trkpt lat="43.78198" lon="7.25284">
        <ele>524.873</ele>
        <time>2009-05-07T15:04:30Z</time>
      </trkpt>
      <trkpt lat="43.78188" lon="7.2528">
        <ele>525.597</ele>
        <time>2009-05-07T15:04:36Z</time>
      </trkpt>
      <trkpt lat="43.78184" lon="7.25275">
        <ele>525.47</ele>
        <time>2009-05-07T15:04:38Z</time>
      </trkpt>
      <trkpt lat="43.78168" lon="7.25262">
        <ele>527.902</ele>
        <time>2009-05-07T15:04:45Z</time>
      </trkpt>
      <trkpt lat="43.78161" lon="7.25252">
        <ele>532.281</ele>
        <time>2009-05-07T15:04:53Z</time>
      </trkpt>
      <trkpt lat="43.78159" lon="7.25237">
        <ele>535.519</ele>
        <time>2009-05-07T15:05:01Z</time>
      </trkpt>
      <trkpt lat="43.78153" lon="7.25235">
        <ele>538.936</ele>
        <time>2009-05-07T15:05:08Z</time>
      </trkpt>
      <trkpt lat="43.7815" lon="7.25239">
        <ele>538.744</ele>
        <time>2009-05-07T15:05:11Z</time>
      </trkpt>
      <trkpt lat="43.78137" lon="7.25252">
        <ele>541.211</ele>
        <time>2009-05-07T15:05:24Z</time>
      </trkpt>
      <trkpt lat="43.78132" lon="7.25256">
        <ele>541.596</ele>
        <time>2009-05-07T15:05:28Z</time>
      </trkpt>
      <trkpt lat="43.78123" lon="7.25262">
        <ele>543.44</ele>
        <time>2009-05-07T15:05:37Z</time>
      </trkpt>
      <trkpt lat="43.78117" lon="7.25267">
        <ele>544.045</ele>
        <time>2009-05-07T15:05:43Z</time>
      </trkpt>
      <trkpt lat="43.78108" lon="7.25276">
        <ele>544.73</ele>
        <time>2009-05-07T15:05:53Z</time>
      </trkpt>
      <trkpt lat="43.78096" lon="7.25288">
        <ele>547.429</ele>
        <time>2009-05-07T15:06:04Z</time>
      </trkpt>
      <trkpt lat="43.78094" lon="7.2529">
        <ele>548.434</ele>
        <time>2009-05-07T15:06:06Z</time>
      </trkpt>
      <trkpt lat="43.78087" lon="7.25295">
        <ele>549.544</ele>
        <time>2009-05-07T15:06:13Z</time>
      </trkpt>
      <trkpt lat="43.78077" lon="7.25301">
        <ele>550.638</ele>
        <time>2009-05-07T15:06:21Z</time>
      </trkpt>
      <trkpt lat="43.78071" lon="7.25304">
        <ele>551.045</ele>
        <time>2009-05-07T15:06:26Z</time>
      </trkpt>
      <trkpt lat="43.78069" lon="7.25305">
        <ele>551.593</ele>
        <time>2009-05-07T15:06:27Z</time>
      </trkpt>
      <trkpt lat="43.78063" lon="7.25309">
        <ele>552.066</ele>
        <time>2009-05-07T15:06:33Z</time>
      </trkpt>
      <trkpt lat="43.78057" lon="7.25314">
        <ele>553.24</ele>
        <time>2009-05-07T15:06:40Z</time>
      </trkpt>
      <trkpt lat="43.78054" lon="7.25316">
        <ele>553.708</ele>
        <time>2009-05-07T15:06:43Z</time>
      </trkpt>
      <trkpt lat="43.78045" lon="7.25323">
        <ele>553.405</ele>
        <time>2009-05-07T15:06:51Z</time>
      </trkpt>
      <trkpt lat="43.78039" lon="7.25325">
        <ele>553.646</ele>
        <time>2009-05-07T15:06:56Z</time>
      </trkpt>
      <trkpt lat="43.78029" lon="7.25333">
        <ele>554.964</ele>
        <time>2009-05-07T15:07:05Z</time>
      </trkpt>
      <trkpt lat="43.78028" lon="7.25335">
        <ele>555.325</ele>
        <time>2009-05-07T15:07:07Z</time>
      </trkpt>
      <trkpt lat="43.78019" lon="7.25344">
        <ele>557.907</ele>
        <time>2009-05-07T15:07:17Z</time>
      </trkpt>
      <trkpt lat="43.78011" lon="7.25356">
        <ele>559.549</ele>
        <time>2009-05-07T15:07:26Z</time>
      </trkpt>
      <trkpt lat="43.78004" lon="7.25366">
        <ele>558.95</ele>
        <time>2009-05-07T15:07:34Z</time>
      </trkpt>
      <trkpt lat="43.78002" lon="7.25367">
        <ele>559.149</ele>
        <time>2009-05-07T15:07:35Z</time>
      </trkpt>
      <trkpt lat="43.78001" lon="7.2537">
        <ele>559.12</ele>
        <time>2009-05-07T15:07:37Z</time>
      </trkpt>
      <trkpt lat="43.77992" lon="7.25384">
        <ele>559.314</ele>
        <time>2009-05-07T15:07:46Z</time>
      </trkpt>
      <trkpt lat="43.77982" lon="7.25397">
        <ele>560.173</ele>
        <time>2009-05-07T15:07:57Z</time>
      </trkpt>
      <trkpt lat="43.77973" lon="7.25405">
        <ele>562.536</ele>
        <time>2009-05-07T15:08:05Z</time>
      </trkpt>
      <trkpt lat="43.77965" lon="7.25409">
        <ele>562.358</ele>
        <time>2009-05-07T15:08:12Z</time>
      </trkpt>
      <trkpt lat="43.77958" lon="7.25417">
        <ele>563.733</ele>
        <time>2009-05-07T15:08:21Z</time>
      </trkpt>
      <trkpt lat="43.77951" lon="7.25425">
        <ele>564.101</ele>
        <time>2009-05-07T15:08:30Z</time>
      </trkpt>
      <trkpt lat="43.77942" lon="7.25433">
        <ele>564.024</ele>
        <time>2009-05-07T15:08:39Z</time>
      </trkpt>
      <trkpt lat="43.77933" lon="7.2544">
        <ele>567.158</ele>
        <time>2009-05-07T15:08:50Z</time>
      </trkpt>
      <trkpt lat="43.77934" lon="7.25439">
        <ele>569.767</ele>
        <time>2009-05-07T15:09:04Z</time>
      </trkpt>
      <trkpt lat="43.77937" lon="7.25444">
        <ele>571.367</ele>
        <time>2009-05-07T15:09:19Z</time>
      </trkpt>
      <trkpt lat="43.77939" lon="7.25442">
        <ele>571.851</ele>
        <time>2009-05-07T15:09:22Z</time>
      </trkpt>
      <trkpt lat="43.77945" lon="7.25428">
        <ele>573.059</ele>
        <time>2009-05-07T15:09:29Z</time>
      </trkpt>
      <trkpt lat="43.7795" lon="7.25425">
        <ele>572.395</ele>
        <time>2009-05-07T15:09:30Z</time>
      </trkpt>
      <trkpt lat="43.77961" lon="7.25412">
        <ele>571.409</ele>
        <time>2009-05-07T15:09:34Z</time>
      </trkpt>
      <trkpt lat="43.77984" lon="7.25397">
        <ele>570.11</ele>
        <time>2009-05-07T15:09:40Z</time>
      </trkpt>
      <trkpt lat="43.77998" lon="7.25378">
        <ele>569.146</ele>
        <time>2009-05-07T15:09:46Z</time>
      </trkpt>
      <trkpt lat="43.78015" lon="7.25356">
        <ele>568.219</ele>
        <time>2009-05-07T15:09:52Z</time>
      </trkpt>
      <trkpt lat="43.78023" lon="7.25347">
        <ele>567.636</ele>
        <time>2009-05-07T15:09:54Z</time>
      </trkpt>
      <trkpt lat="43.78054" lon="7.25319">
        <ele>562.506</ele>
        <time>2009-05-07T15:09:59Z</time>
      </trkpt>
      <trkpt lat="43.78061" lon="7.25312">
        <ele>561.829</ele>
        <time>2009-05-07T15:10:00Z</time>
      </trkpt>
      <trkpt lat="43.78108" lon="7.25275">
        <ele>554.447</ele>
        <time>2009-05-07T15:10:05Z</time>
      </trkpt>
      <trkpt lat="43.78127" lon="7.25261">
        <ele>552.203</ele>
        <time>2009-05-07T15:10:07Z</time>
      </trkpt>
      <trkpt lat="43.78143" lon="7.25245">
        <ele>547.628</ele>
        <time>2009-05-07T15:10:09Z</time>
      </trkpt>
      <trkpt lat="43.78168" lon="7.25213">
        <ele>542</ele>
        <time>2009-05-07T15:10:14Z</time>
      </trkpt>
      <trkpt lat="43.78191" lon="7.25174">
        <ele>535.96</ele>
        <time>2009-05-07T15:10:21Z</time>
      </trkpt>
      <trkpt lat="43.78205" lon="7.2515">
        <ele>533.281</ele>
        <time>2009-05-07T15:10:24Z</time>
      </trkpt>
      <trkpt lat="43.78223" lon="7.25106">
        <ele>528.419</ele>
        <time>2009-05-07T15:10:30Z</time>
      </trkpt>
      <trkpt lat="43.78222" lon="7.25095">
        <ele>526.945</ele>
        <time>2009-05-07T15:10:36Z</time>
      </trkpt>
      <trkpt lat="43.78222" lon="7.2509">
        <ele>527.302</ele>
        <time>2009-05-07T15:11:17Z</time>
      </trkpt>
      <trkpt lat="43.78223" lon="7.25081">
        <ele>528.497</ele>
        <time>2009-05-07T15:11:25Z</time>
      </trkpt>
      <trkpt lat="43.78224" lon="7.25078">
        <ele>530.826</ele>
        <time>2009-05-07T15:11:35Z</time>
      </trkpt>
      <trkpt lat="43.78224" lon="7.25072">
        <ele>532.326</ele>
        <time>2009-05-07T15:11:46Z</time>
      </trkpt>
      <trkpt lat="43.78225" lon="7.25069">
        <ele>532.769</ele>
        <time>2009-05-07T15:11:53Z</time>
      </trkpt>
      <trkpt lat="43.78224" lon="7.25065">
        <ele>534.001</ele>
        <time>2009-05-07T15:12:01Z</time>
      </trkpt>
      <trkpt lat="43.78224" lon="7.25064">
        <ele>534.516</ele>
        <time>2009-05-07T15:12:07Z</time>
      </trkpt>
      <trkpt lat="43.78226" lon="7.25056">
        <ele>535.252</ele>
        <time>2009-05-07T15:12:15Z</time>
      </trkpt>
      <trkpt lat="43.78227" lon="7.25051">
        <ele>536.912</ele>
        <time>2009-05-07T15:12:25Z</time>
      </trkpt>
      <trkpt lat="43.78227" lon="7.25049">
        <ele>536.684</ele>
        <time>2009-05-07T15:12:27Z</time>
      </trkpt>
      <trkpt lat="43.78225" lon="7.2504">
        <ele>537.677</ele>
        <time>2009-05-07T15:12:32Z</time>
      </trkpt>
      <trkpt lat="43.78225" lon="7.25036">
        <ele>538.448</ele>
        <time>2009-05-07T15:12:39Z</time>
      </trkpt>
      <trkpt lat="43.78223" lon="7.25022">
        <ele>540.38</ele>
        <time>2009-05-07T15:12:46Z</time>
      </trkpt>
      <trkpt lat="43.78222" lon="7.25016">
        <ele>541.328</ele>
        <time>2009-05-07T15:12:49Z</time>
      </trkpt>
      <trkpt lat="43.78222" lon="7.25002">
        <ele>544.293</ele>
        <time>2009-05-07T15:12:58Z</time>
      </trkpt>
      <trkpt lat="43.78219" lon="7.24997">
        <ele>545.36</ele>
        <time>2009-05-07T15:13:04Z</time>
      </trkpt>
      <trkpt lat="43.78219" lon="7.24994">
        <ele>546.427</ele>
        <time>2009-05-07T15:13:19Z</time>
      </trkpt>
      <trkpt lat="43.78219" lon="7.24992">
        <ele>546.622</ele>
        <time>2009-05-07T15:13:20Z</time>
      </trkpt>
      <trkpt lat="43.78215" lon="7.24984">
        <ele>547.398</ele>
        <time>2009-05-07T15:13:27Z</time>
      </trkpt>
      <trkpt lat="43.78213" lon="7.24977">
        <ele>550.065</ele>
        <time>2009-05-07T15:13:33Z</time>
      </trkpt>
      <trkpt lat="43.7821" lon="7.24966">
        <ele>549.68</ele>
        <time>2009-05-07T15:13:41Z</time>
      </trkpt>
      <trkpt lat="43.78209" lon="7.24961">
        <ele>549.809</ele>
        <time>2009-05-07T15:13:44Z</time>
      </trkpt>
      <trkpt lat="43.78208" lon="7.24955">
        <ele>550.917</ele>
        <time>2009-05-07T15:13:48Z</time>
      </trkpt>
      <trkpt lat="43.78207" lon="7.2495">
        <ele>552</ele>
        <time>2009-05-07T15:13:56Z</time>
      </trkpt>
      <trkpt lat="43.78204" lon="7.24945">
        <ele>552.54</ele>
        <time>2009-05-07T15:14:06Z</time>
      </trkpt>
      <trkpt lat="43.78203" lon="7.24939">
        <ele>553.02</ele>
        <time>2009-05-07T15:14:18Z</time>
      </trkpt>
      <trkpt lat="43.78197" lon="7.24934">
        <ele>554.937</ele>
        <time>2009-05-07T15:14:28Z</time>
      </trkpt>
      <trkpt lat="43.78191" lon="7.24929">
        <ele>557.548</ele>
        <time>2009-05-07T15:14:41Z</time>
      </trkpt>
      <trkpt lat="43.78188" lon="7.24924">
        <ele>558.436</ele>
        <time>2009-05-07T15:14:50Z</time>
      </trkpt>
      <trkpt lat="43.78188" lon="7.24923">
        <ele>558.557</ele>
        <time>2009-05-07T15:14:54Z</time>
      </trkpt>
      <trkpt lat="43.78179" lon="7.24915">
        <ele>560.087</ele>
        <time>2009-05-07T15:15:02Z</time>
      </trkpt>
      <trkpt lat="43.78173" lon="7.24908">
        <ele>562.101</ele>
        <time>2009-05-07T15:15:09Z</time>
      </trkpt>
      <trkpt lat="43.78166" lon="7.24903">
        <ele>562.683</ele>
        <time>2009-05-07T15:15:16Z</time>
      </trkpt>
      <trkpt lat="43.78155" lon="7.24897">
        <ele>562.746</ele>
        <time>2009-05-07T15:15:25Z</time>
      </trkpt>
      <trkpt lat="43.78146" lon="7.24894">
        <ele>563.113</ele>
        <time>2009-05-07T15:15:32Z</time>
      </trkpt>
      <trkpt lat="43.78144" lon="7.24892">
        <ele>562.999</ele>
        <time>2009-05-07T15:15:34Z</time>
      </trkpt>
      <trkpt lat="43.78136" lon="7.24885">
        <ele>565.202</ele>
        <time>2009-05-07T15:15:40Z</time>
      </trkpt>
      <trkpt lat="43.7813" lon="7.24883">
        <ele>567.016</ele>
        <time>2009-05-07T15:15:47Z</time>
      </trkpt>
      <trkpt lat="43.78129" lon="7.24882">
        <ele>566.789</ele>
        <time>2009-05-07T15:15:48Z</time>
      </trkpt>
      <trkpt lat="43.78126" lon="7.2488">
        <ele>567.676</ele>
        <time>2009-05-07T15:15:57Z</time>
      </trkpt>
      <trkpt lat="43.78126" lon="7.24879">
        <ele>568.734</ele>
        <time>2009-05-07T15:16:17Z</time>
      </trkpt>
      <trkpt lat="43.7812" lon="7.2488">
        <ele>569.197</ele>
        <time>2009-05-07T15:16:21Z</time>
      </trkpt>
      <trkpt lat="43.78109" lon="7.24879">
        <ele>571.116</ele>
        <time>2009-05-07T15:16:31Z</time>
      </trkpt>
      <trkpt lat="43.78103" lon="7.24879">
        <ele>571.969</ele>
        <time>2009-05-07T15:16:38Z</time>
      </trkpt>
      <trkpt lat="43.78101" lon="7.24878">
        <ele>573.341</ele>
        <time>2009-05-07T15:16:52Z</time>
      </trkpt>
      <trkpt lat="43.78096" lon="7.24878">
        <ele>574.451</ele>
        <time>2009-05-07T15:17:11Z</time>
      </trkpt>
      <trkpt lat="43.7809" lon="7.2488">
        <ele>576.153</ele>
        <time>2009-05-07T15:17:23Z</time>
      </trkpt>
      <trkpt lat="43.78084" lon="7.24881">
        <ele>576.292</ele>
        <time>2009-05-07T15:17:33Z</time>
      </trkpt>
      <trkpt lat="43.78078" lon="7.24881">
        <ele>577.325</ele>
        <time>2009-05-07T15:17:41Z</time>
      </trkpt>
      <trkpt lat="43.78075" lon="7.24882">
        <ele>577.373</ele>
        <time>2009-05-07T15:17:53Z</time>
      </trkpt>
      <trkpt lat="43.78071" lon="7.24882">
        <ele>579.494</ele>
        <time>2009-05-07T15:18:01Z</time>
      </trkpt>
      <trkpt lat="43.78065" lon="7.24883">
        <ele>581.992</ele>
        <time>2009-05-07T15:18:12Z</time>
      </trkpt>
      <trkpt lat="43.78058" lon="7.24882">
        <ele>583.749</ele>
        <time>2009-05-07T15:18:22Z</time>
      </trkpt>
      <trkpt lat="43.78056" lon="7.24882">
        <ele>584.631</ele>
        <time>2009-05-07T15:18:31Z</time>
      </trkpt>
      <trkpt lat="43.78048" lon="7.2488">
        <ele>586.606</ele>
        <time>2009-05-07T15:18:41Z</time>
      </trkpt>
      <trkpt lat="43.78045" lon="7.24879">
        <ele>587.475</ele>
        <time>2009-05-07T15:18:47Z</time>
      </trkpt>
      <trkpt lat="43.78046" lon="7.24879">
        <ele>588.481</ele>
        <time>2009-05-07T15:18:54Z</time>
      </trkpt>
      <trkpt lat="43.78041" lon="7.24878">
        <ele>588.871</ele>
        <time>2009-05-07T15:19:02Z</time>
      </trkpt>
      <trkpt lat="43.78036" lon="7.24877">
        <ele>590.448</ele>
        <time>2009-05-07T15:19:12Z</time>
      </trkpt>
      <trkpt lat="43.78031" lon="7.24879">
        <ele>591.137</ele>
        <time>2009-05-07T15:19:20Z</time>
      </trkpt>
      <trkpt lat="43.78025" lon="7.24878">
        <ele>592.493</ele>
        <time>2009-05-07T15:19:31Z</time>
      </trkpt>
      <trkpt lat="43.78021" lon="7.2488">
        <ele>593.619</ele>
        <time>2009-05-07T15:19:38Z</time>
      </trkpt>
      <trkpt lat="43.78017" lon="7.2488">
        <ele>595.552</ele>
        <time>2009-05-07T15:19:47Z</time>
      </trkpt>
      <trkpt lat="43.7801" lon="7.24879">
        <ele>596.546</ele>
        <time>2009-05-07T15:19:55Z</time>
      </trkpt>
      <trkpt lat="43.78004" lon="7.24874">
        <ele>598.947</ele>
        <time>2009-05-07T15:20:06Z</time>
      </trkpt>
      <trkpt lat="43.77996" lon="7.24871">
        <ele>600.591</ele>
        <time>2009-05-07T15:20:16Z</time>
      </trkpt>
      <trkpt lat="43.77995" lon="7.24872">
        <ele>601.522</ele>
        <time>2009-05-07T15:20:28Z</time>
      </trkpt>
      <trkpt lat="43.7799" lon="7.24871">
        <ele>601.581</ele>
        <time>2009-05-07T15:20:33Z</time>
      </trkpt>
      <trkpt lat="43.77988" lon="7.24869">
        <ele>601.671</ele>
        <time>2009-05-07T15:20:35Z</time>
      </trkpt>
      <trkpt lat="43.77983" lon="7.24858">
        <ele>598.202</ele>
        <time>2009-05-07T15:20:44Z</time>
      </trkpt>
      <trkpt lat="43.77982" lon="7.2485">
        <ele>597.017</ele>
        <time>2009-05-07T15:20:52Z</time>
      </trkpt>
      <trkpt lat="43.7798" lon="7.24843">
        <ele>598.112</ele>
        <time>2009-05-07T15:20:59Z</time>
      </trkpt>
      <trkpt lat="43.77977" lon="7.24836">
        <ele>598.266</ele>
        <time>2009-05-07T15:21:07Z</time>
      </trkpt>
      <trkpt lat="43.77974" lon="7.24829">
        <ele>595.432</ele>
        <time>2009-05-07T15:21:16Z</time>
      </trkpt>
      <trkpt lat="43.77976" lon="7.24819">
        <ele>595.364</ele>
        <time>2009-05-07T15:21:25Z</time>
      </trkpt>
      <trkpt lat="43.77973" lon="7.24816">
        <ele>594.624</ele>
        <time>2009-05-07T15:21:33Z</time>
      </trkpt>
      <trkpt lat="43.7797" lon="7.24806">
        <ele>593.646</ele>
        <time>2009-05-07T15:21:42Z</time>
      </trkpt>
      <trkpt lat="43.77969" lon="7.24802">
        <ele>595.17</ele>
        <time>2009-05-07T15:21:49Z</time>
      </trkpt>
      <trkpt lat="43.77967" lon="7.24794">
        <ele>597.596</ele>
        <time>2009-05-07T15:21:58Z</time>
      </trkpt>
      <trkpt lat="43.77967" lon="7.24795">
        <ele>599.478</ele>
        <time>2009-05-07T15:22:06Z</time>
      </trkpt>
      <trkpt lat="43.77964" lon="7.24799">
        <ele>602.294</ele>
        <time>2009-05-07T15:22:16Z</time>
      </trkpt>
      <trkpt lat="43.77962" lon="7.24801">
        <ele>604.05</ele>
        <time>2009-05-07T15:22:22Z</time>
      </trkpt>
      <trkpt lat="43.77958" lon="7.24803">
        <ele>609.529</ele>
        <time>2009-05-07T15:22:32Z</time>
      </trkpt>
      <trkpt lat="43.77957" lon="7.24806">
        <ele>610.633</ele>
        <time>2009-05-07T15:22:39Z</time>
      </trkpt>
      <trkpt lat="43.77955" lon="7.24811">
        <ele>612.603</ele>
        <time>2009-05-07T15:22:47Z</time>
      </trkpt>
      <trkpt lat="43.77953" lon="7.24814">
        <ele>613.483</ele>
        <time>2009-05-07T15:22:53Z</time>
      </trkpt>
      <trkpt lat="43.77951" lon="7.24816">
        <ele>615.06</ele>
        <time>2009-05-07T15:23:01Z</time>
      </trkpt>
      <trkpt lat="43.77948" lon="7.24815">
        <ele>616.01</ele>
        <time>2009-05-07T15:23:11Z</time>
      </trkpt>
      <trkpt lat="43.77946" lon="7.24818">
        <ele>617.508</ele>
        <time>2009-05-07T15:23:17Z</time>
      </trkpt>
      <trkpt lat="43.77942" lon="7.24818">
        <ele>619.147</ele>
        <time>2009-05-07T15:23:25Z</time>
      </trkpt>
      <trkpt lat="43.77935" lon="7.2481">
        <ele>621.345</ele>
        <time>2009-05-07T15:23:38Z</time>
      </trkpt>
      <trkpt lat="43.77933" lon="7.24804">
        <ele>624.026</ele>
        <time>2009-05-07T15:23:49Z</time>
      </trkpt>
      <trkpt lat="43.77933" lon="7.248">
        <ele>622.446</ele>
        <time>2009-05-07T15:23:56Z</time>
      </trkpt>
      <trkpt lat="43.7793" lon="7.24803">
        <ele>620.591</ele>
        <time>2009-05-07T15:24:03Z</time>
      </trkpt>
      <trkpt lat="43.77931" lon="7.24802">
        <ele>623.303</ele>
        <time>2009-05-07T15:24:31Z</time>
      </trkpt>
      <trkpt lat="43.7793" lon="7.24806">
        <ele>622.693</ele>
        <time>2009-05-07T15:24:38Z</time>
      </trkpt>
      <trkpt lat="43.77923" lon="7.24804">
        <ele>622.128</ele>
        <time>2009-05-07T15:24:48Z</time>
      </trkpt>
      <trkpt lat="43.7792" lon="7.24799">
        <ele>622.482</ele>
        <time>2009-05-07T15:24:55Z</time>
      </trkpt>
      <trkpt lat="43.77917" lon="7.24796">
        <ele>622.681</ele>
        <time>2009-05-07T15:25:02Z</time>
      </trkpt>
      <trkpt lat="43.77916" lon="7.24797">
        <ele>623.469</ele>
        <time>2009-05-07T15:25:16Z</time>
      </trkpt>
      <trkpt lat="43.77912" lon="7.24799">
        <ele>624.358</ele>
        <time>2009-05-07T15:25:26Z</time>
      </trkpt>
      <trkpt lat="43.7791" lon="7.24804">
        <ele>625.326</ele>
        <time>2009-05-07T15:25:33Z</time>
      </trkpt>
      <trkpt lat="43.77908" lon="7.24807">
        <ele>626.351</ele>
        <time>2009-05-07T15:25:40Z</time>
      </trkpt>
      <trkpt lat="43.77904" lon="7.2481">
        <ele>627.771</ele>
        <time>2009-05-07T15:25:47Z</time>
      </trkpt>
      <trkpt lat="43.77901" lon="7.24812">
        <ele>630.078</ele>
        <time>2009-05-07T15:25:55Z</time>
      </trkpt>
      <trkpt lat="43.77897" lon="7.24816">
        <ele>631.313</ele>
        <time>2009-05-07T15:26:05Z</time>
      </trkpt>
      <trkpt lat="43.77894" lon="7.24818">
        <ele>630.608</ele>
        <time>2009-05-07T15:26:15Z</time>
      </trkpt>
      <trkpt lat="43.7789" lon="7.24821">
        <ele>630.226</ele>
        <time>2009-05-07T15:26:23Z</time>
      </trkpt>
      <trkpt lat="43.77886" lon="7.24824">
        <ele>630.177</ele>
        <time>2009-05-07T15:26:32Z</time>
      </trkpt>
      <trkpt lat="43.77881" lon="7.24828">
        <ele>630.042</ele>
        <time>2009-05-07T15:26:42Z</time>
      </trkpt>
      <trkpt lat="43.77875" lon="7.24833">
        <ele>631.711</ele>
        <time>2009-05-07T15:26:55Z</time>
      </trkpt>
      <trkpt lat="43.77872" lon="7.24835">
        <ele>632.505</ele>
        <time>2009-05-07T15:27:02Z</time>
      </trkpt>
      <trkpt lat="43.7787" lon="7.24836">
        <ele>633.434</ele>
        <time>2009-05-07T15:27:09Z</time>
      </trkpt>
      <trkpt lat="43.77868" lon="7.24836">
        <ele>634.057</ele>
        <time>2009-05-07T15:27:22Z</time>
      </trkpt>
      <trkpt lat="43.77862" lon="7.24838">
        <ele>636.3</ele>
        <time>2009-05-07T15:27:32Z</time>
      </trkpt>
      <trkpt lat="43.77859" lon="7.24842">
        <ele>637.875</ele>
        <time>2009-05-07T15:27:42Z</time>
      </trkpt>
      <trkpt lat="43.77855" lon="7.24846">
        <ele>640.264</ele>
        <time>2009-05-07T15:27:52Z</time>
      </trkpt>
      <trkpt lat="43.77853" lon="7.2485">
        <ele>641.775</ele>
        <time>2009-05-07T15:28:00Z</time>
      </trkpt>
      <trkpt lat="43.77848" lon="7.24855">
        <ele>643.393</ele>
        <time>2009-05-07T15:28:10Z</time>
      </trkpt>
      <trkpt lat="43.77844" lon="7.24858">
        <ele>644.279</ele>
        <time>2009-05-07T15:28:19Z</time>
      </trkpt>
      <trkpt lat="43.7784" lon="7.24858">
        <ele>645.648</ele>
        <time>2009-05-07T15:28:28Z</time>
      </trkpt>
      <trkpt lat="43.77837" lon="7.2486">
        <ele>646.522</ele>
        <time>2009-05-07T15:28:36Z</time>
      </trkpt>
      <trkpt lat="43.77833" lon="7.24861">
        <ele>647.244</ele>
        <time>2009-05-07T15:28:44Z</time>
      </trkpt>
      <trkpt lat="43.77829" lon="7.24864">
        <ele>647.427</ele>
        <time>2009-05-07T15:28:53Z</time>
      </trkpt>
      <trkpt lat="43.77825" lon="7.24865">
        <ele>648.834</ele>
        <time>2009-05-07T15:29:01Z</time>
      </trkpt>
      <trkpt lat="43.77822" lon="7.2487">
        <ele>649.857</ele>
        <time>2009-05-07T15:29:11Z</time>
      </trkpt>
      <trkpt lat="43.77818" lon="7.24872">
        <ele>650.854</ele>
        <time>2009-05-07T15:29:18Z</time>
      </trkpt>
      <trkpt lat="43.77817" lon="7.24873">
        <ele>651.001</ele>
        <time>2009-05-07T15:29:28Z</time>
      </trkpt>
      <trkpt lat="43.77815" lon="7.24873">
        <ele>651.273</ele>
        <time>2009-05-07T15:29:37Z</time>
      </trkpt>
      <trkpt lat="43.7781" lon="7.24872">
        <ele>651.62</ele>
        <time>2009-05-07T15:29:44Z</time>
      </trkpt>
      <trkpt lat="43.77807" lon="7.24871">
        <ele>652.379</ele>
        <time>2009-05-07T15:29:51Z</time>
      </trkpt>
      <trkpt lat="43.77804" lon="7.24871">
        <ele>653.024</ele>
        <time>2009-05-07T15:30:00Z</time>
      </trkpt>
      <trkpt lat="43.77797" lon="7.24872">
        <ele>652.969</ele>
        <time>2009-05-07T15:30:09Z</time>
      </trkpt>
      <trkpt lat="43.77793" lon="7.24873">
        <ele>654.039</ele>
        <time>2009-05-07T15:30:16Z</time>
      </trkpt>
      <trkpt lat="43.77791" lon="7.24874">
        <ele>654.222</ele>
        <time>2009-05-07T15:30:26Z</time>
      </trkpt>
      <trkpt lat="43.77789" lon="7.24878">
        <ele>657.762</ele>
        <time>2009-05-07T15:41:16Z</time>
      </trkpt>
      <trkpt lat="43.77789" lon="7.24878">
        <ele>657.893</ele>
        <time>2009-05-07T15:41:19Z</time>
      </trkpt>
      <trkpt lat="43.77779" lon="7.24886">
        <ele>658.739</ele>
        <time>2009-05-07T15:41:27Z</time>
      </trkpt>
      <trkpt lat="43.77776" lon="7.24892">
        <ele>658.879</ele>
        <time>2009-05-07T15:41:31Z</time>
      </trkpt>
      <trkpt lat="43.77769" lon="7.24896">
        <ele>659.735</ele>
        <time>2009-05-07T15:41:35Z</time>
      </trkpt>
      <trkpt lat="43.77754" lon="7.24901">
        <ele>661.086</ele>
        <time>2009-05-07T15:41:44Z</time>
      </trkpt>
      <trkpt lat="43.77736" lon="7.24904">
        <ele>661.312</ele>
        <time>2009-05-07T15:41:50Z</time>
      </trkpt>
      <trkpt lat="43.77716" lon="7.24916">
        <ele>660.934</ele>
        <time>2009-05-07T15:41:57Z</time>
      </trkpt>
      <trkpt lat="43.77702" lon="7.2492">
        <ele>661.696</ele>
        <time>2009-05-07T15:42:04Z</time>
      </trkpt>
      <trkpt lat="43.77687" lon="7.24915">
        <ele>662.759</ele>
        <time>2009-05-07T15:42:11Z</time>
      </trkpt>
      <trkpt lat="43.77672" lon="7.24905">
        <ele>663.116</ele>
        <time>2009-05-07T15:42:18Z</time>
      </trkpt>
      <trkpt lat="43.77659" lon="7.24904">
        <ele>665.233</ele>
        <time>2009-05-07T15:42:26Z</time>
      </trkpt>
      <trkpt lat="43.77649" lon="7.24906">
        <ele>667.485</ele>
        <time>2009-05-07T15:42:32Z</time>
      </trkpt>
      <trkpt lat="43.77647" lon="7.24906">
        <ele>667.953</ele>
        <time>2009-05-07T15:42:40Z</time>
      </trkpt>
      <trkpt lat="43.77647" lon="7.24906">
        <ele>667.995</ele>
        <time>2009-05-07T15:42:41Z</time>
      </trkpt>
      <trkpt lat="43.77643" lon="7.24907">
        <ele>667.388</ele>
        <time>2009-05-07T15:42:48Z</time>
      </trkpt>
      <trkpt lat="43.77636" lon="7.24906">
        <ele>668.27</ele>
        <time>2009-05-07T15:42:56Z</time>
      </trkpt>
      <trkpt lat="43.77633" lon="7.24906">
        <ele>668.98</ele>
        <time>2009-05-07T15:43:02Z</time>
      </trkpt>
      <trkpt lat="43.77631" lon="7.24906">
        <ele>668.632</ele>
        <time>2009-05-07T15:43:04Z</time>
      </trkpt>
      <trkpt lat="43.77621" lon="7.24908">
        <ele>669.328</ele>
        <time>2009-05-07T15:43:12Z</time>
      </trkpt>
      <trkpt lat="43.77614" lon="7.24907">
        <ele>670.357</ele>
        <time>2009-05-07T15:43:17Z</time>
      </trkpt>
      <trkpt lat="43.77595" lon="7.24911">
        <ele>669.652</ele>
        <time>2009-05-07T15:43:26Z</time>
      </trkpt>
      <trkpt lat="43.77573" lon="7.24918">
        <ele>668.428</ele>
        <time>2009-05-07T15:43:33Z</time>
      </trkpt>
      <trkpt lat="43.77559" lon="7.24923">
        <ele>667.796</ele>
        <time>2009-05-07T15:43:39Z</time>
      </trkpt>
      <trkpt lat="43.77549" lon="7.24927">
        <ele>668.686</ele>
        <time>2009-05-07T15:43:45Z</time>
      </trkpt>
      <trkpt lat="43.77546" lon="7.24927">
        <ele>669.192</ele>
        <time>2009-05-07T15:43:47Z</time>
      </trkpt>
      <trkpt lat="43.77531" lon="7.24929">
        <ele>670.994</ele>
        <time>2009-05-07T15:43:54Z</time>
      </trkpt>
      <trkpt lat="43.77515" lon="7.24934">
        <ele>671.439</ele>
        <time>2009-05-07T15:44:01Z</time>
      </trkpt>
      <trkpt lat="43.77496" lon="7.24937">
        <ele>671.916</ele>
        <time>2009-05-07T15:44:09Z</time>
      </trkpt>
      <trkpt lat="43.77481" lon="7.2494">
        <ele>671.998</ele>
        <time>2009-05-07T15:44:16Z</time>
      </trkpt>
      <trkpt lat="43.77464" lon="7.24941">
        <ele>673.573</ele>
        <time>2009-05-07T15:44:23Z</time>
      </trkpt>
      <trkpt lat="43.77447" lon="7.24938">
        <ele>674.414</ele>
        <time>2009-05-07T15:44:31Z</time>
      </trkpt>
      <trkpt lat="43.77432" lon="7.24941">
        <ele>674.694</ele>
        <time>2009-05-07T15:44:38Z</time>
      </trkpt>
      <trkpt lat="43.77431" lon="7.24941">
        <ele>674.768</ele>
        <time>2009-05-07T15:44:39Z</time>
      </trkpt>
      <trkpt lat="43.77419" lon="7.24944">
        <ele>675.461</ele>
        <time>2009-05-07T15:44:47Z</time>
      </trkpt>
      <trkpt lat="43.77414" lon="7.24944">
        <ele>674.717</ele>
        <time>2009-05-07T15:44:53Z</time>
      </trkpt>
      <trkpt lat="43.774" lon="7.24947">
        <ele>677.068</ele>
        <time>2009-05-07T15:45:20Z</time>
      </trkpt>
      <trkpt lat="43.77388" lon="7.24946">
        <ele>677.715</ele>
        <time>2009-05-07T15:45:27Z</time>
      </trkpt>
      <trkpt lat="43.77384" lon="7.24946">
        <ele>678.846</ele>
        <time>2009-05-07T15:45:33Z</time>
      </trkpt>
      <trkpt lat="43.77382" lon="7.24947">
        <ele>678.431</ele>
        <time>2009-05-07T15:45:47Z</time>
      </trkpt>
      <trkpt lat="43.77378" lon="7.2495">
        <ele>679.097</ele>
        <time>2009-05-07T15:45:54Z</time>
      </trkpt>
      <trkpt lat="43.7737" lon="7.24949">
        <ele>678.592</ele>
        <time>2009-05-07T15:46:03Z</time>
      </trkpt>
      <trkpt lat="43.77363" lon="7.24951">
        <ele>678.428</ele>
        <time>2009-05-07T15:46:11Z</time>
      </trkpt>
      <trkpt lat="43.7736" lon="7.24953">
        <ele>679.085</ele>
        <time>2009-05-07T15:46:20Z</time>
      </trkpt>
      <trkpt lat="43.7735" lon="7.24956">
        <ele>678.764</ele>
        <time>2009-05-07T15:46:30Z</time>
      </trkpt>
      <trkpt lat="43.77341" lon="7.24957">
        <ele>680.318</ele>
        <time>2009-05-07T15:46:38Z</time>
      </trkpt>
      <trkpt lat="43.7734" lon="7.24958">
        <ele>680.321</ele>
        <time>2009-05-07T15:46:39Z</time>
      </trkpt>
      <trkpt lat="43.77335" lon="7.24958">
        <ele>682.165</ele>
        <time>2009-05-07T15:46:43Z</time>
      </trkpt>
      <trkpt lat="43.77325" lon="7.24959">
        <ele>682.545</ele>
        <time>2009-05-07T15:46:54Z</time>
      </trkpt>
      <trkpt lat="43.77319" lon="7.24962">
        <ele>684.036</ele>
        <time>2009-05-07T15:47:05Z</time>
      </trkpt>
      <trkpt lat="43.77312" lon="7.24964">
        <ele>684.691</ele>
        <time>2009-05-07T15:47:12Z</time>
      </trkpt>
      <trkpt lat="43.77309" lon="7.24965">
        <ele>684.925</ele>
        <time>2009-05-07T15:47:14Z</time>
      </trkpt>
      <trkpt lat="43.77302" lon="7.24967">
        <ele>687.819</ele>
        <time>2009-05-07T15:47:24Z</time>
      </trkpt>
      <trkpt lat="43.77294" lon="7.24967">
        <ele>689.617</ele>
        <time>2009-05-07T15:47:33Z</time>
      </trkpt>
      <trkpt lat="43.77289" lon="7.24968">
        <ele>688.16</ele>
        <time>2009-05-07T15:47:41Z</time>
      </trkpt>
      <trkpt lat="43.77286" lon="7.24969">
        <ele>688.818</ele>
        <time>2009-05-07T15:47:47Z</time>
      </trkpt>
      <trkpt lat="43.7728" lon="7.24969">
        <ele>688.998</ele>
        <time>2009-05-07T15:47:52Z</time>
      </trkpt>
      <trkpt lat="43.77265" lon="7.24971">
        <ele>688.528</ele>
        <time>2009-05-07T15:47:59Z</time>
      </trkpt>
      <trkpt lat="43.77246" lon="7.24975">
        <ele>691.61</ele>
        <time>2009-05-07T15:48:07Z</time>
      </trkpt>
      <trkpt lat="43.7723" lon="7.24979">
        <ele>692.721</ele>
        <time>2009-05-07T15:48:14Z</time>
      </trkpt>
      <trkpt lat="43.77214" lon="7.24983">
        <ele>693.701</ele>
        <time>2009-05-07T15:48:21Z</time>
      </trkpt>
      <trkpt lat="43.77195" lon="7.24985">
        <ele>693.431</ele>
        <time>2009-05-07T15:48:28Z</time>
      </trkpt>
      <trkpt lat="43.77176" lon="7.24987">
        <ele>691.778</ele>
        <time>2009-05-07T15:48:34Z</time>
      </trkpt>
      <trkpt lat="43.77158" lon="7.24991">
        <ele>691.034</ele>
        <time>2009-05-07T15:48:40Z</time>
      </trkpt>
      <trkpt lat="43.77137" lon="7.2499">
        <ele>691.358</ele>
        <time>2009-05-07T15:48:47Z</time>
      </trkpt>
      <trkpt lat="43.77119" lon="7.2499">
        <ele>693.075</ele>
        <time>2009-05-07T15:48:52Z</time>
      </trkpt>
      <trkpt lat="43.77093" lon="7.24992">
        <ele>692.859</ele>
        <time>2009-05-07T15:48:59Z</time>
      </trkpt>
      <trkpt lat="43.77078" lon="7.24992">
        <ele>690.696</ele>
        <time>2009-05-07T15:49:04Z</time>
      </trkpt>
      <trkpt lat="43.77075" lon="7.2499">
        <ele>691.406</ele>
        <time>2009-05-07T15:49:05Z</time>
      </trkpt>
      <trkpt lat="43.77062" lon="7.24981">
        <ele>688.657</ele>
        <time>2009-05-07T15:49:12Z</time>
      </trkpt>
      <trkpt lat="43.77051" lon="7.24974">
        <ele>689.07</ele>
        <time>2009-05-07T15:49:16Z</time>
      </trkpt>
      <trkpt lat="43.77028" lon="7.24965">
        <ele>689.169</ele>
        <time>2009-05-07T15:49:24Z</time>
      </trkpt>
      <trkpt lat="43.77021" lon="7.2497">
        <ele>691.823</ele>
        <time>2009-05-07T15:49:31Z</time>
      </trkpt>
      <trkpt lat="43.77018" lon="7.24973">
        <ele>691.488</ele>
        <time>2009-05-07T15:49:41Z</time>
      </trkpt>
      <trkpt lat="43.77014" lon="7.24975">
        <ele>691.236</ele>
        <time>2009-05-07T15:49:50Z</time>
      </trkpt>
      <trkpt lat="43.77013" lon="7.24977">
        <ele>691.857</ele>
        <time>2009-05-07T15:50:00Z</time>
      </trkpt>
      <trkpt lat="43.77011" lon="7.24978">
        <ele>692.589</ele>
        <time>2009-05-07T15:50:36Z</time>
      </trkpt>
      <trkpt lat="43.77004" lon="7.24982">
        <ele>692.07</ele>
        <time>2009-05-07T15:53:53Z</time>
      </trkpt>
      <trkpt lat="43.76984" lon="7.24992">
        <ele>692.03</ele>
        <time>2009-05-07T15:54:01Z</time>
      </trkpt>
      <trkpt lat="43.76971" lon="7.24998">
        <ele>690.269</ele>
        <time>2009-05-07T15:54:05Z</time>
      </trkpt>
      <trkpt lat="43.76953" lon="7.25002">
        <ele>688.186</ele>
        <time>2009-05-07T15:54:11Z</time>
      </trkpt>
      <trkpt lat="43.76948" lon="7.25004">
        <ele>688.413</ele>
        <time>2009-05-07T15:54:17Z</time>
      </trkpt>
      <trkpt lat="43.76936" lon="7.25008">
        <ele>686.956</ele>
        <time>2009-05-07T15:54:26Z</time>
      </trkpt>
      <trkpt lat="43.76917" lon="7.25019">
        <ele>683.718</ele>
        <time>2009-05-07T15:54:32Z</time>
      </trkpt>
      <trkpt lat="43.76894" lon="7.25031">
        <ele>682.85</ele>
        <time>2009-05-07T15:54:38Z</time>
      </trkpt>
      <trkpt lat="43.76884" lon="7.25034">
        <ele>680.655</ele>
        <time>2009-05-07T15:54:43Z</time>
      </trkpt>
      <trkpt lat="43.76884" lon="7.25035">
        <ele>681.151</ele>
        <time>2009-05-07T15:54:44Z</time>
      </trkpt>
      <trkpt lat="43.76885" lon="7.25041">
        <ele>680.369</ele>
        <time>2009-05-07T15:54:50Z</time>
      </trkpt>
      <trkpt lat="43.76885" lon="7.25041">
        <ele>680.44</ele>
        <time>2009-05-07T15:54:52Z</time>
      </trkpt>
      <trkpt lat="43.76869" lon="7.25046">
        <ele>678.482</ele>
        <time>2009-05-07T15:54:58Z</time>
      </trkpt>
      <trkpt lat="43.76842" lon="7.25051">
        <ele>674.989</ele>
        <time>2009-05-07T15:55:04Z</time>
      </trkpt>
      <trkpt lat="43.76828" lon="7.25049">
        <ele>672.528</ele>
        <time>2009-05-07T15:55:07Z</time>
      </trkpt>
      <trkpt lat="43.76803" lon="7.25037">
        <ele>671.312</ele>
        <time>2009-05-07T15:55:12Z</time>
      </trkpt>
      <trkpt lat="43.76796" lon="7.25032">
        <ele>669.929</ele>
        <time>2009-05-07T15:55:14Z</time>
      </trkpt>
      <trkpt lat="43.76769" lon="7.2504">
        <ele>667.014</ele>
        <time>2009-05-07T15:55:20Z</time>
      </trkpt>
      <trkpt lat="43.76742" lon="7.25052">
        <ele>664.939</ele>
        <time>2009-05-07T15:55:26Z</time>
      </trkpt>
      <trkpt lat="43.76736" lon="7.25056">
        <ele>663.976</ele>
        <time>2009-05-07T15:55:28Z</time>
      </trkpt>
      <trkpt lat="43.76731" lon="7.25057">
        <ele>664.012</ele>
        <time>2009-05-07T15:55:30Z</time>
      </trkpt>
      <trkpt lat="43.76721" lon="7.25054">
        <ele>663.348</ele>
        <time>2009-05-07T15:55:34Z</time>
      </trkpt>
      <trkpt lat="43.76704" lon="7.25054">
        <ele>664.117</ele>
        <time>2009-05-07T15:55:39Z</time>
      </trkpt>
      <trkpt lat="43.76685" lon="7.25055">
        <ele>660.066</ele>
        <time>2009-05-07T15:55:44Z</time>
      </trkpt>
      <trkpt lat="43.76682" lon="7.2506">
        <ele>659.752</ele>
        <time>2009-05-07T15:55:45Z</time>
      </trkpt>
      <trkpt lat="43.7667" lon="7.25087">
        <ele>657.176</ele>
        <time>2009-05-07T15:55:50Z</time>
      </trkpt>
      <trkpt lat="43.7665" lon="7.25092">
        <ele>655.249</ele>
        <time>2009-05-07T15:55:55Z</time>
      </trkpt>
      <trkpt lat="43.76616" lon="7.25096">
        <ele>650.815</ele>
        <time>2009-05-07T15:56:01Z</time>
      </trkpt>
      <trkpt lat="43.76587" lon="7.25104">
        <ele>648.955</ele>
        <time>2009-05-07T15:56:07Z</time>
      </trkpt>
      <trkpt lat="43.76567" lon="7.25112">
        <ele>646.633</ele>
        <time>2009-05-07T15:56:11Z</time>
      </trkpt>
      <trkpt lat="43.76541" lon="7.25128">
        <ele>641.851</ele>
        <time>2009-05-07T15:56:16Z</time>
      </trkpt>
      <trkpt lat="43.7652" lon="7.25125">
        <ele>638.839</ele>
        <time>2009-05-07T15:56:20Z</time>
      </trkpt>
      <trkpt lat="43.76494" lon="7.25113">
        <ele>634.935</ele>
        <time>2009-05-07T15:56:26Z</time>
      </trkpt>
      <trkpt lat="43.76476" lon="7.25111">
        <ele>632.259</ele>
        <time>2009-05-07T15:56:31Z</time>
      </trkpt>
      <trkpt lat="43.76474" lon="7.25113">
        <ele>632.025</ele>
        <time>2009-05-07T15:56:33Z</time>
      </trkpt>
      <trkpt lat="43.76454" lon="7.25116">
        <ele>630.661</ele>
        <time>2009-05-07T15:56:40Z</time>
      </trkpt>
      <trkpt lat="43.76437" lon="7.25124">
        <ele>628.489</ele>
        <time>2009-05-07T15:56:46Z</time>
      </trkpt>
      <trkpt lat="43.76423" lon="7.25129">
        <ele>628.377</ele>
        <time>2009-05-07T15:56:52Z</time>
      </trkpt>
      <trkpt lat="43.76417" lon="7.25133">
        <ele>627.468</ele>
        <time>2009-05-07T15:56:58Z</time>
      </trkpt>
      <trkpt lat="43.76407" lon="7.25136">
        <ele>626.403</ele>
        <time>2009-05-07T15:57:11Z</time>
      </trkpt>
      <trkpt lat="43.76396" lon="7.25145">
        <ele>624.68</ele>
        <time>2009-05-07T15:57:17Z</time>
      </trkpt>
      <trkpt lat="43.76386" lon="7.25153">
        <ele>624.77</ele>
        <time>2009-05-07T15:57:20Z</time>
      </trkpt>
      <trkpt lat="43.76364" lon="7.25175">
        <ele>622.865</ele>
        <time>2009-05-07T15:57:27Z</time>
      </trkpt>
      <trkpt lat="43.76359" lon="7.25184">
        <ele>621.944</ele>
        <time>2009-05-07T15:57:29Z</time>
      </trkpt>
      <trkpt lat="43.76349" lon="7.25198">
        <ele>619.789</ele>
        <time>2009-05-07T15:57:33Z</time>
      </trkpt>
      <trkpt lat="43.76335" lon="7.25204">
        <ele>617.088</ele>
        <time>2009-05-07T15:57:37Z</time>
      </trkpt>
      <trkpt lat="43.7632" lon="7.25199">
        <ele>614.121</ele>
        <time>2009-05-07T15:57:41Z</time>
      </trkpt>
      <trkpt lat="43.76287" lon="7.25204">
        <ele>610.487</ele>
        <time>2009-05-07T15:57:48Z</time>
      </trkpt>
      <trkpt lat="43.76274" lon="7.25204">
        <ele>606.816</ele>
        <time>2009-05-07T15:57:53Z</time>
      </trkpt>
      <trkpt lat="43.76254" lon="7.25207">
        <ele>606.282</ele>
        <time>2009-05-07T15:57:59Z</time>
      </trkpt>
      <trkpt lat="43.76248" lon="7.25209">
        <ele>606.231</ele>
        <time>2009-05-07T15:58:04Z</time>
      </trkpt>
      <trkpt lat="43.76244" lon="7.2521">
        <ele>606.321</ele>
        <time>2009-05-07T15:58:31Z</time>
      </trkpt>
      <trkpt lat="43.76234" lon="7.25211">
        <ele>604.531</ele>
        <time>2009-05-07T15:58:36Z</time>
      </trkpt>
      <trkpt lat="43.76208" lon="7.25216">
        <ele>601.592</ele>
        <time>2009-05-07T15:58:43Z</time>
      </trkpt>
      <trkpt lat="43.76199" lon="7.25223">
        <ele>600.339</ele>
        <time>2009-05-07T15:58:46Z</time>
      </trkpt>
      <trkpt lat="43.7619" lon="7.25223">
        <ele>598.292</ele>
        <time>2009-05-07T15:58:50Z</time>
      </trkpt>
      <trkpt lat="43.76186" lon="7.25225">
        <ele>596.411</ele>
        <time>2009-05-07T15:58:56Z</time>
      </trkpt>
      <trkpt lat="43.76177" lon="7.2523">
        <ele>596.231</ele>
        <time>2009-05-07T15:59:54Z</time>
      </trkpt>
      <trkpt lat="43.76159" lon="7.25241">
        <ele>597.612</ele>
        <time>2009-05-07T16:00:01Z</time>
      </trkpt>
      <trkpt lat="43.76149" lon="7.25247">
        <ele>597.401</ele>
        <time>2009-05-07T16:00:06Z</time>
      </trkpt>
      <trkpt lat="43.76147" lon="7.25248">
        <ele>594.687</ele>
        <time>2009-05-07T16:00:14Z</time>
      </trkpt>
      <trkpt lat="43.76142" lon="7.25251">
        <ele>593.734</ele>
        <time>2009-05-07T16:00:29Z</time>
      </trkpt>
      <trkpt lat="43.76139" lon="7.25252">
        <ele>592.564</ele>
        <time>2009-05-07T16:00:39Z</time>
      </trkpt>
      <trkpt lat="43.76133" lon="7.25255">
        <ele>591.142</ele>
        <time>2009-05-07T16:00:45Z</time>
      </trkpt>
      <trkpt lat="43.76116" lon="7.25266">
        <ele>589.133</ele>
        <time>2009-05-07T16:00:51Z</time>
      </trkpt>
      <trkpt lat="43.76101" lon="7.25279">
        <ele>585.571</ele>
        <time>2009-05-07T16:00:57Z</time>
      </trkpt>
      <trkpt lat="43.76095" lon="7.25282">
        <ele>583.023</ele>
        <time>2009-05-07T16:01:04Z</time>
      </trkpt>
      <trkpt lat="43.76094" lon="7.25282">
        <ele>582.485</ele>
        <time>2009-05-07T16:01:08Z</time>
      </trkpt>
      <trkpt lat="43.76089" lon="7.25283">
        <ele>581.968</ele>
        <time>2009-05-07T16:01:17Z</time>
      </trkpt>
      <trkpt lat="43.76088" lon="7.25283">
        <ele>581.753</ele>
        <time>2009-05-07T16:01:19Z</time>
      </trkpt>
      <trkpt lat="43.76078" lon="7.25288">
        <ele>580.475</ele>
        <time>2009-05-07T16:01:23Z</time>
      </trkpt>
      <trkpt lat="43.76051" lon="7.253">
        <ele>579.235</ele>
        <time>2009-05-07T16:01:29Z</time>
      </trkpt>
      <trkpt lat="43.76042" lon="7.25307">
        <ele>577.929</ele>
        <time>2009-05-07T16:01:33Z</time>
      </trkpt>
      <trkpt lat="43.76035" lon="7.25309">
        <ele>576.689</ele>
        <time>2009-05-07T16:01:36Z</time>
      </trkpt>
      <trkpt lat="43.76006" lon="7.25322">
        <ele>573.595</ele>
        <time>2009-05-07T16:01:43Z</time>
      </trkpt>
      <trkpt lat="43.75988" lon="7.25334">
        <ele>570.729</ele>
        <time>2009-05-07T16:01:49Z</time>
      </trkpt>
      <trkpt lat="43.75965" lon="7.25347">
        <ele>568.574</ele>
        <time>2009-05-07T16:01:55Z</time>
      </trkpt>
      <trkpt lat="43.7595" lon="7.25354">
        <ele>567.048</ele>
        <time>2009-05-07T16:01:58Z</time>
      </trkpt>
      <trkpt lat="43.7594" lon="7.25362">
        <ele>566.932</ele>
        <time>2009-05-07T16:02:00Z</time>
      </trkpt>
      <trkpt lat="43.75918" lon="7.2538">
        <ele>564.749</ele>
        <time>2009-05-07T16:02:05Z</time>
      </trkpt>
      <trkpt lat="43.7591" lon="7.25386">
        <ele>564.351</ele>
        <time>2009-05-07T16:02:07Z</time>
      </trkpt>
      <trkpt lat="43.75902" lon="7.25391">
        <ele>563.741</ele>
        <time>2009-05-07T16:02:09Z</time>
      </trkpt>
      <trkpt lat="43.75885" lon="7.25408">
        <ele>562.594</ele>
        <time>2009-05-07T16:02:13Z</time>
      </trkpt>
      <trkpt lat="43.75867" lon="7.25425">
        <ele>563.88</ele>
        <time>2009-05-07T16:02:19Z</time>
      </trkpt>
      <trkpt lat="43.75864" lon="7.25426">
        <ele>562.799</ele>
        <time>2009-05-07T16:02:31Z</time>
      </trkpt>
      <trkpt lat="43.7586" lon="7.25428">
        <ele>561.544</ele>
        <time>2009-05-07T16:02:38Z</time>
      </trkpt>
      <trkpt lat="43.75856" lon="7.2543">
        <ele>560.028</ele>
        <time>2009-05-07T16:02:46Z</time>
      </trkpt>
      <trkpt lat="43.75852" lon="7.25431">
        <ele>558.297</ele>
        <time>2009-05-07T16:02:52Z</time>
      </trkpt>
      <trkpt lat="43.75837" lon="7.25437">
        <ele>556.339</ele>
        <time>2009-05-07T16:02:57Z</time>
      </trkpt>
      <trkpt lat="43.75819" lon="7.25449">
        <ele>553.8</ele>
        <time>2009-05-07T16:03:01Z</time>
      </trkpt>
      <trkpt lat="43.75815" lon="7.2545">
        <ele>553.745</ele>
        <time>2009-05-07T16:03:02Z</time>
      </trkpt>
      <trkpt lat="43.75805" lon="7.25456">
        <ele>550.46</ele>
        <time>2009-05-07T16:03:04Z</time>
      </trkpt>
      <trkpt lat="43.75786" lon="7.25468">
        <ele>548.031</ele>
        <time>2009-05-07T16:03:09Z</time>
      </trkpt>
      <trkpt lat="43.75777" lon="7.25477">
        <ele>548.383</ele>
        <time>2009-05-07T16:03:12Z</time>
      </trkpt>
      <trkpt lat="43.75744" lon="7.25499">
        <ele>545.979</ele>
        <time>2009-05-07T16:03:21Z</time>
      </trkpt>
      <trkpt lat="43.75731" lon="7.25502">
        <ele>543.824</ele>
        <time>2009-05-07T16:03:27Z</time>
      </trkpt>
      <trkpt lat="43.75713" lon="7.25513">
        <ele>541.52</ele>
        <time>2009-05-07T16:03:33Z</time>
      </trkpt>
      <trkpt lat="43.75698" lon="7.25518">
        <ele>540.741</ele>
        <time>2009-05-07T16:03:38Z</time>
      </trkpt>
      <trkpt lat="43.75673" lon="7.25533">
        <ele>537.938</ele>
        <time>2009-05-07T16:03:44Z</time>
      </trkpt>
      <trkpt lat="43.7565" lon="7.2554">
        <ele>533.852</ele>
        <time>2009-05-07T16:03:50Z</time>
      </trkpt>
      <trkpt lat="43.75634" lon="7.25552">
        <ele>533.63</ele>
        <time>2009-05-07T16:03:55Z</time>
      </trkpt>
      <trkpt lat="43.75613" lon="7.25565">
        <ele>531.254</ele>
        <time>2009-05-07T16:04:01Z</time>
      </trkpt>
      <trkpt lat="43.75601" lon="7.2557">
        <ele>530.176</ele>
        <time>2009-05-07T16:04:04Z</time>
      </trkpt>
      <trkpt lat="43.75578" lon="7.25579">
        <ele>525.875</ele>
        <time>2009-05-07T16:04:10Z</time>
      </trkpt>
      <trkpt lat="43.75565" lon="7.25587">
        <ele>522.739</ele>
        <time>2009-05-07T16:04:15Z</time>
      </trkpt>
      <trkpt lat="43.75555" lon="7.25596">
        <ele>521.318</ele>
        <time>2009-05-07T16:04:19Z</time>
      </trkpt>
      <trkpt lat="43.75553" lon="7.25599">
        <ele>521.152</ele>
        <time>2009-05-07T16:04:26Z</time>
      </trkpt>
      <trkpt lat="43.75552" lon="7.256">
        <ele>520.921</ele>
        <time>2009-05-07T16:04:34Z</time>
      </trkpt>
      <trkpt lat="43.75547" lon="7.25609">
        <ele>519.238</ele>
        <time>2009-05-07T16:04:38Z</time>
      </trkpt>
      <trkpt lat="43.75534" lon="7.25643">
        <ele>517.062</ele>
        <time>2009-05-07T16:04:45Z</time>
      </trkpt>
      <trkpt lat="43.75531" lon="7.25686">
        <ele>512.741</ele>
        <time>2009-05-07T16:04:51Z</time>
      </trkpt>
      <trkpt lat="43.75524" lon="7.25716">
        <ele>510.174</ele>
        <time>2009-05-07T16:04:56Z</time>
      </trkpt>
      <trkpt lat="43.75522" lon="7.25716">
        <ele>508.837</ele>
        <time>2009-05-07T16:04:57Z</time>
      </trkpt>
      <trkpt lat="43.75509" lon="7.25719">
        <ele>505.771</ele>
        <time>2009-05-07T16:05:01Z</time>
      </trkpt>
      <trkpt lat="43.75493" lon="7.25748">
        <ele>501.481</ele>
        <time>2009-05-07T16:05:06Z</time>
      </trkpt>
      <trkpt lat="43.75483" lon="7.25779">
        <ele>501.22</ele>
        <time>2009-05-07T16:05:10Z</time>
      </trkpt>
      <trkpt lat="43.75469" lon="7.25783">
        <ele>501.214</ele>
        <time>2009-05-07T16:05:13Z</time>
      </trkpt>
      <trkpt lat="43.75453" lon="7.25796">
        <ele>501.961</ele>
        <time>2009-05-07T16:05:18Z</time>
      </trkpt>
      <trkpt lat="43.7545" lon="7.25797">
        <ele>501.708</ele>
        <time>2009-05-07T16:05:19Z</time>
      </trkpt>
      <trkpt lat="43.75445" lon="7.25798">
        <ele>501.865</ele>
        <time>2009-05-07T16:05:24Z</time>
      </trkpt>
      <trkpt lat="43.75446" lon="7.25799">
        <ele>500.553</ele>
        <time>2009-05-07T16:10:26Z</time>
      </trkpt>
      <trkpt lat="43.75429" lon="7.25799">
        <ele>500.63</ele>
        <time>2009-05-07T16:10:34Z</time>
      </trkpt>
      <trkpt lat="43.7541" lon="7.25807">
        <ele>502.297</ele>
        <time>2009-05-07T16:10:40Z</time>
      </trkpt>
      <trkpt lat="43.75388" lon="7.258">
        <ele>503.077</ele>
        <time>2009-05-07T16:10:48Z</time>
      </trkpt>
      <trkpt lat="43.75381" lon="7.25798">
        <ele>503.249</ele>
        <time>2009-05-07T16:10:51Z</time>
      </trkpt>
      <trkpt lat="43.75373" lon="7.25787">
        <ele>501.716</ele>
        <time>2009-05-07T16:10:58Z</time>
      </trkpt>
      <trkpt lat="43.75371" lon="7.25786">
        <ele>501.884</ele>
        <time>2009-05-07T16:10:59Z</time>
      </trkpt>
      <trkpt lat="43.75354" lon="7.25783">
        <ele>499.728</ele>
        <time>2009-05-07T16:11:05Z</time>
      </trkpt>
      <trkpt lat="43.75337" lon="7.25796">
        <ele>498</ele>
        <time>2009-05-07T16:11:09Z</time>
      </trkpt>
      <trkpt lat="43.75325" lon="7.25814">
        <ele>496.788</ele>
        <time>2009-05-07T16:11:13Z</time>
      </trkpt>
      <trkpt lat="43.75309" lon="7.2582">
        <ele>496.651</ele>
        <time>2009-05-07T16:11:17Z</time>
      </trkpt>
      <trkpt lat="43.75292" lon="7.2583">
        <ele>498.617</ele>
        <time>2009-05-07T16:11:23Z</time>
      </trkpt>
      <trkpt lat="43.75282" lon="7.25837">
        <ele>498.611</ele>
        <time>2009-05-07T16:11:28Z</time>
      </trkpt>
      <trkpt lat="43.75267" lon="7.25841">
        <ele>498.521</ele>
        <time>2009-05-07T16:11:34Z</time>
      </trkpt>
      <trkpt lat="43.75251" lon="7.25855">
        <ele>496.778</ele>
        <time>2009-05-07T16:11:42Z</time>
      </trkpt>
      <trkpt lat="43.75227" lon="7.25855">
        <ele>492.745</ele>
        <time>2009-05-07T16:11:48Z</time>
      </trkpt>
      <trkpt lat="43.75221" lon="7.25856">
        <ele>492.108</ele>
        <time>2009-05-07T16:11:49Z</time>
      </trkpt>
      <trkpt lat="43.75204" lon="7.25864">
        <ele>490.703</ele>
        <time>2009-05-07T16:11:52Z</time>
      </trkpt>
      <trkpt lat="43.75178" lon="7.25872">
        <ele>490.307</ele>
        <time>2009-05-07T16:11:57Z</time>
      </trkpt>
      <trkpt lat="43.75159" lon="7.25871">
        <ele>487.154</ele>
        <time>2009-05-07T16:12:01Z</time>
      </trkpt>
      <trkpt lat="43.75129" lon="7.25872">
        <ele>484.391</ele>
        <time>2009-05-07T16:12:07Z</time>
      </trkpt>
      <trkpt lat="43.75096" lon="7.25877">
        <ele>483.914</ele>
        <time>2009-05-07T16:12:13Z</time>
      </trkpt>
      <trkpt lat="43.75079" lon="7.25866">
        <ele>481.124</ele>
        <time>2009-05-07T16:12:17Z</time>
      </trkpt>
      <trkpt lat="43.75054" lon="7.2586">
        <ele>479.154</ele>
        <time>2009-05-07T16:12:22Z</time>
      </trkpt>
      <trkpt lat="43.75031" lon="7.25857">
        <ele>478.025</ele>
        <time>2009-05-07T16:12:27Z</time>
      </trkpt>
      <trkpt lat="43.75009" lon="7.25853">
        <ele>477.678</ele>
        <time>2009-05-07T16:12:33Z</time>
      </trkpt>
      <trkpt lat="43.74983" lon="7.25855">
        <ele>477.206</ele>
        <time>2009-05-07T16:12:40Z</time>
      </trkpt>
      <trkpt lat="43.74972" lon="7.25853">
        <ele>475.495</ele>
        <time>2009-05-07T16:12:45Z</time>
      </trkpt>
      <trkpt lat="43.74961" lon="7.25841">
        <ele>474.407</ele>
        <time>2009-05-07T16:12:49Z</time>
      </trkpt>
      <trkpt lat="43.74945" lon="7.25838">
        <ele>474.022</ele>
        <time>2009-05-07T16:12:54Z</time>
      </trkpt>
      <trkpt lat="43.74927" lon="7.25837">
        <ele>473.966</ele>
        <time>2009-05-07T16:13:01Z</time>
      </trkpt>
      <trkpt lat="43.7491" lon="7.2584">
        <ele>474.352</ele>
        <time>2009-05-07T16:13:08Z</time>
      </trkpt>
      <trkpt lat="43.74896" lon="7.25842">
        <ele>473.76</ele>
        <time>2009-05-07T16:13:14Z</time>
      </trkpt>
      <trkpt lat="43.74872" lon="7.25842">
        <ele>472.667</ele>
        <time>2009-05-07T16:13:22Z</time>
      </trkpt>
      <trkpt lat="43.74853" lon="7.25843">
        <ele>473.282</ele>
        <time>2009-05-07T16:13:29Z</time>
      </trkpt>
      <trkpt lat="43.74829" lon="7.25841">
        <ele>474.777</ele>
        <time>2009-05-07T16:13:37Z</time>
      </trkpt>
      <trkpt lat="43.74808" lon="7.2584">
        <ele>474.984</ele>
        <time>2009-05-07T16:13:44Z</time>
      </trkpt>
      <trkpt lat="43.74788" lon="7.25842">
        <ele>473.642</ele>
        <time>2009-05-07T16:13:50Z</time>
      </trkpt>
      <trkpt lat="43.74771" lon="7.25847">
        <ele>470.062</ele>
        <time>2009-05-07T16:13:55Z</time>
      </trkpt>
      <trkpt lat="43.74754" lon="7.2586">
        <ele>468.478</ele>
        <time>2009-05-07T16:14:02Z</time>
      </trkpt>
      <trkpt lat="43.74731" lon="7.25873">
        <ele>468.119</ele>
        <time>2009-05-07T16:14:09Z</time>
      </trkpt>
      <trkpt lat="43.74716" lon="7.25878">
        <ele>464.794</ele>
        <time>2009-05-07T16:14:14Z</time>
      </trkpt>
      <trkpt lat="43.74715" lon="7.25886">
        <ele>462.693</ele>
        <time>2009-05-07T16:14:21Z</time>
      </trkpt>
      <trkpt lat="43.74712" lon="7.25889">
        <ele>459.774</ele>
        <time>2009-05-07T16:14:37Z</time>
      </trkpt>
      <trkpt lat="43.74708" lon="7.2589">
        <ele>460.503</ele>
        <time>2009-05-07T16:14:43Z</time>
      </trkpt>
      <trkpt lat="43.74703" lon="7.25889">
        <ele>461.083</ele>
        <time>2009-05-07T16:14:51Z</time>
      </trkpt>
      <trkpt lat="43.74693" lon="7.25891">
        <ele>461.711</ele>
        <time>2009-05-07T16:14:55Z</time>
      </trkpt>
      <trkpt lat="43.74686" lon="7.25896">
        <ele>460.976</ele>
        <time>2009-05-07T16:15:01Z</time>
      </trkpt>
      <trkpt lat="43.74683" lon="7.25893">
        <ele>459.682</ele>
        <time>2009-05-07T16:15:10Z</time>
      </trkpt>
      <trkpt lat="43.74683" lon="7.25886">
        <ele>459.243</ele>
        <time>2009-05-07T16:15:19Z</time>
      </trkpt>
      <trkpt lat="43.74678" lon="7.25869">
        <ele>456.327</ele>
        <time>2009-05-07T16:15:24Z</time>
      </trkpt>
      <trkpt lat="43.74656" lon="7.25849">
        <ele>452.396</ele>
        <time>2009-05-07T16:15:31Z</time>
      </trkpt>
      <trkpt lat="43.74647" lon="7.25852">
        <ele>450.838</ele>
        <time>2009-05-07T16:15:35Z</time>
      </trkpt>
      <trkpt lat="43.7463" lon="7.25863">
        <ele>449.652</ele>
        <time>2009-05-07T16:15:43Z</time>
      </trkpt>
      <trkpt lat="43.74618" lon="7.25869">
        <ele>449.873</ele>
        <time>2009-05-07T16:15:48Z</time>
      </trkpt>
      <trkpt lat="43.74603" lon="7.25876">
        <ele>448.464</ele>
        <time>2009-05-07T16:15:54Z</time>
      </trkpt>
      <trkpt lat="43.74584" lon="7.25873">
        <ele>443.391</ele>
        <time>2009-05-07T16:16:02Z</time>
      </trkpt>
      <trkpt lat="43.74579" lon="7.2587">
        <ele>443.138</ele>
        <time>2009-05-07T16:16:08Z</time>
      </trkpt>
      <trkpt lat="43.74579" lon="7.2587">
        <ele>442.565</ele>
        <time>2009-05-07T16:16:28Z</time>
      </trkpt>
      <trkpt lat="43.74573" lon="7.25845">
        <ele>439.498</ele>
        <time>2009-05-07T16:16:35Z</time>
      </trkpt>
      <trkpt lat="43.74568" lon="7.25829">
        <ele>434.495</ele>
        <time>2009-05-07T16:16:40Z</time>
      </trkpt>
      <trkpt lat="43.74567" lon="7.2582">
        <ele>430.22</ele>
        <time>2009-05-07T16:16:44Z</time>
      </trkpt>
      <trkpt lat="43.74563" lon="7.2581">
        <ele>425.868</ele>
        <time>2009-05-07T16:16:50Z</time>
      </trkpt>
      <trkpt lat="43.74565" lon="7.25801">
        <ele>424.95</ele>
        <time>2009-05-07T16:17:22Z</time>
      </trkpt>
      <trkpt lat="43.74568" lon="7.25796">
        <ele>422.922</ele>
        <time>2009-05-07T16:17:32Z</time>
      </trkpt>
      <trkpt lat="43.74567" lon="7.25791">
        <ele>422.227</ele>
        <time>2009-05-07T16:17:44Z</time>
      </trkpt>
      <trkpt lat="43.74567" lon="7.25786">
        <ele>422.182</ele>
        <time>2009-05-07T16:17:58Z</time>
      </trkpt>
      <trkpt lat="43.74564" lon="7.25784">
        <ele>420.96</ele>
        <time>2009-05-07T16:18:07Z</time>
      </trkpt>
      <trkpt lat="43.74561" lon="7.2578">
        <ele>419.447</ele>
        <time>2009-05-07T16:18:16Z</time>
      </trkpt>
      <trkpt lat="43.74559" lon="7.25775">
        <ele>418.832</ele>
        <time>2009-05-07T16:18:27Z</time>
      </trkpt>
      <trkpt lat="43.74558" lon="7.25771">
        <ele>417.205</ele>
        <time>2009-05-07T16:18:34Z</time>
      </trkpt>
      <trkpt lat="43.74556" lon="7.25767">
        <ele>416.622</ele>
        <time>2009-05-07T16:18:56Z</time>
      </trkpt>
      <trkpt lat="43.74554" lon="7.25766">
        <ele>416.237</ele>
        <time>2009-05-07T16:19:05Z</time>
      </trkpt>
      <trkpt lat="43.74548" lon="7.25749">
        <ele>413.746</ele>
        <time>2009-05-07T16:19:11Z</time>
      </trkpt>
      <trkpt lat="43.74546" lon="7.25743">
        <ele>412.555</ele>
        <time>2009-05-07T16:19:13Z</time>
      </trkpt>
      <trkpt lat="43.74537" lon="7.2572">
        <ele>406.895</ele>
        <time>2009-05-07T16:19:20Z</time>
      </trkpt>
      <trkpt lat="43.74532" lon="7.25717">
        <ele>406.053</ele>
        <time>2009-05-07T16:19:22Z</time>
      </trkpt>
      <trkpt lat="43.74526" lon="7.25718">
        <ele>403.923</ele>
        <time>2009-05-07T16:19:28Z</time>
      </trkpt>
      <trkpt lat="43.74522" lon="7.25714">
        <ele>402.453</ele>
        <time>2009-05-07T16:19:35Z</time>
      </trkpt>
      <trkpt lat="43.74514" lon="7.25712">
        <ele>401.434</ele>
        <time>2009-05-07T16:19:42Z</time>
      </trkpt>
      <trkpt lat="43.745" lon="7.257">
        <ele>399.658</ele>
        <time>2009-05-07T16:19:47Z</time>
      </trkpt>
      <trkpt lat="43.74481" lon="7.25693">
        <ele>396.419</ele>
        <time>2009-05-07T16:19:54Z</time>
      </trkpt>
      <trkpt lat="43.74463" lon="7.25683">
        <ele>394.127</ele>
        <time>2009-05-07T16:20:00Z</time>
      </trkpt>
      <trkpt lat="43.74453" lon="7.25679">
        <ele>394.234</ele>
        <time>2009-05-07T16:20:03Z</time>
      </trkpt>
      <trkpt lat="43.74439" lon="7.25678">
        <ele>392.236</ele>
        <time>2009-05-07T16:20:09Z</time>
      </trkpt>
      <trkpt lat="43.74429" lon="7.25673">
        <ele>392.351</ele>
        <time>2009-05-07T16:20:12Z</time>
      </trkpt>
      <trkpt lat="43.74414" lon="7.25659">
        <ele>391.695</ele>
        <time>2009-05-07T16:20:16Z</time>
      </trkpt>
      <trkpt lat="43.74409" lon="7.2565">
        <ele>390.518</ele>
        <time>2009-05-07T16:20:18Z</time>
      </trkpt>
      <trkpt lat="43.74383" lon="7.2565">
        <ele>386.701</ele>
        <time>2009-05-07T16:20:26Z</time>
      </trkpt>
      <trkpt lat="43.74378" lon="7.25649">
        <ele>386.641</ele>
        <time>2009-05-07T16:20:27Z</time>
      </trkpt>
      <trkpt lat="43.74358" lon="7.25647">
        <ele>385.685</ele>
        <time>2009-05-07T16:20:31Z</time>
      </trkpt>
      <trkpt lat="43.74333" lon="7.25633">
        <ele>382.772</ele>
        <time>2009-05-07T16:20:37Z</time>
      </trkpt>
      <trkpt lat="43.74315" lon="7.25623">
        <ele>381.359</ele>
        <time>2009-05-07T16:20:42Z</time>
      </trkpt>
      <trkpt lat="43.7431" lon="7.25622">
        <ele>381.643</ele>
        <time>2009-05-07T16:20:43Z</time>
      </trkpt>
      <trkpt lat="43.74292" lon="7.25618">
        <ele>381.05</ele>
        <time>2009-05-07T16:20:47Z</time>
      </trkpt>
      <trkpt lat="43.74271" lon="7.25634">
        <ele>381.464</ele>
        <time>2009-05-07T16:20:53Z</time>
      </trkpt>
      <trkpt lat="43.74253" lon="7.25649">
        <ele>380.871</ele>
        <time>2009-05-07T16:20:58Z</time>
      </trkpt>
      <trkpt lat="43.74245" lon="7.25658">
        <ele>380.514</ele>
        <time>2009-05-07T16:21:00Z</time>
      </trkpt>
      <trkpt lat="43.74223" lon="7.25671">
        <ele>379.771</ele>
        <time>2009-05-07T16:21:04Z</time>
      </trkpt>
      <trkpt lat="43.74215" lon="7.25693">
        <ele>379.856</ele>
        <time>2009-05-07T16:21:07Z</time>
      </trkpt>
      <trkpt lat="43.74202" lon="7.25724">
        <ele>377.869</ele>
        <time>2009-05-07T16:21:12Z</time>
      </trkpt>
      <trkpt lat="43.74196" lon="7.25743">
        <ele>375.269</ele>
        <time>2009-05-07T16:21:18Z</time>
      </trkpt>
      <trkpt lat="43.7419" lon="7.25743">
        <ele>373.829</ele>
        <time>2009-05-07T16:21:22Z</time>
      </trkpt>
      <trkpt lat="43.74192" lon="7.25768">
        <ele>370.199</ele>
        <time>2009-05-07T16:21:27Z</time>
      </trkpt>
      <trkpt lat="43.7421" lon="7.25802">
        <ele>367.732</ele>
        <time>2009-05-07T16:21:32Z</time>
      </trkpt>
      <trkpt lat="43.74214" lon="7.25808">
        <ele>367.281</ele>
        <time>2009-05-07T16:21:33Z</time>
      </trkpt>
      <trkpt lat="43.7425" lon="7.25851">
        <ele>362.816</ele>
        <time>2009-05-07T16:21:40Z</time>
      </trkpt>
      <trkpt lat="43.74274" lon="7.25866">
        <ele>359.868</ele>
        <time>2009-05-07T16:21:44Z</time>
      </trkpt>
      <trkpt lat="43.74284" lon="7.25877">
        <ele>358.981</ele>
        <time>2009-05-07T16:21:46Z</time>
      </trkpt>
      <trkpt lat="43.74291" lon="7.25903">
        <ele>356.166</ele>
        <time>2009-05-07T16:21:50Z</time>
      </trkpt>
      <trkpt lat="43.74285" lon="7.25934">
        <ele>354.523</ele>
        <time>2009-05-07T16:21:53Z</time>
      </trkpt>
      <trkpt lat="43.74289" lon="7.25957">
        <ele>352.119</ele>
        <time>2009-05-07T16:21:55Z</time>
      </trkpt>
      <trkpt lat="43.7432" lon="7.2606">
        <ele>346.43</ele>
        <time>2009-05-07T16:22:04Z</time>
      </trkpt>
      <trkpt lat="43.74337" lon="7.26122">
        <ele>343.974</ele>
        <time>2009-05-07T16:22:10Z</time>
      </trkpt>
      <trkpt lat="43.74358" lon="7.26188">
        <ele>338.76</ele>
        <time>2009-05-07T16:22:16Z</time>
      </trkpt>
      <trkpt lat="43.74375" lon="7.26237">
        <ele>335.416</ele>
        <time>2009-05-07T16:22:20Z</time>
      </trkpt>
      <trkpt lat="43.74377" lon="7.2628">
        <ele>331.415</ele>
        <time>2009-05-07T16:22:24Z</time>
      </trkpt>
      <trkpt lat="43.74363" lon="7.2632">
        <ele>326.741</ele>
        <time>2009-05-07T16:22:29Z</time>
      </trkpt>
      <trkpt lat="43.74353" lon="7.26337">
        <ele>323.369</ele>
        <time>2009-05-07T16:22:34Z</time>
      </trkpt>
      <trkpt lat="43.7435" lon="7.26338">
        <ele>321.763</ele>
        <time>2009-05-07T16:22:55Z</time>
      </trkpt>
      <trkpt lat="43.74352" lon="7.26354">
        <ele>322.292</ele>
        <time>2009-05-07T16:23:01Z</time>
      </trkpt>
      <trkpt lat="43.7437" lon="7.26353">
        <ele>321.847</ele>
        <time>2009-05-07T16:23:07Z</time>
      </trkpt>
      <trkpt lat="43.74389" lon="7.26348">
        <ele>319.886</ele>
        <time>2009-05-07T16:23:12Z</time>
      </trkpt>
      <trkpt lat="43.74413" lon="7.26341">
        <ele>320.469</ele>
        <time>2009-05-07T16:23:17Z</time>
      </trkpt>
      <trkpt lat="43.74461" lon="7.26331">
        <ele>317.934</ele>
        <time>2009-05-07T16:23:26Z</time>
      </trkpt>
      <trkpt lat="43.74491" lon="7.26324">
        <ele>316.965</ele>
        <time>2009-05-07T16:23:31Z</time>
      </trkpt>
      <trkpt lat="43.74531" lon="7.26337">
        <ele>317.034</ele>
        <time>2009-05-07T16:23:36Z</time>
      </trkpt>
      <trkpt lat="43.74537" lon="7.26343">
        <ele>316.913</ele>
        <time>2009-05-07T16:23:37Z</time>
      </trkpt>
      <trkpt lat="43.74557" lon="7.26361">
        <ele>315.678</ele>
        <time>2009-05-07T16:23:40Z</time>
      </trkpt>
      <trkpt lat="43.74581" lon="7.26373">
        <ele>313.776</ele>
        <time>2009-05-07T16:23:44Z</time>
      </trkpt>
      <trkpt lat="43.74602" lon="7.26376">
        <ele>313.172</ele>
        <time>2009-05-07T16:23:48Z</time>
      </trkpt>
      <trkpt lat="43.74641" lon="7.26369">
        <ele>314.613</ele>
        <time>2009-05-07T16:23:56Z</time>
      </trkpt>
      <trkpt lat="43.74651" lon="7.26366">
        <ele>313.021</ele>
        <time>2009-05-07T16:23:58Z</time>
      </trkpt>
      <trkpt lat="43.74672" lon="7.26375">
        <ele>312.524</ele>
        <time>2009-05-07T16:24:04Z</time>
      </trkpt>
      <trkpt lat="43.74695" lon="7.26382">
        <ele>310.861</ele>
        <time>2009-05-07T16:24:11Z</time>
      </trkpt>
      <trkpt lat="43.7472" lon="7.2638">
        <ele>312.175</ele>
        <time>2009-05-07T16:24:18Z</time>
      </trkpt>
      <trkpt lat="43.74739" lon="7.26377">
        <ele>312.572</ele>
        <time>2009-05-07T16:24:23Z</time>
      </trkpt>
      <trkpt lat="43.74771" lon="7.26383">
        <ele>313.321</ele>
        <time>2009-05-07T16:24:31Z</time>
      </trkpt>
      <trkpt lat="43.74789" lon="7.26392">
        <ele>313.086</ele>
        <time>2009-05-07T16:24:37Z</time>
      </trkpt>
      <trkpt lat="43.74811" lon="7.26402">
        <ele>314.639</ele>
        <time>2009-05-07T16:24:45Z</time>
      </trkpt>
      <trkpt lat="43.74822" lon="7.26405">
        <ele>314.75</ele>
        <time>2009-05-07T16:24:50Z</time>
      </trkpt>
      <trkpt lat="43.74831" lon="7.26409">
        <ele>313.499</ele>
        <time>2009-05-07T16:25:36Z</time>
      </trkpt>
      <trkpt lat="43.74847" lon="7.26415">
        <ele>313.014</ele>
        <time>2009-05-07T16:25:43Z</time>
      </trkpt>
      <trkpt lat="43.74873" lon="7.26423">
        <ele>312.789</ele>
        <time>2009-05-07T16:25:51Z</time>
      </trkpt>
      <trkpt lat="43.74889" lon="7.26425">
        <ele>312.543</ele>
        <time>2009-05-07T16:25:55Z</time>
      </trkpt>
      <trkpt lat="43.74905" lon="7.2643">
        <ele>310.215</ele>
        <time>2009-05-07T16:25:59Z</time>
      </trkpt>
      <trkpt lat="43.74921" lon="7.26444">
        <ele>311.14</ele>
        <time>2009-05-07T16:26:03Z</time>
      </trkpt>
      <trkpt lat="43.74934" lon="7.26475">
        <ele>310.727</ele>
        <time>2009-05-07T16:26:08Z</time>
      </trkpt>
      <trkpt lat="43.74948" lon="7.26497">
        <ele>310.266</ele>
        <time>2009-05-07T16:26:12Z</time>
      </trkpt>
      <trkpt lat="43.74981" lon="7.26526">
        <ele>312.066</ele>
        <time>2009-05-07T16:26:20Z</time>
      </trkpt>
      <trkpt lat="43.74985" lon="7.26529">
        <ele>311.611</ele>
        <time>2009-05-07T16:26:21Z</time>
      </trkpt>
      <trkpt lat="43.75009" lon="7.2654">
        <ele>310.08</ele>
        <time>2009-05-07T16:26:25Z</time>
      </trkpt>
      <trkpt lat="43.75054" lon="7.26541">
        <ele>307.744</ele>
        <time>2009-05-07T16:26:31Z</time>
      </trkpt>
      <trkpt lat="43.7507" lon="7.26532">
        <ele>308.119</ele>
        <time>2009-05-07T16:26:33Z</time>
      </trkpt>
      <trkpt lat="43.75091" lon="7.26527">
        <ele>305.128</ele>
        <time>2009-05-07T16:26:36Z</time>
      </trkpt>
      <trkpt lat="43.75098" lon="7.26533">
        <ele>303.937</ele>
        <time>2009-05-07T16:26:37Z</time>
      </trkpt>
      <trkpt lat="43.75142" lon="7.26562">
        <ele>299.798</ele>
        <time>2009-05-07T16:26:43Z</time>
      </trkpt>
      <trkpt lat="43.7516" lon="7.26563">
        <ele>299.855</ele>
        <time>2009-05-07T16:26:45Z</time>
      </trkpt>
      <trkpt lat="43.75187" lon="7.26588">
        <ele>299.962</ele>
        <time>2009-05-07T16:26:50Z</time>
      </trkpt>
      <trkpt lat="43.75187" lon="7.26598">
        <ele>299.525</ele>
        <time>2009-05-07T16:26:51Z</time>
      </trkpt>
      <trkpt lat="43.75189" lon="7.26618">
        <ele>298.421</ele>
        <time>2009-05-07T16:26:53Z</time>
      </trkpt>
      <trkpt lat="43.75201" lon="7.26668">
        <ele>297.518</ele>
        <time>2009-05-07T16:26:58Z</time>
      </trkpt>
      <trkpt lat="43.75217" lon="7.26714">
        <ele>295.292</ele>
        <time>2009-05-07T16:27:03Z</time>
      </trkpt>
      <trkpt lat="43.75217" lon="7.26762">
        <ele>292.421</ele>
        <time>2009-05-07T16:27:08Z</time>
      </trkpt>
      <trkpt lat="43.75196" lon="7.26845">
        <ele>289.783</ele>
        <time>2009-05-07T16:27:16Z</time>
      </trkpt>
      <trkpt lat="43.75176" lon="7.26883">
        <ele>289.22</ele>
        <time>2009-05-07T16:27:21Z</time>
      </trkpt>
      <trkpt lat="43.75144" lon="7.26919">
        <ele>289.612</ele>
        <time>2009-05-07T16:27:28Z</time>
      </trkpt>
      <trkpt lat="43.75117" lon="7.26981">
        <ele>288.204</ele>
        <time>2009-05-07T16:27:36Z</time>
      </trkpt>
      <trkpt lat="43.75096" lon="7.27054">
        <ele>285.903</ele>
        <time>2009-05-07T16:27:44Z</time>
      </trkpt>
      <trkpt lat="43.75089" lon="7.27113">
        <ele>283.715</ele>
        <time>2009-05-07T16:27:50Z</time>
      </trkpt>
      <trkpt lat="43.75084" lon="7.27153">
        <ele>282.409</ele>
        <time>2009-05-07T16:27:54Z</time>
      </trkpt>
      <trkpt lat="43.7509" lon="7.27206">
        <ele>282.654</ele>
        <time>2009-05-07T16:27:59Z</time>
      </trkpt>
      <trkpt lat="43.75095" lon="7.27246">
        <ele>280.938</ele>
        <time>2009-05-07T16:28:03Z</time>
      </trkpt>
      <trkpt lat="43.7509" lon="7.27256">
        <ele>280.331</ele>
        <time>2009-05-07T16:28:04Z</time>
      </trkpt>
      <trkpt lat="43.7505" lon="7.27341">
        <ele>276.407</ele>
        <time>2009-05-07T16:28:12Z</time>
      </trkpt>
      <trkpt lat="43.75046" lon="7.27353">
        <ele>275.821</ele>
        <time>2009-05-07T16:28:13Z</time>
      </trkpt>
      <trkpt lat="43.75034" lon="7.27401">
        <ele>274.109</ele>
        <time>2009-05-07T16:28:17Z</time>
      </trkpt>
      <trkpt lat="43.7503" lon="7.27496">
        <ele>273.465</ele>
        <time>2009-05-07T16:28:24Z</time>
      </trkpt>
      <trkpt lat="43.75022" lon="7.27575">
        <ele>271.143</ele>
        <time>2009-05-07T16:28:30Z</time>
      </trkpt>
      <trkpt lat="43.75014" lon="7.2764">
        <ele>268.116</ele>
        <time>2009-05-07T16:28:36Z</time>
      </trkpt>
      <trkpt lat="43.75023" lon="7.27645">
        <ele>264.739</ele>
        <time>2009-05-07T16:28:40Z</time>
      </trkpt>
      <trkpt lat="43.75031" lon="7.2764">
        <ele>265.108</ele>
        <time>2009-05-07T16:28:45Z</time>
      </trkpt>
      <trkpt lat="43.75036" lon="7.27632">
        <ele>265.132</ele>
        <time>2009-05-07T16:29:14Z</time>
      </trkpt>
      <trkpt lat="43.75044" lon="7.27621">
        <ele>264.703</ele>
        <time>2009-05-07T16:29:18Z</time>
      </trkpt>
      <trkpt lat="43.7507" lon="7.27597">
        <ele>263.829</ele>
        <time>2009-05-07T16:29:24Z</time>
      </trkpt>
      <trkpt lat="43.75123" lon="7.27563">
        <ele>259.481</ele>
        <time>2009-05-07T16:29:32Z</time>
      </trkpt>
      <trkpt lat="43.75165" lon="7.27545">
        <ele>256.139</ele>
        <time>2009-05-07T16:29:37Z</time>
      </trkpt>
      <trkpt lat="43.75186" lon="7.27509">
        <ele>253.701</ele>
        <time>2009-05-07T16:29:41Z</time>
      </trkpt>
      <trkpt lat="43.75202" lon="7.27445">
        <ele>249.43</ele>
        <time>2009-05-07T16:29:46Z</time>
      </trkpt>
      <trkpt lat="43.7524" lon="7.27394">
        <ele>246.406</ele>
        <time>2009-05-07T16:29:51Z</time>
      </trkpt>
      <trkpt lat="43.7525" lon="7.27387">
        <ele>245.353</ele>
        <time>2009-05-07T16:29:52Z</time>
      </trkpt>
      <trkpt lat="43.75287" lon="7.27332">
        <ele>241.201</ele>
        <time>2009-05-07T16:29:57Z</time>
      </trkpt>
      <trkpt lat="43.75294" lon="7.27303">
        <ele>239.303</ele>
        <time>2009-05-07T16:29:59Z</time>
      </trkpt>
      <trkpt lat="43.75346" lon="7.27227">
        <ele>235.57</ele>
        <time>2009-05-07T16:30:06Z</time>
      </trkpt>
      <trkpt lat="43.75354" lon="7.27219">
        <ele>235.506</ele>
        <time>2009-05-07T16:30:07Z</time>
      </trkpt>
      <trkpt lat="43.75357" lon="7.27193">
        <ele>234.428</ele>
        <time>2009-05-07T16:30:10Z</time>
      </trkpt>
      <trkpt lat="43.75339" lon="7.27166">
        <ele>232.381</ele>
        <time>2009-05-07T16:30:13Z</time>
      </trkpt>
      <trkpt lat="43.75319" lon="7.27124">
        <ele>228.278</ele>
        <time>2009-05-07T16:30:17Z</time>
      </trkpt>
      <trkpt lat="43.75305" lon="7.27061">
        <ele>223.002</ele>
        <time>2009-05-07T16:30:22Z</time>
      </trkpt>
      <trkpt lat="43.75302" lon="7.27032">
        <ele>221.995</ele>
        <time>2009-05-07T16:30:24Z</time>
      </trkpt>
      <trkpt lat="43.75304" lon="7.26996">
        <ele>219.636</ele>
        <time>2009-05-07T16:30:27Z</time>
      </trkpt>
      <trkpt lat="43.75311" lon="7.26989">
        <ele>218.92</ele>
        <time>2009-05-07T16:30:30Z</time>
      </trkpt>
      <trkpt lat="43.75314" lon="7.27">
        <ele>218.638</ele>
        <time>2009-05-07T16:30:32Z</time>
      </trkpt>
      <trkpt lat="43.75317" lon="7.27026">
        <ele>217.837</ele>
        <time>2009-05-07T16:30:35Z</time>
      </trkpt>
      <trkpt lat="43.75326" lon="7.27092">
        <ele>217.605</ele>
        <time>2009-05-07T16:30:40Z</time>
      </trkpt>
      <trkpt lat="43.75346" lon="7.2713">
        <ele>216.6</ele>
        <time>2009-05-07T16:30:44Z</time>
      </trkpt>
      <trkpt lat="43.75364" lon="7.27167">
        <ele>214.546</ele>
        <time>2009-05-07T16:30:48Z</time>
      </trkpt>
      <trkpt lat="43.75366" lon="7.27153">
        <ele>211.566</ele>
        <time>2009-05-07T16:30:51Z</time>
      </trkpt>
      <trkpt lat="43.75358" lon="7.27137">
        <ele>209.687</ele>
        <time>2009-05-07T16:30:53Z</time>
      </trkpt>
      <trkpt lat="43.7535" lon="7.27116">
        <ele>207.465</ele>
        <time>2009-05-07T16:30:55Z</time>
      </trkpt>
      <trkpt lat="43.75343" lon="7.27096">
        <ele>205.742</ele>
        <time>2009-05-07T16:30:57Z</time>
      </trkpt>
      <trkpt lat="43.75334" lon="7.27052">
        <ele>201.275</ele>
        <time>2009-05-07T16:31:01Z</time>
      </trkpt>
      <trkpt lat="43.75329" lon="7.26979">
        <ele>194.985</ele>
        <time>2009-05-07T16:31:06Z</time>
      </trkpt>
      <trkpt lat="43.75336" lon="7.26905">
        <ele>191.319</ele>
        <time>2009-05-07T16:31:11Z</time>
      </trkpt>
      <trkpt lat="43.7535" lon="7.26888">
        <ele>190.774</ele>
        <time>2009-05-07T16:31:14Z</time>
      </trkpt>
      <trkpt lat="43.75357" lon="7.26911">
        <ele>189.326</ele>
        <time>2009-05-07T16:31:17Z</time>
      </trkpt>
      <trkpt lat="43.75365" lon="7.26976">
        <ele>186.485</ele>
        <time>2009-05-07T16:31:23Z</time>
      </trkpt>
      <trkpt lat="43.7537" lon="7.26988">
        <ele>185.797</ele>
        <time>2009-05-07T16:31:24Z</time>
      </trkpt>
      <trkpt lat="43.75383" lon="7.27055">
        <ele>183.762</ele>
        <time>2009-05-07T16:31:29Z</time>
      </trkpt>
      <trkpt lat="43.7541" lon="7.27098">
        <ele>182.135</ele>
        <time>2009-05-07T16:31:33Z</time>
      </trkpt>
      <trkpt lat="43.75422" lon="7.27124">
        <ele>181.072</ele>
        <time>2009-05-07T16:31:36Z</time>
      </trkpt>
      <trkpt lat="43.75458" lon="7.27155">
        <ele>179.37</ele>
        <time>2009-05-07T16:31:40Z</time>
      </trkpt>
      <trkpt lat="43.75454" lon="7.27184">
        <ele>178.565</ele>
        <time>2009-05-07T16:31:42Z</time>
      </trkpt>
      <trkpt lat="43.75436" lon="7.27238">
        <ele>176.053</ele>
        <time>2009-05-07T16:31:46Z</time>
      </trkpt>
      <trkpt lat="43.7543" lon="7.27249">
        <ele>175.384</ele>
        <time>2009-05-07T16:31:47Z</time>
      </trkpt>
      <trkpt lat="43.75422" lon="7.27272">
        <ele>174.165</ele>
        <time>2009-05-07T16:31:49Z</time>
      </trkpt>
      <trkpt lat="43.75397" lon="7.27322">
        <ele>170.958</ele>
        <time>2009-05-07T16:31:53Z</time>
      </trkpt>
      <trkpt lat="43.75389" lon="7.27402">
        <ele>167.572</ele>
        <time>2009-05-07T16:31:58Z</time>
      </trkpt>
      <trkpt lat="43.75389" lon="7.27457">
        <ele>165.537</ele>
        <time>2009-05-07T16:32:01Z</time>
      </trkpt>
      <trkpt lat="43.75363" lon="7.27544">
        <ele>161.88</ele>
        <time>2009-05-07T16:32:06Z</time>
      </trkpt>
      <trkpt lat="43.75337" lon="7.27608">
        <ele>158.613</ele>
        <time>2009-05-07T16:32:10Z</time>
      </trkpt>
      <trkpt lat="43.75338" lon="7.2766">
        <ele>155.425</ele>
        <time>2009-05-07T16:32:14Z</time>
      </trkpt>
      <trkpt lat="43.75347" lon="7.2767">
        <ele>154.867</ele>
        <time>2009-05-07T16:32:15Z</time>
      </trkpt>
      <trkpt lat="43.75404" lon="7.27768">
        <ele>145.473</ele>
        <time>2009-05-07T16:32:23Z</time>
      </trkpt>
      <trkpt lat="43.75432" lon="7.27808">
        <ele>142.963</ele>
        <time>2009-05-07T16:32:27Z</time>
      </trkpt>
      <trkpt lat="43.75436" lon="7.27813">
        <ele>140.826</ele>
        <time>2009-05-07T16:32:30Z</time>
      </trkpt>
      <trkpt lat="43.75439" lon="7.2781">
        <ele>136.39</ele>
        <time>2009-05-07T16:32:40Z</time>
      </trkpt>
      <trkpt lat="43.75439" lon="7.27811">
        <ele>136.008</ele>
        <time>2009-05-07T16:33:00Z</time>
      </trkpt>
      <trkpt lat="43.75431" lon="7.27802">
        <ele>135.845</ele>
        <time>2009-05-07T16:33:04Z</time>
      </trkpt>
      <trkpt lat="43.75405" lon="7.27774">
        <ele>138.72</ele>
        <time>2009-05-07T16:33:10Z</time>
      </trkpt>
      <trkpt lat="43.754" lon="7.27769">
        <ele>139.244</ele>
        <time>2009-05-07T16:33:11Z</time>
      </trkpt>
      <trkpt lat="43.75353" lon="7.27729">
        <ele>136.46</ele>
        <time>2009-05-07T16:33:18Z</time>
      </trkpt>
      <trkpt lat="43.75325" lon="7.27706">
        <ele>135.213</ele>
        <time>2009-05-07T16:33:22Z</time>
      </trkpt>
      <trkpt lat="43.7529" lon="7.2769">
        <ele>135.236</ele>
        <time>2009-05-07T16:33:26Z</time>
      </trkpt>
      <trkpt lat="43.75265" lon="7.277">
        <ele>134.89</ele>
        <time>2009-05-07T16:33:29Z</time>
      </trkpt>
      <trkpt lat="43.75249" lon="7.27715">
        <ele>134.362</ele>
        <time>2009-05-07T16:33:31Z</time>
      </trkpt>
      <trkpt lat="43.75201" lon="7.27777">
        <ele>130.854</ele>
        <time>2009-05-07T16:33:37Z</time>
      </trkpt>
      <trkpt lat="43.75193" lon="7.2783">
        <ele>127.204</ele>
        <time>2009-05-07T16:33:41Z</time>
      </trkpt>
      <trkpt lat="43.75201" lon="7.27856">
        <ele>126.986</ele>
        <time>2009-05-07T16:33:43Z</time>
      </trkpt>
      <trkpt lat="43.75198" lon="7.27932">
        <ele>123.465</ele>
        <time>2009-05-07T16:33:49Z</time>
      </trkpt>
      <trkpt lat="43.75164" lon="7.28011">
        <ele>119.971</ele>
        <time>2009-05-07T16:33:56Z</time>
      </trkpt>
      <trkpt lat="43.75144" lon="7.2804">
        <ele>118.722</ele>
        <time>2009-05-07T16:33:59Z</time>
      </trkpt>
      <trkpt lat="43.75127" lon="7.28085">
        <ele>115.896</ele>
        <time>2009-05-07T16:34:03Z</time>
      </trkpt>
      <trkpt lat="43.75117" lon="7.28171">
        <ele>110.643</ele>
        <time>2009-05-07T16:34:10Z</time>
      </trkpt>
      <trkpt lat="43.75124" lon="7.28256">
        <ele>105.977</ele>
        <time>2009-05-07T16:34:17Z</time>
      </trkpt>
      <trkpt lat="43.75102" lon="7.28329">
        <ele>103.354</ele>
        <time>2009-05-07T16:34:24Z</time>
      </trkpt>
      <trkpt lat="43.75072" lon="7.28362">
        <ele>103.779</ele>
        <time>2009-05-07T16:34:29Z</time>
      </trkpt>
      <trkpt lat="43.75065" lon="7.28364">
        <ele>103.288</ele>
        <time>2009-05-07T16:34:30Z</time>
      </trkpt>
      <trkpt lat="43.74993" lon="7.2839">
        <ele>100.836</ele>
        <time>2009-05-07T16:34:40Z</time>
      </trkpt>
      <trkpt lat="43.74954" lon="7.28414">
        <ele>99.696</ele>
        <time>2009-05-07T16:34:45Z</time>
      </trkpt>
      <trkpt lat="43.74917" lon="7.28463">
        <ele>99.246</ele>
        <time>2009-05-07T16:34:51Z</time>
      </trkpt>
      <trkpt lat="43.7489" lon="7.2851">
        <ele>97.708</ele>
        <time>2009-05-07T16:34:55Z</time>
      </trkpt>
      <trkpt lat="43.74879" lon="7.28538">
        <ele>96.886</ele>
        <time>2009-05-07T16:34:57Z</time>
      </trkpt>
      <trkpt lat="43.74843" lon="7.28583">
        <ele>94.27</ele>
        <time>2009-05-07T16:35:01Z</time>
      </trkpt>
      <trkpt lat="43.74763" lon="7.28644">
        <ele>88.781</ele>
        <time>2009-05-07T16:35:08Z</time>
      </trkpt>
      <trkpt lat="43.74699" lon="7.28683">
        <ele>85.183</ele>
        <time>2009-05-07T16:35:14Z</time>
      </trkpt>
      <trkpt lat="43.74668" lon="7.28692">
        <ele>83.125</ele>
        <time>2009-05-07T16:35:18Z</time>
      </trkpt>
      <trkpt lat="43.7466" lon="7.28706">
        <ele>81.614</ele>
        <time>2009-05-07T16:35:20Z</time>
      </trkpt>
      <trkpt lat="43.74654" lon="7.28725">
        <ele>80.344</ele>
        <time>2009-05-07T16:35:22Z</time>
      </trkpt>
      <trkpt lat="43.74619" lon="7.28749">
        <ele>76.256</ele>
        <time>2009-05-07T16:35:27Z</time>
      </trkpt>
      <trkpt lat="43.74589" lon="7.28741">
        <ele>74.104</ele>
        <time>2009-05-07T16:35:31Z</time>
      </trkpt>
      <trkpt lat="43.74573" lon="7.28748">
        <ele>72.461</ele>
        <time>2009-05-07T16:35:34Z</time>
      </trkpt>
      <trkpt lat="43.74567" lon="7.28769">
        <ele>69.851</ele>
        <time>2009-05-07T16:35:38Z</time>
      </trkpt>
      <trkpt lat="43.74572" lon="7.28783">
        <ele>70.874</ele>
        <time>2009-05-07T16:35:45Z</time>
      </trkpt>
      <trkpt lat="43.74576" lon="7.28794">
        <ele>71.359</ele>
        <time>2009-05-07T16:36:01Z</time>
      </trkpt>
      <trkpt lat="43.74586" lon="7.28811">
        <ele>72.539</ele>
        <time>2009-05-07T16:36:12Z</time>
      </trkpt>
      <trkpt lat="43.74588" lon="7.28823">
        <ele>72.664</ele>
        <time>2009-05-07T16:36:18Z</time>
      </trkpt>
      <trkpt lat="43.74588" lon="7.28829">
        <ele>72.681</ele>
        <time>2009-05-07T16:36:22Z</time>
      </trkpt>
      <trkpt lat="43.74588" lon="7.28836">
        <ele>72.218</ele>
        <time>2009-05-07T16:36:26Z</time>
      </trkpt>
      <trkpt lat="43.74586" lon="7.28843">
        <ele>71.92</ele>
        <time>2009-05-07T16:36:30Z</time>
      </trkpt>
      <trkpt lat="43.74582" lon="7.28856">
        <ele>71.651</ele>
        <time>2009-05-07T16:36:38Z</time>
      </trkpt>
      <trkpt lat="43.74583" lon="7.28867">
        <ele>71.623</ele>
        <time>2009-05-07T16:36:44Z</time>
      </trkpt>
      <trkpt lat="43.74587" lon="7.28879">
        <ele>73.753</ele>
        <time>2009-05-07T16:36:52Z</time>
      </trkpt>
      <trkpt lat="43.74592" lon="7.28889">
        <ele>77.489</ele>
        <time>2009-05-07T16:36:59Z</time>
      </trkpt>
      <trkpt lat="43.74599" lon="7.28898">
        <ele>80.035</ele>
        <time>2009-05-07T16:37:14Z</time>
      </trkpt>
      <trkpt lat="43.74598" lon="7.28898">
        <ele>80.539</ele>
        <time>2009-05-07T16:37:34Z</time>
      </trkpt>
    </trkseg>
  </trk>
</gpx>